[[{"header":{"parameterUnit":"m.s-1","parameterCategory":1,"la1":31.0,"la2":29.5877,"lo1":-88.7671,"lo2":-86.6584,"dx":0.0162,"dy":0.0185,"nx":115,"ny":88,"refTime":"2023-01-06T06:00:00:Z","depth":0,"parameterNumber":2,"parameterNumberName":"U-component_of_WINDS"},"data":[0.0,0.0,0.0,0.0,0.0,0.0,0.0,0.0,0.0,0.0,0.0,0.0,0.0,0.0,0.0,0.0,0.0,0.0,0.0,0.0,0.0,0.0,0.0,0.0,0.0,0.0,0.0,0.0,0.0,0.0,0.0,0.0,0.0,0.0,0.0,0.0,0.0,0.0,0.0,0.0,0.0,0.0,0.0,0.0,0.0,0.0,0.0,0.0,0.0,0.0,0.0,0.0,0.0,0.0,0.0,0.0,0.0,0.0,0.0,0.0,0.0,0.0,0.0,0.0,0.0,0.0,0.0,0.0,0.0,0.0,0.0,0.0,0.0,0.0,0.0,0.0,0.0,0.0,0.0,0.0,0.0,0.0,0.0,0.0,0.0,0.0,0.0,0.0,0.0,0.0,0.0,0.0,0.0,0.0,0.0,0.0,0.0,0.0,0.0,0.0,0.0,0.0,0.0,0.0,0.0,0.0,0.0,0.0,0.0,0.0,0.0,0.0,0.0,0.0,0.0,0.0,0.0,0.0,0.0,0.0,0.0,0.0,0.0,0.0,0.0,0.0,0.0,0.0,0.0,0.0,0.0,0.0,0.0,0.0,0.0,0.0,0.0,0.0,0.0,0.0,0.0,0.0,0.0,0.0,0.0,0.0,0.0,0.0,0.0,0.0,0.0,0.0,0.0,0.0,0.0,0.0,0.0,0.0,0.0,0.0,0.0,0.0,0.0,0.0,0.0,0.0,0.0,0.0,0.0,0.0,0.0,0.0,0.0,0.0,0.0,0.0,0.0,0.0,0.0,0.0,0.0,0.0,0.0,0.0,0.0,0.0,0.0,0.0,0.0,0.0,0.0,0.0,0.0,0.0,0.0,0.0,0.0,0.0,0.0,0.0,0.0,0.0,0.0,0.0,0.0,0.0,0.0,0.0,0.0,0.0,0.0,0.0,0.0,0.0,0.0,0.0,0.0,0.0,0.0,0.0,0.0,0.0,0.0,0.0,0.0,0.0,0.0,0.0,0.0,0.0,0.0,0.0,0.0,0.0,0.0,0.0,0.0,0.0,0.0,0.0,0.0,0.0,0.0,0.0,0.0,0.0,0.0,0.0,0.0,0.0,0.0,0.0,0.0,0.0,0.0,0.0,0.0,0.0,0.0,0.0,0.0,0.0,0.0,0.0,0.0,0.0,0.0,0.0,0.0,0.0,0.0,0.0,0.0,0.0,0.0,0.0,0.0,0.0,0.0,0.0,0.0,0.0,0.0,0.0,0.0,0.0,0.0,0.0,0.0,0.0,0.0,0.0,0.0,0.0,0.0,0.0,0.0,0.0,0.0,0.0,0.0,0.0,0.0,0.0,0.0,0.0,0.0,0.0,0.0,0.0,0.0,0.0,0.0,0.0,0.0,0.0,0.0,0.0,0.0,0.0,0.0,0.0,0.0,0.0,0.0,0.0,0.0,0.0,0.0,0.0,0.0,0.0,0.0,0.0,0.0,0.0,0.0,0.0,0.0,0.0,0.0,0.0,0.0,0.0,0.0,0.0,0.0,0.0,0.0,0.0,0.0,0.0,0.0,0.0,0.0,0.0,0.0,0.0,0.0,0.0,0.0,0.0,0.0,0.0,0.0,0.0,0.0,0.0,0.0,0.0,0.0,0.0,0.0,0.0,0.0,0.0,0.0,0.0,0.0,0.0,0.0,0.0,0.0,0.0,0.0,0.0,0.0,0.0,0.0,0.0,0.0,0.0,0.0,0.0,0.0,0.0,0.0,0.0,0.0,0.0,0.0,0.0,0.0,0.0,0.0,0.0,0.0,0.0,0.0,0.0,0.0,0.0,0.0,0.0,0.0,0.0,0.0,0.0,0.0,0.0,0.0,0.0,0.0,0.0,0.0,0.0,0.0,0.0,0.0,0.0,0.0,0.0,0.0,0.0,0.0,0.0,0.0,0.0,0.0,0.0,0.0,0.0,0.0,0.0,0.0,0.0,0.0,0.0,0.0,0.0,0.0,0.0,0.0,0.0,0.0,0.0,0.0,0.0,0.0,0.0,0.0,0.0,0.0,0.0,0.0,0.0,0.0,0.0,0.0,0.0,0.0,0.0,0.0,0.0,0.0,0.0,0.0,0.0,0.0,0.0,0.0,0.0,0.0,0.0,0.0,0.0,0.0,0.0,0.0,0.0,0.0,0.0,0.0,0.0,0.0,0.0,0.0,0.0,0.0,0.0,0.0,0.0,0.0,0.0,0.0,0.0,0.0,0.0,0.0,0.0,0.0,0.0,0.0,0.0,0.0,0.0,0.0,0.0,0.0,0.0,0.0,0.0,0.0,0.0,0.0,0.0,0.0,0.0,0.0,0.0,0.0,0.0,0.0,0.0,0.0,0.0,0.0,0.0,0.0,0.0,0.0,0.0,0.0,0.0,0.0,0.0,0.0,0.0,0.0,0.0,0.0,0.0,0.0,0.0,0.0,0.0,0.0,0.0,0.0,0.0,0.0,0.0,0.0,0.0,0.0,0.0,0.0,0.0,0.0,0.0,0.0,0.0,0.0,0.0,0.0,0.0,0.0,0.0,0.0,0.0,0.0,0.0,0.0,0.0,0.0,0.0,0.0,0.0,0.0,0.0,0.0,0.0,0.0,0.0,0.0,0.0,0.0,0.0,0.0,0.0,0.0,0.0,0.0,0.0,0.0,0.0,0.0,0.0,0.0,0.0,0.0,0.0,0.0,0.0,0.0,0.0,0.0,0.0,0.0,0.0,0.0,0.0,0.0,0.0,0.0,0.0,0.0,0.0,0.0,0.0,0.0,0.0,0.0,0.0,0.0,0.0,0.0,0.0,0.0,0.0,0.0,0.0,0.0,0.0,0.0,0.0,0.0,0.0,0.0,0.0,0.0,0.0,0.0,0.0,0.0,0.0,0.0,0.0,0.0,0.0,0.0,0.0,0.0,0.0,0.0,0.0,0.0,0.0,0.0,0.0,0.0,0.0,0.0,0.0,0.0,0.0,0.0,0.0,0.0,0.0,0.0,0.0,0.0,0.0,0.0,0.0,0.0,0.0,0.0,0.0,0.0,0.0,0.0,0.0,0.0,0.0,0.0,0.0,0.0,0.0,0.0,0.0,0.0,0.0,0.0,0.0,0.0,0.0,0.0,0.0,0.0,0.0,0.0,0.0,0.0,0.0,0.0,0.0,0.0,0.0,0.0,0.0,0.0,0.0,0.0,0.0,0.0,0.0,0.0,0.0,0.0,0.0,0.0,0.0,0.0,0.0,0.0,0.0,0.0,0.0,0.0,0.0,0.0,0.0,0.0,0.0,0.0,0.0,0.0,0.0,0.0,0.0,0.0,0.0,0.0,0.0,0.0,0.0,0.0,0.0,0.0,0.0,0.0,0.0,0.0,0.0,0.0,0.0,0.0,0.0,0.0,0.0,0.0,0.0,0.0,0.0,0.0,0.0,0.0,0.0,0.0,0.0,0.0,0.0,0.0,0.0,0.0,0.0,0.0,0.0,0.0,0.0,0.0,0.0,0.0,0.0,0.0,0.0,0.0,0.0,0.0,0.0,0.0,0.0,0.0,0.0,0.0,0.0,0.0,0.0,0.0,0.0,0.0,0.0,0.0,0.0,0.0,0.0,0.0,0.0,0.0,0.0,0.0,0.0,0.0,0.0,0.0,0.0,0.0,0.0,0.0,0.0,0.0,0.0,0.0,0.0,0.0,0.0,0.0,0.0,0.0,0.0,0.0,0.0,0.0,0.0,0.0,0.0,0.0,0.0,0.0,0.0,0.0,0.0,0.0,0.0,0.0,0.0,0.0,0.0,0.0,0.0,0.0,0.0,0.0,0.0,0.0,0.0,0.0,0.0,0.0,0.0,0.0,0.0,0.0,0.0,0.0,0.0,0.0,0.0,0.0,0.0,0.0,0.0,0.0,0.0,0.0,0.0,0.0,0.0,0.0,0.0,0.0,0.0,0.0,0.0,0.0,0.0,0.0,0.0,0.0,0.0,0.0,0.0,0.0,0.0,0.0,0.0,0.0,0.0,0.0,0.0,0.0,0.0,0.0,0.0,0.0,0.0,0.0,0.0,0.0,0.0,0.0,0.0,0.0,0.0,0.0,0.0,0.0,0.0,0.0,0.0,0.0,0.0,0.0,0.0,0.0,0.0,0.0,0.0,0.0,0.0,0.0,0.0,0.0,0.0,0.0,0.0,0.0,0.0,0.0,0.0,0.0,0.0,0.0,0.0,0.0,0.0,0.0,0.0,0.0,0.0,-2.0239,0.0,0.0,0.0,-2.0379,0.0,0.0,0.0,0.0,0.0,0.0,0.0,0.0,0.0,0.0,0.0,0.0,0.0,0.0,0.0,0.0,0.0,0.0,0.0,0.0,0.0,0.0,0.0,0.0,0.0,0.0,0.0,0.0,0.0,0.0,0.0,0.0,0.0,0.0,0.0,0.0,0.0,0.0,0.0,0.0,0.0,0.0,0.0,0.0,0.0,0.0,0.0,0.0,0.0,0.0,0.0,0.0,0.0,0.0,0.0,0.0,0.0,0.0,0.0,0.0,0.0,0.0,0.0,0.0,0.0,0.0,0.0,0.0,0.0,0.0,0.0,0.0,0.0,0.0,0.0,0.0,0.0,0.0,0.0,0.0,0.0,0.0,0.0,0.0,0.0,0.0,0.0,0.0,0.0,0.0,0.0,0.0,0.0,0.0,0.0,0.0,0.0,0.0,0.0,0.0,0.0,0.0,0.0,0.0,0.0,0.0,0.0,0.0,0.0,0.0,-2.0242,-2.0304,-2.0299,-2.033,-2.0379,0.0,0.0,0.0,0.0,0.0,0.0,0.0,0.0,0.0,0.0,0.0,0.0,0.0,0.0,0.0,0.0,0.0,0.0,0.0,0.0,0.0,0.0,0.0,0.0,0.0,0.0,0.0,0.0,0.0,0.0,0.0,0.0,0.0,0.0,0.0,0.0,0.0,0.0,0.0,0.0,0.0,0.0,0.0,0.0,0.0,0.0,0.0,0.0,0.0,0.0,0.0,0.0,0.0,0.0,0.0,0.0,0.0,0.0,0.0,0.0,0.0,0.0,0.0,0.0,0.0,0.0,0.0,0.0,0.0,0.0,0.0,0.0,0.0,0.0,0.0,0.0,0.0,0.0,0.0,0.0,0.0,0.0,0.0,0.0,0.0,0.0,0.0,0.0,0.0,0.0,0.0,0.0,0.0,0.0,0.0,0.0,0.0,0.0,0.0,0.0,0.0,0.0,0.0,0.0,0.0,0.0,0.0,0.0,0.0,0.0,0.0,0.0,-2.0346,-2.0284,-2.0317,0.0,0.0,0.0,0.0,0.0,0.0,0.0,0.0,0.0,0.0,0.0,0.0,0.0,0.0,0.0,0.0,0.0,0.0,0.0,0.0,0.0,0.0,0.0,0.0,0.0,0.0,0.0,0.0,0.0,0.0,0.0,0.0,0.0,0.0,0.0,0.0,0.0,0.0,0.0,0.0,0.0,0.0,0.0,0.0,0.0,0.0,0.0,0.0,0.0,0.0,0.0,0.0,0.0,0.0,0.0,0.0,0.0,0.0,0.0,0.0,0.0,0.0,0.0,0.0,0.0,0.0,0.0,0.0,0.0,0.0,0.0,0.0,0.0,0.0,0.0,0.0,0.0,0.0,0.0,0.0,0.0,0.0,0.0,0.0,0.0,0.0,0.0,0.0,0.0,0.0,0.0,0.0,0.0,0.0,0.0,0.0,0.0,0.0,0.0,0.0,0.0,0.0,0.0,0.0,0.0,0.0,0.0,0.0,0.0,0.0,-2.0406,-2.1166,-2.0504,0.0,-2.009,0.0,0.0,0.0,0.0,0.0,0.0,0.0,0.0,0.0,0.0,0.0,0.0,0.0,0.0,0.0,0.0,0.0,0.0,0.0,0.0,0.0,0.0,0.0,0.0,0.0,0.0,0.0,0.0,0.0,0.0,0.0,0.0,0.0,0.0,0.0,0.0,0.0,0.0,0.0,0.0,0.0,0.0,0.0,0.0,0.0,0.0,0.0,0.0,0.0,0.0,0.0,0.0,0.0,0.0,0.0,0.0,0.0,0.0,0.0,0.0,0.0,0.0,0.0,0.0,0.0,0.0,0.0,0.0,0.0,0.0,0.0,0.0,0.0,0.0,0.0,0.0,0.0,0.0,0.0,0.0,0.0,0.0,0.0,0.0,0.0,0.0,0.0,0.0,0.0,0.0,0.0,0.0,0.0,0.0,0.0,0.0,0.0,0.0,0.0,0.0,0.0,0.0,0.0,0.0,0.0,0.0,0.0,0.0,0.0,0.0,-2.0852,-2.1303,-2.1038,-2.0623,0.0,0.0,0.0,0.0,0.0,0.0,0.0,0.0,0.0,0.0,0.0,0.0,0.0,0.0,0.0,0.0,0.0,0.0,0.0,0.0,0.0,0.0,0.0,0.0,0.0,0.0,0.0,0.0,0.0,0.0,0.0,0.0,0.0,0.0,0.0,0.0,0.0,0.0,0.0,0.0,0.0,0.0,0.0,0.0,0.0,0.0,0.0,0.0,0.0,0.0,0.0,0.0,0.0,0.0,0.0,0.0,0.0,0.0,0.0,0.0,0.0,0.0,0.0,0.0,0.0,0.0,0.0,0.0,0.0,0.0,0.0,0.0,0.0,0.0,0.0,0.0,0.0,0.0,0.0,0.0,0.0,0.0,0.0,0.0,0.0,0.0,0.0,0.0,0.0,0.0,0.0,0.0,0.0,0.0,0.0,0.0,0.0,0.0,0.0,0.0,0.0,0.0,0.0,0.0,0.0,0.0,0.0,0.0,0.0,0.0,-2.0615,-2.1129,-2.1238,-2.1292,-2.0793,-1.9731,0.0,0.0,0.0,0.0,0.0,0.0,0.0,0.0,0.0,0.0,0.0,0.0,0.0,0.0,0.0,0.0,0.0,0.0,0.0,0.0,0.0,0.0,0.0,0.0,0.0,0.0,0.0,0.0,0.0,0.0,0.0,0.0,0.0,0.0,0.0,0.0,0.0,0.0,0.0,0.0,0.0,0.0,0.0,0.0,0.0,0.0,0.0,0.0,0.0,0.0,0.0,0.0,0.0,0.0,0.0,0.0,0.0,0.0,0.0,0.0,0.0,0.0,0.0,0.0,0.0,0.0,0.0,0.0,0.0,0.0,0.0,0.0,0.0,0.0,0.0,0.0,0.0,0.0,0.0,0.0,0.0,0.0,0.0,0.0,0.0,0.0,0.0,0.0,0.0,0.0,0.0,0.0,0.0,0.0,0.0,0.0,0.0,0.0,0.0,0.0,0.0,0.0,0.0,0.0,0.0,0.0,0.0,0.0,-1.963,-2.0537,-2.1034,-2.1111,-2.111,-2.0342,0.0,0.0,0.0,0.0,0.0,0.0,0.0,0.0,0.0,0.0,0.0,0.0,0.0,0.0,0.0,0.0,0.0,0.0,0.0,0.0,0.0,0.0,0.0,0.0,0.0,0.0,0.0,0.0,0.0,0.0,0.0,0.0,0.0,0.0,0.0,0.0,0.0,0.0,0.0,0.0,0.0,0.0,0.0,0.0,0.0,0.0,0.0,0.0,0.0,0.0,0.0,0.0,0.0,0.0,0.0,0.0,0.0,0.0,0.0,0.0,0.0,0.0,0.0,0.0,0.0,0.0,0.0,0.0,0.0,0.0,0.0,0.0,0.0,0.0,0.0,0.0,0.0,0.0,0.0,0.0,0.0,0.0,0.0,0.0,0.0,0.0,0.0,0.0,0.0,0.0,0.0,0.0,0.0,0.0,0.0,0.0,0.0,0.0,0.0,0.0,0.0,0.0,0.0,0.0,0.0,0.0,0.0,0.0,0.0,-1.965,-2.055,-2.1085,-2.1079,-2.108,-2.0282,0.0,0.0,0.0,0.0,0.0,0.0,0.0,0.0,0.0,0.0,0.0,0.0,0.0,0.0,0.0,0.0,0.0,0.0,0.0,0.0,0.0,0.0,0.0,0.0,0.0,0.0,0.0,0.0,0.0,0.0,0.0,0.0,0.0,0.0,0.0,0.0,0.0,0.0,0.0,0.0,0.0,0.0,0.0,0.0,0.0,0.0,0.0,0.0,0.0,0.0,0.0,0.0,0.0,0.0,0.0,0.0,0.0,0.0,0.0,0.0,0.0,0.0,0.0,0.0,0.0,0.0,0.0,0.0,0.0,0.0,0.0,0.0,0.0,0.0,0.0,0.0,0.0,0.0,0.0,0.0,0.0,0.0,0.0,0.0,0.0,0.0,0.0,0.0,0.0,0.0,0.0,0.0,0.0,0.0,0.0,0.0,0.0,0.0,0.0,0.0,0.0,0.0,0.0,0.0,0.0,0.0,0.0,0.0,0.0,-2.0359,-2.1086,-2.1455,-2.1487,-2.1223,-2.0139,0.0,0.0,0.0,0.0,0.0,0.0,0.0,0.0,0.0,0.0,0.0,0.0,0.0,0.0,0.0,0.0,0.0,0.0,0.0,0.0,0.0,0.0,0.0,0.0,0.0,0.0,0.0,0.0,0.0,0.0,0.0,0.0,0.0,0.0,0.0,0.0,0.0,0.0,0.0,0.0,0.0,0.0,0.0,0.0,0.0,0.0,0.0,0.0,0.0,0.0,0.0,0.0,0.0,0.0,0.0,0.0,0.0,0.0,0.0,0.0,0.0,0.0,0.0,0.0,0.0,0.0,0.0,0.0,0.0,0.0,0.0,0.0,0.0,0.0,0.0,0.0,0.0,0.0,0.0,0.0,0.0,0.0,0.0,0.0,0.0,0.0,0.0,0.0,0.0,0.0,0.0,0.0,0.0,0.0,0.0,0.0,0.0,0.0,0.0,0.0,0.0,0.0,0.0,0.0,0.0,0.0,0.0,0.0,-2.0191,-2.1852,-2.2099,-2.2159,-2.2258,-2.1442,-1.9851,0.0,0.0,0.0,0.0,0.0,0.0,0.0,0.0,0.0,0.0,0.0,0.0,0.0,0.0,0.0,0.0,0.0,0.0,0.0,0.0,0.0,0.0,0.0,0.0,0.0,0.0,0.0,0.0,0.0,0.0,0.0,0.0,0.0,0.0,0.0,0.0,0.0,0.0,0.0,0.0,0.0,0.0,0.0,0.0,0.0,0.0,0.0,0.0,0.0,0.0,0.0,0.0,0.0,0.0,0.0,0.0,0.0,0.0,0.0,0.0,0.0,0.0,0.0,0.0,0.0,0.0,0.0,0.0,0.0,0.0,0.0,0.0,0.0,0.0,0.0,0.0,0.0,0.0,0.0,0.0,0.0,0.0,0.0,0.0,0.0,0.0,0.0,0.0,0.0,0.0,0.0,0.0,0.0,0.0,0.0,0.0,0.0,0.0,0.0,0.0,0.0,0.0,0.0,0.0,0.0,0.0,0.0,0.0,0.0,-2.1191,-2.1794,-2.217,-2.2201,-2.1432,-2.0075,0.0,0.0,0.0,0.0,0.0,0.0,0.0,0.0,0.0,0.0,0.0,0.0,0.0,0.0,0.0,0.0,0.0,0.0,0.0,0.0,0.0,0.0,0.0,0.0,0.0,0.0,0.0,0.0,0.0,0.0,0.0,0.0,0.0,0.0,0.0,0.0,0.0,0.0,0.0,0.0,0.0,0.0,0.0,0.0,0.0,0.0,0.0,0.0,0.0,0.0,0.0,0.0,0.0,0.0,0.0,0.0,0.0,0.0,0.0,0.0,0.0,0.0,0.0,0.0,0.0,0.0,0.0,0.0,0.0,0.0,0.0,0.0,0.0,0.0,0.0,0.0,0.0,0.0,0.0,0.0,0.0,0.0,0.0,0.0,0.0,0.0,0.0,0.0,0.0,0.0,0.0,0.0,0.0,0.0,0.0,0.0,0.0,0.0,0.0,0.0,0.0,0.0,0.0,0.0,0.0,0.0,0.0,0.0,0.0,-2.2163,-2.2672,-2.3014,-2.312,-2.2042,-2.0479,-1.8503,0.0,0.0,0.0,0.0,0.0,0.0,0.0,0.0,0.0,0.0,0.0,0.0,0.0,0.0,0.0,0.0,0.0,0.0,0.0,0.0,0.0,0.0,0.0,0.0,0.0,0.0,0.0,0.0,0.0,0.0,0.0,0.0,0.0,0.0,0.0,0.0,0.0,0.0,0.0,0.0,0.0,0.0,0.0,0.0,0.0,0.0,0.0,0.0,0.0,0.0,0.0,0.0,0.0,0.0,0.0,0.0,0.0,0.0,0.0,0.0,0.0,0.0,0.0,0.0,0.0,0.0,0.0,0.0,0.0,0.0,0.0,0.0,0.0,0.0,0.0,0.0,0.0,0.0,0.0,0.0,0.0,0.0,0.0,0.0,0.0,0.0,0.0,0.0,0.0,0.0,0.0,0.0,0.0,0.0,0.0,0.0,0.0,0.0,0.0,0.0,0.0,0.0,0.0,0.0,0.0,0.0,0.0,0.0,-2.4513,-2.452,-2.4607,-2.4712,-2.3113,-2.1101,0.0,0.0,0.0,0.0,0.0,0.0,0.0,0.0,0.0,0.0,0.0,0.0,0.0,0.0,0.0,0.0,0.0,0.0,0.0,0.0,0.0,0.0,0.0,0.0,0.0,0.0,0.0,0.0,0.0,0.0,0.0,0.0,0.0,0.0,0.0,0.0,0.0,0.0,0.0,0.0,0.0,0.0,0.0,0.0,0.0,0.0,0.0,0.0,0.0,0.0,0.0,0.0,0.0,0.0,0.0,0.0,0.0,0.0,0.0,0.0,0.0,0.0,0.0,0.0,0.0,0.0,0.0,0.0,0.0,0.0,0.0,0.0,0.0,0.0,0.0,0.0,0.0,0.0,0.0,0.0,0.0,0.0,0.0,0.0,0.0,0.0,0.0,0.0,0.0,0.0,0.0,0.0,0.0,0.0,0.0,0.0,0.0,0.0,0.0,0.0,0.0,0.0,0.0,0.0,0.0,0.0,0.0,0.0,0.0,-2.6001,-2.6143,-2.5968,-2.5498,-2.3902,-2.2126,0.0,0.0,0.0,0.0,0.0,0.0,0.0,0.0,0.0,0.0,0.0,0.0,0.0,0.0,0.0,0.0,0.0,0.0,0.0,0.0,0.0,0.0,0.0,0.0,0.0,0.0,0.0,0.0,0.0,0.0,0.0,0.0,0.0,0.0,0.0,0.0,0.0,0.0,0.0,0.0,0.0,0.0,0.0,0.0,0.0,0.0,0.0,0.0,0.0,0.0,0.0,0.0,0.0,0.0,0.0,0.0,0.0,0.0,0.0,0.0,0.0,0.0,0.0,0.0,0.0,0.0,0.0,0.0,0.0,0.0,0.0,0.0,0.0,0.0,0.0,0.0,0.0,0.0,0.0,0.0,0.0,0.0,0.0,0.0,0.0,0.0,0.0,0.0,0.0,0.0,0.0,0.0,0.0,0.0,0.0,0.0,0.0,0.0,0.0,0.0,0.0,0.0,0.0,0.0,0.0,0.0,0.0,0.0,-2.4997,-2.7117,-2.7579,-2.7468,-2.6692,-2.4726,-2.2743,0.0,0.0,0.0,0.0,0.0,0.0,0.0,0.0,0.0,0.0,0.0,0.0,0.0,0.0,0.0,0.0,0.0,0.0,0.0,0.0,0.0,0.0,0.0,0.0,0.0,0.0,0.0,0.0,0.0,0.0,0.0,0.0,0.0,0.0,0.0,0.0,0.0,0.0,0.0,0.0,0.0,0.0,0.0,0.0,0.0,0.0,0.0,0.0,0.0,0.0,0.0,0.0,0.0,0.0,0.0,0.0,0.0,0.0,0.0,0.0,0.0,0.0,0.0,0.0,0.0,0.0,0.0,0.0,0.0,0.0,0.0,0.0,0.0,0.0,0.0,0.0,0.0,0.0,0.0,0.0,0.0,0.0,0.0,0.0,0.0,0.0,0.0,0.0,0.0,0.0,0.0,0.0,0.0,0.0,0.0,0.0,0.0,0.0,0.0,0.0,0.0,0.0,0.0,0.0,0.0,0.0,0.0,0.0,-2.604,-2.7706,-2.8655,-2.871,-2.7833,-2.5554,-2.3262,0.0,0.0,0.0,0.0,0.0,0.0,0.0,0.0,0.0,0.0,0.0,0.0,0.0,0.0,0.0,0.0,0.0,0.0,0.0,0.0,0.0,0.0,0.0,0.0,0.0,0.0,0.0,0.0,0.0,0.0,0.0,0.0,0.0,0.0,0.0,0.0,0.0,0.0,0.0,0.0,0.0,0.0,0.0,0.0,0.0,0.0,0.0,0.0,0.0,0.0,0.0,0.0,0.0,0.0,0.0,0.0,0.0,0.0,0.0,0.0,0.0,0.0,0.0,0.0,0.0,0.0,0.0,0.0,0.0,0.0,0.0,0.0,0.0,0.0,0.0,0.0,0.0,0.0,0.0,0.0,0.0,0.0,0.0,0.0,0.0,0.0,0.0,0.0,0.0,0.0,0.0,0.0,0.0,0.0,0.0,0.0,0.0,0.0,0.0,0.0,0.0,0.0,0.0,0.0,0.0,0.0,0.0,0.0,-2.5725,-2.7357,-2.8264,-2.8337,-2.7513,-2.596,-2.4348,0.0,0.0,0.0,0.0,0.0,0.0,0.0,0.0,0.0,0.0,0.0,0.0,0.0,0.0,0.0,0.0,0.0,0.0,0.0,0.0,0.0,0.0,0.0,0.0,0.0,0.0,0.0,0.0,0.0,0.0,0.0,0.0,0.0,0.0,0.0,0.0,0.0,0.0,0.0,0.0,0.0,0.0,0.0,0.0,0.0,0.0,0.0,0.0,-1.6146,0.0,0.0,0.0,0.0,0.0,0.0,0.0,0.0,0.0,0.0,0.0,0.0,0.0,0.0,0.0,0.0,0.0,0.0,0.0,0.0,0.0,0.0,0.0,0.0,0.0,0.0,0.0,0.0,0.0,0.0,0.0,0.0,0.0,0.0,0.0,0.0,0.0,0.0,0.0,0.0,0.0,0.0,0.0,0.0,0.0,0.0,0.0,0.0,0.0,0.0,0.0,0.0,0.0,0.0,0.0,0.0,0.0,0.0,0.0,-2.6673,-2.8288,-2.8874,-2.8918,-2.8358,-2.6964,-2.5164,0.0,0.0,0.0,0.0,0.0,0.0,0.0,0.0,0.0,0.0,0.0,0.0,0.0,0.0,0.0,0.0,0.0,0.0,0.0,0.0,0.0,0.0,0.0,0.0,0.0,0.0,0.0,0.0,0.0,0.0,0.0,0.0,0.0,0.0,0.0,0.0,0.0,0.0,0.0,0.0,0.0,0.0,0.0,0.0,0.0,0.0,0.0,0.0,0.0,0.0,0.0,0.0,0.0,0.0,0.0,0.0,0.0,0.0,0.0,0.0,0.0,0.0,0.0,0.0,0.0,0.0,0.0,0.0,0.0,0.0,0.0,0.0,0.0,0.0,0.0,0.0,0.0,0.0,0.0,0.0,0.0,0.0,0.0,0.0,0.0,0.0,0.0,0.0,0.0,0.0,0.0,0.0,0.0,0.0,0.0,0.0,0.0,0.0,0.0,0.0,0.0,0.0,0.0,0.0,0.0,0.0,0.0,-2.5901,-2.7808,-2.938,-2.9742,-2.9742,-2.9438,-2.7879,-2.5667,-2.2771,0.0,0.0,0.0,0.0,0.0,0.0,0.0,0.0,0.0,0.0,0.0,0.0,0.0,0.0,0.0,0.0,0.0,0.0,0.0,0.0,0.0,0.0,0.0,0.0,0.0,0.0,0.0,0.0,0.0,0.0,0.0,0.0,0.0,0.0,0.0,0.0,0.0,0.0,-1.4756,-1.6129,0.0,0.0,0.0,0.0,0.0,0.0,0.0,0.0,-1.798,0.0,0.0,0.0,0.0,0.0,0.0,0.0,0.0,0.0,0.0,0.0,0.0,0.0,0.0,0.0,0.0,0.0,0.0,0.0,0.0,0.0,0.0,0.0,0.0,0.0,0.0,0.0,0.0,0.0,0.0,0.0,0.0,0.0,0.0,0.0,0.0,0.0,0.0,0.0,0.0,0.0,0.0,0.0,0.0,0.0,0.0,0.0,0.0,0.0,0.0,0.0,0.0,0.0,0.0,0.0,0.0,-2.3416,-2.5587,-2.7508,-2.9197,-2.9891,-2.9896,-2.9142,-2.7618,-2.5623,-2.3183,0.0,0.0,0.0,0.0,0.0,0.0,0.0,0.0,0.0,0.0,0.0,0.0,0.0,0.0,0.0,0.0,0.0,0.0,0.0,0.0,0.0,0.0,0.0,0.0,0.0,0.0,0.0,0.0,0.0,0.0,0.0,0.0,0.0,0.0,0.0,0.0,0.0,0.0,0.0,-1.7858,-1.8464,0.0,0.0,0.0,0.0,0.0,0.0,0.0,0.0,-1.7878,0.0,0.0,0.0,0.0,0.0,0.0,0.0,0.0,0.0,0.0,0.0,0.0,0.0,0.0,0.0,0.0,0.0,0.0,0.0,0.0,0.0,0.0,0.0,0.0,0.0,0.0,0.0,0.0,0.0,0.0,0.0,0.0,0.0,0.0,0.0,0.0,0.0,0.0,0.0,0.0,0.0,0.0,0.0,0.0,0.0,0.0,0.0,0.0,0.0,0.0,0.0,0.0,0.0,0.0,0.0,-2.3223,-2.6239,-2.8373,-2.9578,-3.0468,-3.0506,-2.9618,-2.8012,-2.5862,0.0,0.0,0.0,0.0,0.0,0.0,0.0,0.0,0.0,0.0,0.0,0.0,0.0,0.0,0.0,0.0,0.0,0.0,0.0,0.0,0.0,0.0,0.0,0.0,0.0,0.0,0.0,0.0,0.0,0.0,0.0,0.0,0.0,0.0,0.0,0.0,0.0,0.0,0.0,0.0,-1.846,-1.8964,-1.9803,0.0,0.0,0.0,0.0,0.0,0.0,-1.8874,-1.7981,0.0,0.0,0.0,0.0,0.0,0.0,0.0,0.0,0.0,0.0,0.0,0.0,0.0,0.0,0.0,0.0,0.0,0.0,0.0,0.0,0.0,0.0,0.0,0.0,0.0,0.0,0.0,0.0,0.0,0.0,0.0,0.0,0.0,0.0,0.0,0.0,0.0,0.0,0.0,0.0,0.0,0.0,0.0,0.0,0.0,0.0,0.0,0.0,0.0,0.0,0.0,0.0,0.0,0.0,0.0,-2.3075,-2.6882,-2.9215,-2.9972,-3.1081,-3.1133,-3.0075,-2.8419,-2.6117,0.0,0.0,0.0,0.0,0.0,0.0,0.0,0.0,0.0,0.0,0.0,0.0,0.0,0.0,0.0,0.0,0.0,0.0,0.0,0.0,0.0,0.0,0.0,0.0,0.0,0.0,0.0,0.0,0.0,0.0,0.0,0.0,0.0,0.0,0.0,0.0,0.0,0.0,0.0,0.0,0.0,-1.9308,-2.0699,-1.9844,0.0,0.0,0.0,0.0,-2.0671,-1.9548,0.0,0.0,0.0,0.0,0.0,0.0,0.0,0.0,0.0,0.0,0.0,0.0,0.0,0.0,0.0,0.0,0.0,0.0,0.0,0.0,0.0,0.0,0.0,0.0,0.0,0.0,0.0,0.0,0.0,0.0,0.0,0.0,0.0,0.0,0.0,0.0,0.0,0.0,0.0,0.0,0.0,0.0,0.0,0.0,0.0,0.0,0.0,0.0,0.0,0.0,0.0,0.0,0.0,0.0,0.0,0.0,-2.2954,-2.6754,-2.9075,-2.9843,-3.1443,-3.1512,-2.9878,-2.8326,-2.6074,0.0,0.0,0.0,0.0,0.0,0.0,0.0,0.0,0.0,0.0,0.0,0.0,0.0,0.0,0.0,0.0,0.0,0.0,0.0,0.0,0.0,0.0,0.0,0.0,0.0,0.0,0.0,0.0,0.0,0.0,0.0,0.0,0.0,0.0,0.0,0.0,0.0,0.0,0.0,0.0,0.0,-1.9739,-2.0463,-2.0544,-2.0271,0.0,0.0,-2.0205,-2.0368,-1.999,0.0,0.0,0.0,0.0,0.0,0.0,0.0,0.0,0.0,0.0,0.0,0.0,0.0,0.0,0.0,0.0,0.0,0.0,0.0,0.0,0.0,0.0,0.0,0.0,0.0,0.0,0.0,0.0,0.0,0.0,0.0,0.0,0.0,0.0,0.0,0.0,0.0,0.0,0.0,0.0,0.0,0.0,0.0,0.0,0.0,0.0,0.0,0.0,0.0,0.0,0.0,0.0,0.0,0.0,0.0,-2.1231,-2.2767,-2.7469,-2.988,-2.9813,-3.1393,-3.1515,-2.9894,-2.8185,-2.5873,0.0,0.0,0.0,0.0,0.0,0.0,0.0,0.0,0.0,0.0,0.0,0.0,0.0,0.0,0.0,0.0,0.0,0.0,0.0,0.0,0.0,0.0,0.0,0.0,0.0,0.0,0.0,0.0,0.0,0.0,0.0,0.0,0.0,0.0,0.0,0.0,0.0,0.0,0.0,0.0,0.0,0.0,-2.151,-2.1673,0.0,0.0,0.0,-2.1486,-2.1455,0.0,0.0,0.0,0.0,0.0,0.0,0.0,0.0,0.0,0.0,0.0,0.0,0.0,0.0,0.0,0.0,0.0,0.0,0.0,0.0,0.0,0.0,0.0,0.0,0.0,0.0,0.0,0.0,0.0,0.0,0.0,0.0,0.0,0.0,0.0,0.0,0.0,0.0,0.0,0.0,0.0,0.0,0.0,0.0,0.0,0.0,0.0,0.0,0.0,0.0,0.0,0.0,0.0,0.0,0.0,0.0,0.0,-2.2572,-2.781,-3.0248,-2.9695,-3.1255,-3.1376,-2.9826,-2.8263,0.0,0.0,0.0,0.0,0.0,0.0,0.0,0.0,0.0,0.0,0.0,0.0,0.0,0.0,0.0,0.0,0.0,0.0,0.0,0.0,0.0,0.0,0.0,0.0,0.0,0.0,0.0,-1.1933,0.0,0.0,0.0,0.0,0.0,0.0,0.0,0.0,0.0,0.0,0.0,0.0,0.0,0.0,-2.0681,-2.2118,-2.2407,-2.2594,0.0,0.0,-2.2418,-2.2419,-2.1663,-2.0423,0.0,0.0,0.0,0.0,0.0,0.0,0.0,0.0,0.0,0.0,0.0,0.0,0.0,0.0,0.0,0.0,0.0,0.0,0.0,0.0,0.0,0.0,0.0,0.0,0.0,0.0,0.0,0.0,0.0,0.0,0.0,0.0,0.0,0.0,0.0,0.0,0.0,0.0,0.0,0.0,0.0,0.0,0.0,0.0,0.0,0.0,0.0,0.0,0.0,0.0,0.0,0.0,0.0,0.0,-2.1079,-2.2607,-2.7182,-2.9558,-2.9471,-3.1043,-3.1166,-2.9558,-2.8746,-2.6507,0.0,0.0,0.0,0.0,0.0,0.0,0.0,0.0,0.0,0.0,0.0,0.0,0.0,0.0,0.0,0.0,0.0,0.0,0.0,0.0,0.0,0.0,0.0,0.0,0.0,0.0,0.0,0.0,0.0,0.0,0.0,0.0,0.0,0.0,0.0,0.0,0.0,0.0,0.0,0.0,0.0,-2.0589,-2.1475,-2.2321,-2.2837,0.0,-2.2757,-2.2783,-2.2767,-2.2642,-2.1744,-1.9473,0.0,0.0,0.0,0.0,0.0,0.0,0.0,0.0,0.0,0.0,0.0,0.0,0.0,0.0,0.0,0.0,0.0,0.0,0.0,0.0,0.0,0.0,0.0,0.0,0.0,0.0,0.0,0.0,0.0,0.0,0.0,0.0,0.0,0.0,0.0,0.0,0.0,0.0,0.0,0.0,0.0,0.0,0.0,0.0,0.0,0.0,0.0,0.0,0.0,0.0,0.0,0.0,0.0,-2.1434,-2.2555,-2.7531,-2.9902,-2.9541,-3.1025,-3.1095,-2.9592,-2.8647,-2.6642,0.0,0.0,0.0,0.0,0.0,0.0,0.0,0.0,0.0,0.0,0.0,0.0,0.0,0.0,0.0,0.0,0.0,0.0,0.0,0.0,0.0,0.0,0.0,0.0,0.0,0.0,0.0,0.0,-1.687,-1.7127,-1.6158,0.0,0.0,0.0,0.0,0.0,0.0,0.0,0.0,0.0,0.0,-2.1568,-2.2964,-2.3683,0.0,0.0,-2.3873,-2.3676,-2.2699,-2.2399,-2.1575,-1.9545,-1.851,0.0,0.0,0.0,0.0,0.0,0.0,0.0,0.0,0.0,0.0,0.0,0.0,0.0,0.0,0.0,0.0,0.0,0.0,0.0,0.0,0.0,0.0,0.0,0.0,0.0,0.0,0.0,0.0,0.0,0.0,0.0,0.0,0.0,0.0,0.0,0.0,0.0,0.0,0.0,0.0,0.0,0.0,0.0,0.0,0.0,0.0,0.0,0.0,0.0,0.0,0.0,0.0,-2.1911,-2.3122,-2.798,-3.0244,-2.9781,-3.1038,-3.1144,-2.992,-2.8956,-2.7089,0.0,0.0,0.0,0.0,0.0,0.0,0.0,0.0,0.0,0.0,0.0,0.0,0.0,0.0,0.0,0.0,0.0,0.0,0.0,0.0,0.0,0.0,0.0,0.0,0.0,0.0,0.0,0.0,-1.782,-1.7572,-1.6307,0.0,0.0,0.0,0.0,0.0,0.0,0.0,0.0,0.0,0.0,-2.2454,-2.3827,-2.441,-2.465,-2.4544,-2.4589,-2.4251,-2.32,-2.2635,-2.1793,-2.0303,0.0,0.0,0.0,0.0,0.0,0.0,0.0,0.0,0.0,0.0,0.0,0.0,0.0,0.0,0.0,0.0,0.0,0.0,0.0,0.0,0.0,0.0,0.0,0.0,0.0,0.0,0.0,-1.5627,0.0,0.0,-1.4436,0.0,0.0,0.0,0.0,0.0,0.0,0.0,0.0,0.0,0.0,0.0,0.0,0.0,0.0,0.0,0.0,0.0,0.0,0.0,0.0,0.0,0.0,-2.234,-2.4455,-2.8356,-3.0388,-3.039,-3.1201,-3.1256,-3.0466,-2.9816,-2.7992,-2.4861,0.0,0.0,0.0,0.0,0.0,0.0,0.0,0.0,0.0,0.0,0.0,0.0,0.0,0.0,0.0,0.0,0.0,0.0,0.0,0.0,0.0,0.0,0.0,0.0,0.0,0.0,-1.6448,-1.6464,-1.6204,0.0,0.0,0.0,0.0,0.0,0.0,0.0,0.0,0.0,-1.9822,-2.1757,-2.3226,-2.3622,-2.4149,-2.4651,-2.4953,-2.4605,-2.4323,-2.44,-2.36,-2.2738,0.0,0.0,0.0,0.0,0.0,0.0,0.0,0.0,0.0,0.0,0.0,0.0,0.0,0.0,0.0,0.0,0.0,0.0,0.0,0.0,0.0,0.0,0.0,0.0,0.0,0.0,0.0,-1.8216,-1.7693,0.0,0.0,0.0,0.0,0.0,0.0,0.0,0.0,0.0,0.0,0.0,-2.3105,-2.3138,0.0,0.0,0.0,0.0,0.0,0.0,0.0,0.0,0.0,0.0,0.0,0.0,-2.275,-2.4575,-2.8286,-3.0316,-3.0405,-3.1143,-3.1216,-3.0517,-3.0225,-2.8408,-2.4855,0.0,0.0,0.0,0.0,0.0,0.0,0.0,0.0,0.0,0.0,0.0,0.0,0.0,0.0,0.0,0.0,0.0,0.0,0.0,0.0,0.0,0.0,0.0,0.0,0.0,-1.7059,0.0,0.0,0.0,0.0,0.0,0.0,0.0,0.0,0.0,0.0,-1.918,-2.0967,-2.2441,-2.3698,-2.4668,-2.5191,-2.5268,-2.5409,0.0,0.0,0.0,0.0,0.0,0.0,0.0,0.0,0.0,0.0,0.0,0.0,0.0,0.0,-1.8348,-1.7075,-1.6713,-1.656,-1.6389,0.0,0.0,0.0,0.0,0.0,0.0,0.0,0.0,0.0,0.0,0.0,0.0,0.0,0.0,-2.0364,0.0,-1.9135,0.0,0.0,0.0,0.0,0.0,0.0,0.0,0.0,-2.3664,-2.488,-2.5313,-2.558,-2.583,0.0,-2.5079,-2.2944,0.0,0.0,0.0,0.0,0.0,0.0,0.0,0.0,-2.3841,-2.5628,-2.8859,-3.0578,-3.0685,-3.1185,-3.1206,-3.0785,-3.0289,-2.887,-2.6326,-2.4135,-2.1985,0.0,0.0,0.0,0.0,0.0,0.0,0.0,0.0,0.0,0.0,0.0,0.0,0.0,0.0,0.0,0.0,0.0,0.0,0.0,0.0,0.0,0.0,0.0,-1.8329,0.0,0.0,0.0,0.0,0.0,0.0,0.0,0.0,0.0,-1.9661,-2.1215,-2.2996,-2.4809,-2.5287,-2.5751,-2.639,0.0,0.0,0.0,0.0,0.0,0.0,0.0,-2.3197,-2.2787,-2.2327,-2.2063,-2.2224,-2.1667,-2.1426,-2.2144,0.0,0.0,-1.9216,-1.8865,-1.8889,-1.8685,-1.8769,-1.8883,-1.8948,-1.9568,-2.0065,0.0,0.0,0.0,0.0,0.0,0.0,0.0,0.0,-2.2204,-2.2206,0.0,-2.1373,0.0,0.0,0.0,0.0,-1.9786,-2.1902,0.0,0.0,-2.7548,-2.892,-2.7642,-2.8258,-2.8957,-2.9493,-2.6755,-2.5723,-2.6221,-2.3836,0.0,0.0,0.0,0.0,0.0,0.0,-2.5529,-2.7644,-2.9981,-3.1173,-3.1173,-3.1254,-3.1295,-3.1244,-3.0135,-2.9384,-2.9057,-2.5853,-2.3876,-2.3568,-2.0062,0.0,0.0,0.0,0.0,0.0,0.0,0.0,0.0,0.0,0.0,0.0,0.0,0.0,0.0,0.0,0.0,0.0,0.0,0.0,0.0,-1.9504,0.0,0.0,0.0,0.0,0.0,0.0,0.0,0.0,0.0,-2.2115,-2.2109,-2.3302,-2.4895,-2.6773,0.0,0.0,0.0,0.0,-2.6371,-2.6485,-2.6146,-2.5599,-2.4897,-2.4574,-2.4469,-2.4597,0.0,0.0,-2.4792,-2.4154,-2.3884,-2.4671,-2.4627,-2.3827,-2.1346,-2.0946,-2.0722,-2.016,-2.0104,-1.9951,-1.9981,-2.082,-2.1265,-2.4747,0.0,0.0,0.0,0.0,-2.3419,-2.4331,-2.5113,-2.5613,-2.5546,-2.503,-2.4296,0.0,0.0,0.0,0.0,0.0,0.0,-2.5309,-2.6868,-2.868,-2.9809,-3.0398,-3.0613,-3.1094,-3.175,-3.0497,-3.0248,-3.0917,-2.9758,-2.6852,-2.2402,0.0,0.0,0.0,0.0,-2.7026,-2.9248,-3.054,-3.119,-3.119,-3.123,-3.1252,-3.1295,-3.1052,-3.0374,-2.9245,-2.8186,-2.6614,-2.4407,-2.2269,0.0,0.0,0.0,0.0,0.0,0.0,0.0,0.0,0.0,0.0,0.0,0.0,0.0,0.0,0.0,0.0,0.0,0.0,0.0,-1.8562,-2.0384,-2.0696,0.0,0.0,0.0,0.0,0.0,0.0,0.0,0.0,0.0,-2.6388,-2.6458,-2.6841,0.0,0.0,-2.8372,-2.8169,-2.7797,-2.7646,-2.779,-2.6608,0.0,-2.6169,-2.5676,-2.5284,-2.5307,-2.5423,-2.5484,-2.5392,-2.525,-2.5243,-2.55,-2.54,-2.5038,-2.4433,-2.4208,-2.4125,-2.4056,-2.4055,-2.4076,-2.4193,-2.4403,-2.4479,-2.7498,-2.5962,-2.5157,-2.4762,-2.4713,-2.5539,-2.637,-2.7156,-2.7605,-2.7539,-2.7125,-2.6605,-2.574,-2.4597,-2.3803,0.0,0.0,0.0,-2.704,-2.8426,-2.94,-3.0158,-3.0721,-3.1019,-3.1532,-3.2199,-3.1601,-3.1827,-3.2807,-3.1777,-2.9663,-2.6419,0.0,-2.5409,-2.6509,-2.7317,-2.8446,-2.9883,-3.0701,-3.1151,-3.119,-3.119,-3.123,-3.1254,-3.1351,-3.0963,-3.0078,-2.95,-2.8339,-2.6483,-2.4303,-2.2252,0.0,0.0,0.0,0.0,0.0,0.0,0.0,0.0,0.0,0.0,0.0,-1.4308,-1.4901,0.0,0.0,0.0,-1.9131,-1.9999,-2.0775,-2.2089,0.0,0.0,0.0,0.0,0.0,0.0,0.0,-2.3597,-2.5547,-2.7366,-2.8669,-2.8483,-2.8448,-2.9138,-2.9116,-2.9028,-2.8925,0.0,-2.8155,-2.8207,-2.7122,-2.6365,-2.6523,-2.6424,-2.632,-2.6378,-2.6465,-2.6489,-2.6402,-2.6465,-2.6513,-2.6576,-2.6489,-2.6417,-2.6465,-2.6441,-2.6207,-2.5828,-2.5723,-2.5746,-2.5831,-2.5886,-2.5924,-2.9744,-2.8992,-2.7153,-2.6757,-2.7328,-2.7302,-2.7734,-2.8472,-2.8522,-2.8522,-2.8472,-2.8339,-2.7943,-2.7294,-2.6515,0.0,-2.7295,-2.7958,-2.8359,-2.8605,-2.9959,-3.0224,-2.9628,-3.0274,-3.0969,-3.1664,-3.0986,-3.1404,-3.268,-3.1434,-3.1132,-3.1775,-3.0572,-2.953,-2.8807,-2.937,-2.9819,-3.0065,-3.0683,-3.1072,-3.119,-3.1171,-3.1188,-3.119,-3.1215,-3.1218,-3.1203,-2.9988,-2.9293,-2.914,-2.6253,-2.4209,-2.3295,0.0,0.0,0.0,0.0,0.0,0.0,0.0,0.0,0.0,0.0,0.0,0.0,0.0,0.0,0.0,-2.3149,0.0,-2.423,-2.4313,0.0,0.0,0.0,-2.3674,-2.4407,-2.5178,-2.5916,-2.657,0.0,0.0,-2.9509,-2.9626,-2.981,-3.0489,-2.9468,-2.893,-2.9639,-2.8975,-2.8272,-2.829,-2.784,-2.7342,-2.688,-2.7198,-2.7582,-2.7619,-2.7675,-2.7615,-2.7525,-2.7525,-2.762,-2.769,-2.7675,-2.758,-2.775,-2.7585,-2.7225,-2.6033,-2.5824,-2.5809,-2.5893,-2.5978,-2.6064,-2.9533,-2.974,-2.9059,-2.8396,-2.7909,-2.851,-2.8913,-2.9147,-2.9696,-2.963,-2.9078,-2.896,-2.8493,-2.7859,-2.8194,-2.844,-2.8657,-2.9374,-2.9739,-2.9831,-3.0808,-3.1181,-3.1016,-3.1229,-3.1735,-3.2398,-3.2249,-3.263,-3.3508,-3.3733,-3.3869,-3.3914,-3.3096,-3.2315,-3.1674,-3.0763,-3.0908,-3.2145,-3.1336,-3.1012,-3.119,-3.0935,-3.0935,-3.119,-3.0712,-3.0593,-3.0818,-3.054,-3.0087,-2.9515,-2.8457,-2.7056,-2.5235,-2.3139,0.0,0.0,0.0,0.0,0.0,0.0,0.0,0.0,0.0,-1.7117,-1.7498,0.0,-2.0809,0.0,-2.434,-2.5816,-2.5245,-2.6185,0.0,0.0,-2.5799,-2.5765,-2.5967,-2.716,-2.7981,-2.8033,-2.9206,-3.0122,-3.0269,-3.0742,-3.1092,-3.1171,-3.0455,-3.0167,-3.0761,-3.0092,-2.965,-2.9927,-2.9446,-2.9029,-2.8782,-2.8943,-2.888,-2.8427,-2.8353,-2.8188,-2.769,-2.7585,-2.7625,-2.765,-2.7625,-2.7625,-2.768,-2.7625,-2.7525,-2.721,-2.7136,-2.7136,-2.7121,-2.7145,-2.7145,-3.0695,-3.0432,-3.0592,-2.9955,-2.8881,-2.9272,-2.9414,-2.9463,-2.9713,-2.9664,-2.943,-2.9205,-2.8936,-2.8697,-2.8904,-2.9119,-2.9345,-2.9729,-2.9995,-3.0222,-3.0701,-3.092,-3.0942,-3.1298,-3.1704,-3.2205,-3.2811,-3.3346,-3.3806,-3.4535,-3.4859,-3.4787,-3.4391,-3.3978,-3.3538,-3.177,-3.117,-3.1774,-3.1129,-3.0892,-3.1052,-3.0773,-3.0733,-3.0935,-3.038,-3.0172,-3.0464,-3.0447,-3.027,-2.9914,-2.9396,-2.8422,-2.6869,-2.4819,-2.2785,0.0,0.0,0.0,0.0,0.0,0.0,0.0,0.0,0.0,0.0,0.0,-2.352,-2.4362,-2.6353,-2.7395,-2.6958,-2.7663,-2.81,-2.8034,-2.7999,-2.8117,-2.8469,-2.9303,-2.9905,-3.0059,-3.0794,-3.1345,-3.147,-3.1704,-3.1796,-3.157,-3.116,-3.1018,-3.1244,-3.0776,-3.0354,-3.0459,-2.9978,-2.9621,-2.9621,-2.9621,-2.9487,-2.9116,-2.9041,-2.8933,-2.8558,-2.8498,-2.8498,-2.8483,-2.8483,-2.8483,-2.8468,-2.8229,-2.8064,-2.8019,-2.7794,-2.7615,-2.7585,-2.7585,-2.7585,-3.2241,-3.1218,-3.1707,-3.1175,-3.0022,-2.9817,-2.9704,-2.9633,-2.9341,-2.9387,-2.9611,-2.9341,-2.9341,-2.9515,-2.9182,-2.925,-2.9617,-2.9582,-2.9776,-3.0146,-3.0141,-3.0103,-3.0136,-3.086,-3.1264,-3.138,-3.2866,-3.3634,-3.3713,-3.4511,-3.4899,-3.4859,-3.4776,-3.4655,-3.4453,-3.2485,-3.1123,-3.0545,-3.0618,-3.0733,-3.0871,-3.0589,-3.0506,-3.063,-3.0049,-2.9832,-3.0124,-3.0011,-3.0038,-3.0192,-2.9696,-2.9103,-2.8405,-2.6154,-2.4505,0.0,-2.1924,0.0,0.0,0.0,0.0,0.0,0.0,0.0,0.0,-2.5063,-2.6302,-2.7762,-2.8622,-2.911,-2.9154,-2.9238,-2.9595,-3.0241,-3.0345,-3.0614,-3.1217,-3.1398,-3.1614,-3.2043,-3.1962,-3.2077,-3.243,-3.2423,-3.2171,-3.1791,-3.1741,-3.1707,-3.1568,-3.1156,-3.0732,-3.0357,-3.006,-2.9998,-2.9953,-2.9936,-2.9891,-2.9771,-2.9726,-2.9669,-2.9547,-2.9547,-2.9577,-2.9577,-2.9517,-2.9547,-2.9606,-2.9086,-2.8757,-2.8712,-2.8319,-2.7899,-2.766,-2.7585,-2.7585,-3.2273,-3.2447,-3.1794,-3.1205,-3.0714,-3.0625,-3.0323,-2.993,-2.9864,-2.982,-2.9836,-2.9776,-2.9808,-2.9814,-2.9748,-2.9754,-2.982,-2.9836,-2.9874,-2.9946,-2.9732,-2.9627,-2.9675,-3.0442,-3.0633,-3.0433,-3.2539,-3.3463,-3.3177,-3.4345,-3.4851,-3.4723,-3.4162,-3.3794,-3.3611,0.0,0.0,0.0,-3.0761,-3.0609,-3.0712,-3.0316,-3.0231,-3.0506,-2.9572,0.0,-2.9677,-2.9325,-2.9371,-2.9859,-2.9907,0.0,0.0,0.0,0.0,0.0,0.0,0.0,0.0,0.0,0.0,0.0,-2.6441,-2.6498,-2.5296,-2.6385,-2.7812,-2.933,-3.0123,-3.0873,-3.1573,-3.2165,-3.2549,-3.2705,-3.2722,-3.2748,-3.2782,-3.2782,-3.282,-3.2734,-3.2425,-3.2181,-3.2159,-3.2184,-3.2208,-3.1978,-3.2342,-3.253,-3.2091,-3.1467,-3.1251,-3.1644,-3.13,-3.1135,-3.1137,-3.1077,-3.0851,-3.0522,-3.0328,-3.0148,-2.9786,-2.9666,-2.9636,-2.9666,-2.9621,-2.9651,-2.9624,-2.9475,-2.9412,-2.9412,-2.9292,-2.8888,-2.7839,-2.76,-2.7585,-3.4075,-3.3995,-3.3489,-3.2967,0.0,-3.2447,-3.2087,-3.1426,-3.0131,-2.9476,-2.9289,-2.8928,-2.8873,-2.9052,-2.9052,-2.9152,-2.9335,-2.9884,-3.0235,-3.0409,-3.0635,-3.0751,-3.0767,-3.1523,-3.1782,-3.1646,-3.3185,-3.3899,-3.386,-3.4486,-3.4787,-3.4787,-3.4407,-3.4218,-3.4114,-3.3439,-3.2698,-3.1951,-3.1638,-3.1543,-3.1689,-3.1342,-3.1276,-3.1457,-3.0663,0.0,0.0,0.0,0.0,0.0,0.0,0.0,0.0,-3.0423,0.0,-2.8608,-2.8061,-2.776,-2.7722,-2.8163,-2.8716,-2.9397,-3.0306,-3.0224,-2.8859,-2.9806,-3.0785,-3.155,-3.1931,-3.2248,-3.2714,-3.3022,-3.3198,-3.3198,-3.3198,-3.3156,-3.3064,-3.3091,-3.3193,-3.3283,-3.2991,-3.2825,-3.316,-3.2828,-3.2588,-3.2384,-3.2462,-3.2437,-3.1979,-3.1749,-3.1756,-3.1836,-3.1668,-3.1496,-3.1496,-3.1496,-3.1421,-3.1077,-3.0987,-3.0896,-3.0612,-3.0552,-3.0537,-3.0552,-3.0537,-3.0524,-3.0522,-3.0283,-3.0028,-2.9998,-2.9816,-2.9442,-2.8708,-2.8588,-2.8483,-3.6055,-3.5463,-3.5402,-3.5014,-3.433,-3.4371,-3.3984,-3.3176,-3.0698,0.0,0.0,-2.8639,-2.8572,-2.8881,-2.8865,-2.9019,-2.9344,-3.0235,-3.0828,-3.1108,-3.165,-3.1901,-3.1933,-3.2644,-3.2975,-3.2983,-3.3884,-3.439,-3.4521,-3.4643,-3.4756,-3.4851,-3.4899,-3.4899,-3.4849,-3.4286,-3.3644,-3.2958,-3.2615,-3.2506,-3.2545,-3.2374,-3.2344,-3.2455,-3.186,-3.1542,-3.151,-3.1534,-3.1614,-3.1781,-3.2071,-3.2147,-3.1928,-3.1791,-3.1358,-3.0533,-3.0695,-3.1044,-3.1556,-3.1802,-3.2312,-3.31,-3.3409,-3.3227,-3.2408,-3.2984,-3.3364,-3.3326,-3.3354,-3.3379,-3.3374,-3.3426,-3.3411,-3.3411,-3.3411,-3.3384,-3.3306,-3.3339,-3.3584,-3.3872,-3.362,-3.3567,-3.4047,-3.3391,-3.2819,-3.2559,-3.2228,-3.1953,-3.1655,-3.1809,-3.1864,-3.1611,-3.1524,-3.1496,-3.1496,-3.1496,-3.1496,-3.1451,-3.1466,-3.1496,-3.1496,-3.1496,-3.1496,-3.1391,-3.1496,-3.1451,-3.1451,-3.1017,-3.0702,-3.0687,-3.0283,-2.9939,-2.9924,-2.9924,-2.9669,-3.6876,-3.6382,-3.6222,-3.5846,-3.5307,-3.5377,-3.4978,-3.4165,-3.2367,-3.1573,-3.1524,-3.1429,-3.1389,-3.1469,-3.1453,-3.1477,-3.1524,-3.1724,-3.1819,-3.1826,-3.1606,-3.1478,-3.1526,-3.2253,-3.238,-3.2147,-3.3553,-3.4109,-3.3924,-3.4423,-3.4715,-3.4756,-3.4851,-3.4916,-3.4899,-3.4783,-3.4684,-3.4528,-3.3189,-3.2341,-3.2041,-3.1932,-3.2043,-3.2367,-3.1718,-3.1469,-3.1892,-3.1542,-3.1534,-3.2087,-3.208,-3.224,-3.2707,-3.2724,-3.2646,-3.2595,-3.2568,-3.2591,-3.2669,-3.2613,-3.2951,-3.3795,-3.4559,-3.441,-3.3031,-3.3088,-3.3177,-3.3125,-3.3706,-3.4052,-3.4086,-3.4571,-3.4866,-3.49,-3.4956,-3.4927,-3.4705,-3.4705,-3.4652,-3.462,-3.4301,-3.3731,-3.3427,-3.2868,-3.2287,-3.1853,-3.1739,-3.1582,-3.1524,-3.1553,-3.1582,-3.1511,-3.1496,-3.1496,-3.1496,-3.1496,-3.1496,-3.1496,-3.1496,-3.1496,-3.1496,-3.1496,-3.1496,-3.1496,-3.1496,-3.1496,-3.1496,-3.1451,-3.1301,-3.1271,-3.1137,-3.1107,-3.1077,-3.1077,-3.0778,-3.7778,-3.7532,-3.7187,-3.7058,-3.705,-3.6681,-3.6327,-3.5937,-3.4807,-3.3749,-3.2882,-3.2634,-3.231,-3.2017,-3.2599,-3.2433,-3.171,-3.2472,-3.2592,-3.2247,-3.22,-3.2307,-3.2574,-3.2892,-3.3045,-3.3071,-3.3585,-3.3924,-3.4041,-3.4201,-3.4636,-3.5284,-3.5803,-3.5893,-3.5528,-3.5495,-3.5176,-3.457,-3.4056,-3.3592,-3.321,-3.3762,-3.3892,-3.3451,-3.3632,-3.3583,-3.3267,-3.3097,-3.3121,-3.3426,-3.3378,-3.3585,-3.4043,-3.402,-3.3997,-3.4027,-3.402,-3.3974,-3.3974,-3.3935,-3.4044,-3.4462,-3.4928,-3.4868,-3.4099,-3.4208,-3.4315,-3.4231,-3.4536,-3.4691,-3.4691,-3.4928,-3.5065,-3.5065,-3.5065,-3.497,-3.4715,-3.4667,-3.457,-3.425,-3.3739,-3.3335,-3.3214,-3.2547,-3.2079,-3.1868,-3.1697,-3.1511,-3.1511,-3.1511,-3.1511,-3.1496,-3.1496,-3.1496,-3.1496,-3.1496,-3.1496,-3.1496,-3.1496,-3.1496,-3.1496,-3.1496,-3.1496,-3.1496,-3.1496,-3.1496,-3.1496,-3.1496,-3.1496,-3.1496,-3.1496,-3.1496,-3.1496,-3.1496,-3.1137,-3.8351,-3.8193,-3.7963,-3.8078,-3.8359,-3.7781,-3.7538,-3.7473,-3.6983,-3.598,-3.4718,-3.4027,-3.3435,-3.3008,-3.382,-3.3521,-3.2558,-3.328,-3.3439,-3.2917,-3.294,-3.314,-3.3477,-3.3503,-3.3617,-3.3771,-3.3646,-3.3778,-3.414,-3.4182,-3.4768,-3.5916,-3.672,-3.682,-3.6274,-3.6092,-3.5564,-3.4751,-3.4838,-3.4725,-3.4419,-3.5127,-3.5127,-3.4525,-3.5069,-3.5095,-3.4357,-3.4513,-3.4594,-3.4594,-3.4594,-3.4732,-3.5034,-3.4947,-3.4899,-3.4899,-3.4899,-3.4899,-3.4916,-3.5065,-3.5065,-3.4916,-3.5143,-3.5243,-3.5195,-3.5355,-3.5365,-3.5232,-3.5055,-3.5048,-3.5008,-3.4954,-3.4899,-3.4899,-3.4899,-3.4804,-3.4472,-3.4374,-3.4291,-3.3899,-3.3455,-3.323,-3.3018,-3.2508,-3.2066,-3.1953,-3.1846,-3.1749,-3.1735,-3.1824,-3.1944,-3.1884,-3.172,-3.1511,-3.1496,-3.1496,-3.1496,-3.1496,-3.1496,-3.1496,-3.1496,-3.1496,-3.1496,-3.1496,-3.1496,-3.1496,-3.1496,-3.1496,-3.1496,-3.1496,-3.1496,-3.1496,-3.1496,-3.1496,-3.1361,-3.8164,-3.7847,-3.8164,-3.8335,-3.8363,-3.8311,-3.8262,-3.8262,-3.823,-3.8149,-3.766,-3.6578,-3.591,-3.5905,-3.598,-3.5664,-3.4981,-3.4616,-3.4361,-3.4181,-3.3704,-3.3477,-3.3519,-3.3519,-3.3303,-3.3096,-3.3509,-3.3803,-3.396,-3.4711,-3.5516,-3.6326,-3.6882,-3.7051,-3.6911,-3.6332,-3.5968,-3.5844,-3.5206,-3.4808,-3.4653,-3.4188,-3.4156,-3.4638,-3.4172,-3.4055,-3.43,-3.4643,-3.4875,-3.4859,-3.4875,-3.4859,-3.4923,-3.4923,-3.4899,-3.4916,-3.4932,-3.4899,-3.4965,-3.5528,-3.5628,-3.5032,-3.5586,-3.5934,-3.5909,-3.5934,-3.566,-3.5195,-3.4973,-3.5055,-3.4923,-3.4965,-3.5048,-3.5114,-3.5048,-3.4835,-3.4717,-3.4667,-3.4594,-3.4448,-3.4145,-3.3882,-3.3186,-3.2839,-3.2435,-3.1936,-3.2212,-3.2422,-3.2437,-3.2811,-3.311,-3.3006,-3.2348,-3.1645,-3.157,-3.1496,-3.1496,-3.1496,-3.1496,-3.1496,-3.1496,-3.1496,-3.1496,-3.1496,-3.1496,-3.1496,-3.1496,-3.1496,-3.1496,-3.1496,-3.1496,-3.1496,-3.1496,-3.1496,-3.1421,-3.8294,-3.8107,-3.802,-3.7992,-3.802,-3.8294,-3.8391,-3.8391,-3.8391,-3.8391,-3.8343,-3.7776,-3.7307,-3.6907,-3.7339,-3.6987,-3.5958,-3.5404,-3.4886,-3.4509,-3.3966,-3.3661,-3.354,-3.3916,-3.3911,-3.3587,-3.374,-3.3959,-3.4466,-3.5478,-3.6242,-3.6667,-3.7258,-3.734,-3.6951,-3.6908,-3.6669,-3.6259,-3.6216,-3.6262,-3.6216,-3.5263,-3.4723,-3.4787,-3.5142,-3.4968,-3.4488,-3.5103,-3.5346,-3.4949,-3.4899,-3.4899,-3.4899,-3.4899,-3.5098,-3.5512,-3.5976,-3.6208,-3.6208,-3.6506,-3.6522,-3.6208,-3.6473,-3.6655,-3.6655,-3.6655,-3.6506,-3.6274,-3.6208,-3.6208,-3.6191,-3.6208,-3.6191,-3.6208,-3.6191,-3.5909,-3.5227,-3.5185,-3.4947,-3.4294,-3.4032,-3.3849,-3.3481,-3.3279,-3.3076,-3.2751,-3.2961,-3.3095,-3.3125,-3.3335,-3.3469,-3.344,-3.2991,-3.2557,-3.2168,-3.172,-3.1585,-3.1511,-3.1496,-3.1496,-3.154,-3.1496,-3.1496,-3.1496,-3.1496,-3.1496,-3.1496,-3.1496,-3.1496,-3.1496,-3.1496,-3.1496,-3.1496,-3.1496,-3.1496,-3.8391,-3.8335,-3.802,-3.7905,-3.7905,-3.8266,-3.8391,-3.8391,-3.8391,-3.8391,-3.8391,-3.8391,-3.8116,-3.7744,-3.8165,-3.7769,-3.6715,-3.6134,-3.5613,-3.505,-3.4601,-3.4281,-3.4155,-3.4547,-3.467,-3.4424,-3.4242,-3.4478,-3.5078,-3.6112,-3.6774,-3.6998,-3.7687,-3.783,-3.7359,-3.7612,-3.7425,-3.696,-3.7065,-3.7296,-3.7445,-3.6398,-3.5503,-3.5161,-3.5469,-3.5272,-3.4406,-3.5177,-3.5462,-3.4932,-3.5081,-3.5197,-3.5214,-3.5379,-3.5744,-3.6257,-3.6804,-3.7119,-3.7119,-3.7301,-3.7292,-3.7126,-3.7251,-3.7375,-3.74,-3.74,-3.75,-3.7698,-3.7698,-3.7599,-3.7135,-3.7119,-3.7051,-3.6933,-3.6924,-3.6502,-3.5561,-3.5427,-3.5084,-3.431,-3.4143,-3.3939,-3.3804,-3.3638,-3.3425,-3.344,-3.3619,-3.3769,-3.3814,-3.3933,-3.4098,-3.4038,-3.3918,-3.3484,-3.2901,-3.2497,-3.2108,-3.2049,-3.2138,-3.2093,-3.1854,-3.178,-3.1585,-3.163,-3.1555,-3.1496,-3.1496,-3.1496,-3.1496,-3.1496,-3.1496,-3.1496,-3.1496,-3.1496,-3.1496,-3.8391,-3.8391,-3.8363,-3.8335,-3.8363,-3.8408,-3.8391,-3.8391,-3.8391,-3.8391,-3.8391,-3.8391,-3.8375,-3.8311,-3.8375,-3.8132,-3.7565,-3.694,-3.6561,-3.6358,-3.582,-3.5518,-3.5502,-3.5534,-3.5419,-3.5173,-3.5121,-3.5316,-3.581,-3.6529,-3.6995,-3.7221,-3.7998,-3.8467,-3.8277,-3.81,-3.8133,-3.7939,-3.7463,-3.7491,-3.7968,-3.7036,-3.6194,-3.5744,-3.4611,-3.4239,-3.4381,-3.4757,-3.4982,-3.4932,-3.5562,-3.5909,-3.6009,-3.6605,-3.7003,-3.7069,-3.7119,-3.7152,-3.7284,-3.7814,-3.7914,-3.7384,-3.7831,-3.8136,-3.8136,-3.8162,-3.8394,-3.91,-3.9017,-3.8526,-3.7483,-3.7316,-3.7054,-3.6665,-3.6521,-3.6131,-3.5366,-3.5395,-3.5122,-3.4827,-3.4716,-3.4571,-3.418,-3.3744,-3.3696,-3.3769,-3.4083,-3.4474,-3.4502,-3.4951,-3.5205,-3.513,-3.4786,-3.4249,-3.3634,-3.317,-3.3215,-3.314,-3.2931,-3.3095,-3.2751,-3.2407,-3.2079,-3.1795,-3.1735,-3.166,-3.1555,-3.1496,-3.1496,-3.1496,-3.1496,-3.1496,-3.1438,-3.1496,-3.1409,-3.8391,-3.8391,-3.8391,-3.8391,-3.8391,-3.8391,-3.8391,-3.8391,-3.8391,-3.8391,-3.8391,-3.8391,-3.8391,-3.8391,-3.8391,-3.8307,-3.8071,-3.7408,-3.7069,-3.7026,-3.6784,-3.6474,-3.612,-3.6447,-3.6371,-3.5973,-3.6003,-3.6314,-3.6753,-3.7023,-3.7118,-3.7148,-3.7208,-3.7254,-3.728,-3.7472,-3.7689,-3.7982,-3.7998,-3.8327,-3.8689,-3.7351,-3.6502,-3.6607,-3.6365,-3.6036,-3.5701,-3.6082,-3.6307,-3.6324,-3.6141,-3.6224,-3.6721,-3.7391,-3.7814,-3.7838,-3.8245,-3.8493,-3.8526,-3.8725,-3.8791,-3.856,-3.8752,-3.8901,-3.8917,-3.8891,-3.905,-3.9249,-3.9315,-3.8984,-3.8649,-3.8239,-3.7954,-3.7632,-3.7339,-3.6794,-3.6202,-3.5963,-3.5798,-3.5369,-3.526,-3.5166,-3.4982,-3.4851,-3.4786,-3.4801,-3.4981,-3.507,-3.5145,-3.537,-3.5489,-3.5474,-3.531,-3.507,-3.4876,-3.3948,-3.3484,-3.3484,-3.3425,-3.3395,-3.3185,-3.314,-3.2901,-3.2677,-3.2422,-3.2153,-3.2138,-3.1869,-3.1809,-3.16,-3.16,-3.1572,-3.1365,-3.1336,-3.1131,-3.8164,-3.8135,-3.796,-3.8033,-3.8164,-3.8164,-3.8164,-3.8193,-3.8335,-3.8391,-3.8391,-3.8391,-3.8323,-3.8193,-3.8164,-3.8062,-3.794,-3.7689,-3.7579,-3.744,-3.7412,-3.7098,-3.6682,-3.713,-3.727,-3.6987,-3.7138,-3.7285,-3.7186,-3.7188,-3.7118,-3.6952,-3.6785,-3.6723,-3.68,-3.7194,-3.7653,-3.8116,-3.8444,-3.8832,-3.9059,-3.8074,-3.7512,-3.7803,-3.8025,-3.7564,-3.6413,-3.6818,-3.7119,-3.7069,-3.6837,-3.7052,-3.7765,-3.8295,-3.856,-3.8609,-3.899,-3.9315,-3.9315,-3.9315,-3.9299,-3.9299,-3.9299,-3.9315,-3.9315,-3.9315,-3.9315,-3.9315,-3.9315,-3.9315,-3.9218,-3.8871,-3.8539,-3.8311,-3.7879,-3.728,-3.6554,-3.6259,-3.5944,-3.5561,-3.5464,-3.5477,-3.5489,-3.5474,-3.5459,-3.5489,-3.5489,-3.5489,-3.5489,-3.5489,-3.5489,-3.5489,-3.5474,-3.5429,-3.531,-3.4696,-3.4367,-3.4337,-3.4233,-3.4068,-3.3829,-3.3814,-3.3709,-3.3499,-3.3245,-3.2961,-3.2677,-3.2363,-3.2123,-3.1899,-3.1811,-3.1797,-3.1501,-3.1131,-3.0836,-3.77,-3.7626,-3.7133,-3.7252,-3.7671,-3.7685,-3.77,-3.7759,-3.8119,-3.8205,-3.8177,-3.8307,-3.802,-3.7759,-3.7685,-3.7417,-3.7221,-3.7761,-3.7937,-3.7573,-3.7605,-3.7338,-3.6914,-3.7408,-3.779,-3.7963,-3.839,-3.7943,-3.7025,-3.7175,-3.7074,-3.6723,-3.6922,-3.7013,-3.7148,-3.7476,-3.8001,-3.8343,-3.8455,-3.8777,-3.9202,-3.9046,-3.8931,-3.9067,-3.909,-3.8169,-3.6266,-3.6795,-3.7251,-3.7317,-3.7781,-3.851,-3.9,-3.9199,-3.9265,-3.9216,-3.9282,-3.9299,-3.9315,-3.9315,-3.9315,-3.9315,-3.9315,-3.9315,-3.9315,-3.9315,-3.9315,-3.9315,-3.9315,-3.9315,-3.9191,-3.886,-3.8483,-3.8286,-3.778,-3.7207,-3.6538,-3.6022,-3.5671,-3.5537,-3.5489,-3.5489,-3.5489,-3.5489,-3.5489,-3.5489,-3.5489,-3.5489,-3.5489,-3.5489,-3.5489,-3.5489,-3.5489,-3.5489,-3.5489,-3.5459,-3.5429,-3.5385,-3.5235,-3.5055,-3.4637,-3.4487,-3.4352,-3.4128,-3.3799,-3.3514,-3.32,-3.2901,-3.2721,-3.2512,-3.2347,-3.1869,-3.1259,-3.0799,-3.0424,-3.7163,-3.7117,-3.6966,-3.6981,-3.7133,-3.7133,-3.7133,-3.7163,-3.7296,-3.7371,-3.7356,-3.7371,-3.7266,-3.7193,-3.7133,-3.7057,-3.6936,-3.7237,-3.7282,-3.7163,-3.7178,-3.7072,-3.7042,-3.7449,-3.7947,-3.8403,-3.8722,-3.8509,-3.7899,-3.7716,-3.7447,-3.7074,-3.6785,-3.6723,-3.6754,-3.6877,-3.7148,-3.7608,-3.7972,-3.8343,-3.8756,-3.8659,-3.8576,-3.856,-3.8526,-3.8162,-3.7599,-3.7748,-3.8096,-3.8553,-3.8344,-3.8526,-3.9149,-3.9315,-3.9315,-3.9315,-3.9315,-3.9315,-3.9315,-3.9315,-3.9315,-3.9315,-3.9315,-3.9315,-3.9315,-3.9315,-3.9315,-3.9315,-3.9315,-3.9191,-3.886,-3.8678,-3.8371,-3.7867,-3.731,-3.6753,-3.6116,-3.5718,-3.5572,-3.5489,-3.5489,-3.5489,-3.5489,-3.5489,-3.5489,-3.5489,-3.5489,-3.5489,-3.5489,-3.5489,-3.5489,-3.5489,-3.5489,-3.5489,-3.5489,-3.5504,-3.5472,-3.5472,-3.5457,-3.5489,-3.5175,-3.5011,-3.4876,-3.4726,-3.4382,-3.4098,-3.3769,-3.3528,-3.3359,-3.2887,-3.2476,-3.1768,-3.0914,-3.0397,-3.0083,-3.6646,-3.6616,-3.6461,-3.6492,-3.6646,-3.6631,-3.6631,-3.6662,-3.6845,-3.689,-3.6906,-3.689,-3.6784,-3.6662,-3.6646,-3.6554,-3.6414,-3.6368,-3.6383,-3.6445,-3.6677,-3.6708,-3.6784,-3.749,-3.8004,-3.846,-3.8903,-3.8777,-3.8173,-3.7972,-3.7549,-3.6983,-3.6631,-3.6492,-3.6492,-3.6523,-3.6723,-3.7194,-3.7666,-3.8128,-3.8502,-3.8611,-3.8609,-3.8609,-3.8609,-3.8593,-3.8609,-3.8609,-3.8834,-3.9149,-3.8825,-3.8858,-3.9282,-3.9315,-3.9315,-3.9315,-3.9315,-3.9315,-3.9315,-3.9315,-3.9315,-3.9315,-3.9315,-3.9315,-3.9315,-3.9315,-3.9245,-3.9067,-3.9023,-3.8788,-3.8387,-3.8504,-3.82,-3.7356,-3.6966,-3.6399,-3.5799,-3.5554,-3.5504,-3.5489,-3.5489,-3.5489,-3.5489,-3.5489,-3.5489,-3.5489,-3.5489,-3.5489,-3.5489,-3.5489,-3.5489,-3.5489,-3.5489,-3.5489,-3.5489,-3.5472,-3.5472,-3.5439,-3.5439,-3.5457,-3.5355,-3.5325,-3.525,-3.5173,-3.4902,-3.4748,-3.4433,-3.4218,-3.4048,-3.3366,-3.2515,-3.1748,-3.0937,-3.0309,-2.9888,-3.6179,-3.6116,-3.5701,-3.5797,-3.6148,-3.6179,-3.6179,-3.6227,-3.6538,-3.6723,-3.6753,-3.6708,-3.6523,-3.6227,-3.6179,-3.5973,-3.5602,-3.5619,-3.5683,-3.5829,-3.6163,-3.6399,-3.6507,-3.7445,-3.7985,-3.8173,-3.8849,-3.8738,-3.7972,-3.7828,-3.7447,-3.6816,-3.6631,-3.6523,-3.6585,-3.6554,-3.6693,-3.7088,-3.7623,-3.8116,-3.8539,-3.9023,-3.9249,-3.9232,-3.9232,-3.9216,-3.9199,-3.9183,-3.9249,-3.9315,-3.9232,-3.9232,-3.9299,-3.9315,-3.9315,-3.9315,-3.9315,-3.9315,-3.9315,-3.9315,-3.9315,-3.9315,-3.9315,-3.9315,-3.9315,-3.9202,-3.8996,-3.8678,-3.8567,-3.827,-3.7849,-3.8007,-3.7772,-3.6955,-3.6616,-3.6211,-3.5651,-3.5489,-3.5489,-3.5489,-3.5489,-3.5489,-3.5489,-3.5489,-3.5489,-3.5489,-3.5489,-3.5489,-3.5489,-3.5489,-3.5489,-3.5489,-3.5489,-3.5489,-3.5489,-3.5489,-3.5472,-3.5374,-3.5326,-3.5326,-3.5359,-3.5359,-3.5326,-3.5264,-3.5136,-3.5073,-3.4901,-3.4482,-3.3929,-3.3102,-3.2345,-3.1686,-3.0939,-3.0148,-2.9719,-3.5668,-3.5668,-3.5569,-3.5569,-3.5683,-3.5668,-3.5668,-3.5716,-3.5829,-3.5941,-3.5878,-3.5893,-3.5846,-3.5716,-3.5701,-3.5602,-3.5537,-3.5504,-3.5572,-3.5671,-3.5973,-3.632,-3.6646,-3.734,-3.7754,-3.7873,-3.8472,-3.8455,-3.7899,-3.7623,-3.7476,-3.7522,-3.6816,-3.6693,-3.6922,-3.6662,-3.6554,-3.6785,-3.7506,-3.7927,-3.8173,-3.8887,-3.9299,-3.9315,-3.9315,-3.9315,-3.9315,-3.9315,-3.9315,-3.9315,-3.9315,-3.9315,-3.9315,-3.9315,-3.9315,-3.9315,-3.9315,-3.9315,-3.9315,-3.9315,-3.9315,-3.9315,-3.9315,-3.9315,-3.9272,-3.8969,-3.8678,-3.8367,-3.8096,-3.7605,-3.7103,-3.7077,-3.6971,-3.6757,-3.6326,-3.5894,-3.5632,-3.5489,-3.5489,-3.5489,-3.5489,-3.5489,-3.5489,-3.5489,-3.5489,-3.5489,-3.5489,-3.5489,-3.5489,-3.5489,-3.5489,-3.5489,-3.5489,-3.5489,-3.5489,-3.5489,-3.5424,-3.5294,-3.5213,-3.5133,-3.51,-3.5034,-3.4949,-3.4883,-3.462,-3.4491,-3.4322,-3.4052,-3.3411,-3.2633,-3.2085,-3.1334,-3.0457,-2.9681,-2.9535,-3.5489,-3.5489,-3.5489,-3.5489,-3.5489,-3.5489,-3.5489,-3.5489,-3.5489,-3.5489,-3.5489,-3.5489,-3.5489,-3.5489,-3.5504,-3.5504,-3.5489,-3.5554,-3.5621,-3.5735,-3.599,-3.6211,-3.66,-3.7237,-3.7565,-3.7447,-3.8201,-3.8286,-3.7956,-3.7783,-3.777,-3.7506,-3.7058,-3.6861,-3.68,-3.6662,-3.6492,-3.6631,-3.7238,-3.7666,-3.7943,-3.8595,-3.9067,-3.9245,-3.9315,-3.9315,-3.9315,-3.9315,-3.9315,-3.9315,-3.9315,-3.9315,-3.9315,-3.9315,-3.9315,-3.9315,-3.9315,-3.9315,-3.9315,-3.9315,-3.9315,-3.9315,-3.9315,-3.9191,-3.8985,-3.865,-3.8339,-3.7735,-3.7413,-3.692,-3.6415,-3.6227,-3.6461,-3.6803,-3.6192,-3.5707,-3.5863,-3.5684,-3.5519,-3.5489,-3.5489,-3.5489,-3.5489,-3.5489,-3.5489,-3.5489,-3.5489,-3.5489,-3.5489,-3.5489,-3.5489,-3.5457,-3.5457,-3.5472,-3.5392,-3.5359,-3.5195,-3.5063,-3.4769,-3.4754,-3.4721,-3.462,-3.4438,-3.4283,-3.4045,-3.3805,-3.3569,-3.3227,-3.2607,-3.1942,-3.1526,-3.0979,-3.0095,-2.9641,-2.9479,-3.5489,-3.5489,-3.5489,-3.5489,-3.5489,-3.5489,-3.5489,-3.5489,-3.5489,-3.5489,-3.5489,-3.5489,-3.5522,-3.5537,-3.5554,-3.5537,-3.5554,-3.5686,-3.5767,-3.5879,-3.607,-3.6274,-3.6399,-3.7194,-3.7314,-3.7118,-3.7985,-3.8087,-3.7886,-3.8144,-3.8059,-3.7623,-3.7387,-3.7118,-3.7013,-3.6754,-3.6585,-3.6708,-3.7043,-3.7417,-3.777,-3.8258,-3.865,-3.8914,-3.8985,-3.8985,-3.904,-3.9067,-3.9094,-3.9218,-3.9255,-3.9299,-3.9315,-3.9315,-3.9315,-3.9315,-3.9315,-3.9315,-3.9315,-3.9315,-3.9315,-3.9315,-3.9245,-3.904,-3.865,-3.8282,-3.7735,-3.7011,-3.6754,-3.6551,-3.6273,-3.5889,-3.6367,-3.6974,-3.6315,-3.6013,-3.6193,-3.5893,-3.5489,-3.5489,-3.5489,-3.5489,-3.5489,-3.5489,-3.5489,-3.5489,-3.5489,-3.5489,-3.5489,-3.5489,-3.5457,-3.5392,-3.5392,-3.5407,-3.5294,-3.5228,-3.4983,-3.4783,-3.4317,-3.4153,-3.4201,-3.4085,-3.3817,-3.3575,-3.3171,-3.2804,-3.2492,-3.206,-3.1636,-3.1318,-3.0908,-3.0457,-2.9973,-2.9808,-2.9617,-3.5489,-3.5489,-3.5489,-3.5489,-3.5489,-3.5489,-3.5489,-3.5489,-3.5489,-3.5489,-3.5489,-3.5489,-3.5539,-3.5638,-3.5638,-3.5735,-3.5846,-3.591,-3.599,-3.6101,-3.632,-3.6429,-3.6538,-3.7059,-3.7013,-3.6861,-3.7194,-3.7462,-3.7447,-3.7594,-3.7828,-3.8201,-3.7812,-3.7857,-3.7915,-3.7268,-3.7043,-3.7074,-3.7164,-3.7254,-3.7417,-3.7828,-3.81,-3.8286,-3.8286,-3.823,-3.8185,-3.8201,-3.8371,-3.8706,-3.9067,-3.9245,-3.9299,-3.9315,-3.9315,-3.9315,-3.9315,-3.9315,-3.9315,-3.9272,-3.9272,-3.9175,-3.8887,-3.865,-3.8367,-3.7634,-3.7071,-3.6616,-3.6606,-3.6663,-3.688,-3.6974,-3.7105,-3.721,-3.6791,-3.6312,-3.6342,-3.5908,-3.5534,-3.5489,-3.5489,-3.5489,-3.5489,-3.5489,-3.5489,-3.5489,-3.5489,-3.5489,-3.5489,-3.5489,-3.5424,-3.5311,-3.5294,-3.5261,-3.5096,-3.4949,-3.475,-3.4433,-3.3997,-3.3451,-3.3485,-3.3297,-3.2918,-3.2577,-3.2196,-3.1819,-3.1513,-3.1217,-3.0833,-3.0582,-3.0368,-3.0101,-2.9895,-2.9779,-2.9779,-3.5489,-3.5489,-3.5489,-3.5489,-3.5489,-3.5489,-3.5489,-3.5489,-3.5587,-3.5554,-3.5522,-3.5539,-3.5638,-3.5703,-3.572,-3.5831,-3.6005,-3.6068,-3.6179,-3.6305,-3.6445,-3.6492,-3.6523,-3.6693,-3.6723,-3.6585,-3.6983,-3.7178,-3.7238,-3.7417,-3.7828,-3.823,-3.803,-3.7828,-3.8001,-3.7637,-3.7284,-3.6968,-3.7104,-3.7194,-3.7268,-3.7417,-3.774,-3.7899,-3.8071,-3.8144,-3.7943,-3.8399,-3.8399,-3.8444,-3.8722,-3.9094,-3.9272,-3.9315,-3.9315,-3.9315,-3.9315,-3.9164,-3.904,-3.8958,-3.886,-3.865,-3.8399,-3.8055,-3.7693,-3.7071,-3.66,-3.621,-3.6161,-3.6394,-3.7255,-3.7389,-3.7494,-3.7719,-3.73,-3.6941,-3.6761,-3.6088,-3.5489,-3.5489,-3.5489,-3.5489,-3.5489,-3.5489,-3.5489,-3.5489,-3.5457,-3.5457,-3.5439,-3.5424,-3.5311,-3.5246,-3.518,-3.5082,-3.485,-3.4683,-3.4481,-3.4128,-3.3652,-3.303,-3.2591,-3.229,-3.1915,-3.1599,-3.1294,-3.091,-3.0608,-3.0343,-3.0266,-3.0126,-2.9985,-2.9856,-2.9779,-2.9779,-2.9779,-3.5489,-3.5489,-3.5489,-3.5489,-3.5489,-3.5489,-3.5489,-3.5522,-3.5638,-3.5653,-3.5572,-3.5671,-3.5784,-3.5769,-3.5816,-3.5879,-3.6053,-3.6195,-3.6352,-3.646,-3.6492,-3.6492,-3.6523,-3.6554,-3.6538,-3.6554,-3.6831,-3.7043,-3.7148,-3.7519,-3.774,-3.7915,-3.803,-3.8059,-3.7799,-3.7682,-3.7565,-3.7074,-3.6983,-3.7013,-3.7043,-3.7074,-3.7284,-3.7535,-3.7783,-3.7841,-3.774,-3.8087,-3.8415,-3.787,-3.8173,-3.8595,-3.8942,-3.9175,-3.9191,-3.9191,-3.9218,-3.911,-3.8777,-3.8639,-3.8472,-3.7972,-3.7812,-3.7504,-3.7027,-3.6692,-3.6274,-3.6016,-3.5962,-3.6492,-3.7389,-3.7838,-3.8033,-3.8153,-3.7853,-3.7524,-3.712,-3.6282,-3.5833,-3.5684,-3.5594,-3.5489,-3.5489,-3.5489,-3.5489,-3.5489,-3.5457,-3.5424,-3.5392,-3.5294,-3.5148,-3.5115,-3.5049,-3.4721,-3.4486,-3.4099,-3.3928,-3.3479,-3.308,-3.2448,-3.1763,-3.1532,-3.1207,-3.081,-3.0457,-3.0203,-3.0062,-3.0037,-2.9921,-2.9779,-2.9779,-2.9779,-2.9779,-2.9779,-2.9779,-3.5489,-3.5489,-3.5489,-3.5489,-3.5489,-3.5489,-3.5489,-3.5522,-3.5686,-3.5688,-3.5703,-3.5878,-3.6022,-3.607,-3.6101,-3.6211,-3.6352,-3.6429,-3.646,-3.6492,-3.6492,-3.6492,-3.6492,-3.6599,-3.6569,-3.6507,-3.6677,-3.6739,-3.6785,-3.7074,-3.7476,-3.7857,-3.8173,-3.8371,-3.8427,-3.8315,-3.7799,-3.7358,-3.7013,-3.6754,-3.6693,-3.6693,-3.6723,-3.6907,-3.7104,-3.7013,-3.6892,-3.6922,-3.7043,-3.7268,-3.7387,-3.7711,-3.8087,-3.8455,-3.8667,-3.8777,-3.8969,-3.8931,-3.8511,-3.8528,-3.8315,-3.7943,-3.7506,-3.7163,-3.6738,-3.6383,-3.599,-3.5957,-3.6435,-3.7315,-3.8123,-3.8452,-3.8691,-3.8556,-3.8287,-3.7838,-3.703,-3.6552,-3.6282,-3.6163,-3.5848,-3.5489,-3.5489,-3.5489,-3.5489,-3.5424,-3.5359,-3.5326,-3.5279,-3.5115,-3.4902,-3.4868,-3.4883,-3.4438,-3.4051,-3.3589,-3.3206,-3.2605,-3.2137,-3.1563,-3.1052,-3.0855,-3.0556,-3.0418,-3.0253,-3.0099,-2.997,-2.9854,-2.9779,-2.9779,-2.9779,-2.9779,-2.9779,-2.9779,-2.9779,-3.5765,-3.5604,-3.5604,-3.5668,-3.5765,-3.5733,-3.5701,-3.5668,-3.5863,-3.5847,-3.5816,-3.599,-3.6148,-3.6164,-3.6211,-3.632,-3.646,-3.6492,-3.6492,-3.6492,-3.6492,-3.6492,-3.6569,-3.6799,-3.6999,-3.703,-3.7015,-3.6769,-3.6553,-3.6708,-3.7134,-3.7476,-3.7799,-3.8116,-3.8399,-3.81,-3.7799,-3.7506,-3.7104,-3.6723,-3.6523,-3.6492,-3.6492,-3.6554,-3.6693,-3.6723,-3.6616,-3.7058,-3.7074,-3.6968,-3.7074,-3.7164,-3.7328,-3.7594,-3.8017,-3.8201,-3.8455,-3.8399,-3.7985,-3.7857,-3.7623,-3.7208,-3.6892,-3.66,-3.6352,-3.6038,-3.575,-3.5812,-3.6252,-3.718,-3.7778,-3.8527,-3.8826,-3.896,-3.8901,-3.8407,-3.7674,-3.718,-3.6806,-3.6462,-3.5893,-3.5517,-3.5489,-3.5489,-3.5489,-3.5424,-3.5309,-3.5228,-3.5162,-3.5038,-3.4834,-3.4337,-3.4201,-3.3707,-3.3297,-3.2897,-3.2557,-3.2004,-3.1463,-3.0926,-3.0778,-3.0773,-3.0639,-3.0448,-3.0244,-3.0306,-3.0105,-3.0105,-2.9955,-2.9792,-2.9779,-2.9779,-2.9779,-2.9779,-2.9779,-3.6101,-3.572,-3.5816,-3.5926,-3.6005,-3.602,-3.5894,-3.5847,-3.6085,-3.6038,-3.5864,-3.6116,-3.6242,-3.6274,-3.6274,-3.6352,-3.6492,-3.6492,-3.6492,-3.6492,-3.6492,-3.6492,-3.6661,-3.6953,-3.7169,-3.7046,-3.7107,-3.7092,-3.6815,-3.6631,-3.68,-3.7164,-3.7224,-3.7506,-3.7956,-3.787,-3.7549,-3.7417,-3.7104,-3.6846,-3.6585,-3.6492,-3.6492,-3.6492,-3.6861,-3.6831,-3.6616,-3.7013,-3.7043,-3.6816,-3.6785,-3.6892,-3.6631,-3.6861,-3.7254,-3.7565,-3.777,-3.7623,-3.7358,-3.7238,-3.7134,-3.66,-3.6336,-3.6148,-3.5958,-3.5799,-3.5636,-3.5642,-3.6133,-3.6791,-3.7464,-3.8033,-3.8676,-3.9164,-3.9269,-3.9029,-3.8112,-3.7425,-3.6701,-3.6287,-3.5768,-3.5529,-3.5451,-3.5359,-3.5359,-3.5358,-3.5226,-3.5149,-3.5112,-3.5135,-3.4801,-3.3896,-3.3381,-3.2854,-3.2426,-3.2123,-3.1874,-3.1615,-3.1213,-3.0791,-3.0839,-3.0999,-3.0903,-3.0972,-3.1047,-3.106,-3.0721,-3.0306,-3.0105,-2.9955,-2.9842,-2.9779,-2.9779,-2.9779,-2.9779,-3.6384,-3.5752,-3.6211,-3.6273,-3.6037,-3.602,-3.6005,-3.599,-3.6148,-3.6179,-3.6101,-3.6352,-3.646,-3.646,-3.646,-3.6492,-3.6492,-3.6492,-3.6492,-3.6492,-3.6492,-3.6492,-3.6507,-3.6522,-3.6846,-3.6907,-3.6784,-3.6953,-3.703,-3.6738,-3.6739,-3.7074,-3.7194,-3.761,-3.8201,-3.7623,-3.7506,-3.761,-3.7013,-3.6585,-3.6523,-3.6492,-3.6492,-3.6523,-3.6585,-3.6616,-3.6523,-3.6754,-3.6647,-3.6616,-3.6554,-3.6554,-3.6523,-3.6523,-3.6569,-3.6907,-3.7314,-3.7711,-3.7238,-3.7104,-3.6876,-3.6399,-3.6211,-3.6038,-3.5799,-3.5621,-3.5522,-3.5519,-3.6058,-3.6641,-3.724,-3.7943,-3.8646,-3.9059,-3.9313,-3.8644,-3.7828,-3.7654,-3.6966,-3.6086,-3.5566,-3.5436,-3.5299,-3.524,-3.521,-3.5222,-3.5188,-3.514,-3.4981,-3.498,-3.4309,-3.3283,-3.2569,-3.2042,-3.1676,-3.1331,-3.1373,-3.1228,-3.1022,-3.0745,-3.1046,-3.1334,-3.1757,-3.1838,-3.1876,-3.1549,-3.0959,-3.0557,-3.0281,-3.003,-2.9842,-2.9779,-2.9779,-2.9779,-2.9779,-3.734,-3.6415,-3.6616,-3.6554,-3.6289,-3.6273,-3.6226,-3.6148,-3.6289,-3.6305,-3.6242,-3.6414,-3.6492,-3.6492,-3.6492,-3.6492,-3.6492,-3.6492,-3.6492,-3.6492,-3.6492,-3.6492,-3.6599,-3.6876,-3.7076,-3.6969,-3.7076,-3.723,-3.7246,-3.6892,-3.6631,-3.6785,-3.6861,-3.7238,-3.8014,-3.7268,-3.7358,-3.7387,-3.7043,-3.6554,-3.6492,-3.6492,-3.6492,-3.6492,-3.6492,-3.6492,-3.6492,-3.6492,-3.6492,-3.6492,-3.6492,-3.6492,-3.6492,-3.6492,-3.6523,-3.6554,-3.6846,-3.6983,-3.68,-3.68,-3.6554,-3.6336,-3.6116,-3.5941,-3.5668,-3.5522,-3.5504,-3.5504,-3.5744,-3.6237,-3.6817,-3.7464,-3.8108,-3.8611,-3.9047,-3.8597,-3.7911,-3.7677,-3.7207,-3.6286,-3.5484,-3.5381,-3.5311,-3.5289,-3.5374,-3.5564,-3.5546,-3.5429,-3.5094,-3.4711,-3.3738,-3.2395,-3.1786,-3.1222,-3.0947,-3.0659,-3.0984,-3.093,-3.0966,-3.0903,-3.1342,-3.1675,-3.2139,-3.2428,-3.2428,-3.1951,-3.121,-3.0758,-3.0457,-3.0118,-2.9792,-2.9779,-2.9779,-2.9779,-2.974,-3.8214,-3.731,-3.7163,-3.6876,-3.6507,-3.6492,-3.6414,-3.632,-3.6429,-3.6414,-3.6352,-3.6429,-3.6492,-3.6492,-3.6492,-3.6492,-3.6492,-3.6492,-3.6492,-3.6492,-3.6492,-3.6492,-3.6599,-3.6984,-3.7169,-3.7261,-3.7046,-3.7123,-3.7015,-3.6769,-3.6523,-3.6492,-3.6585,-3.6983,-3.7298,-3.7043,-3.6877,-3.7284,-3.6846,-3.6523,-3.6492,-3.6492,-3.6492,-3.6492,-3.6492,-3.6492,-3.6492,-3.6492,-3.6492,-3.6492,-3.6492,-3.6492,-3.6492,-3.6492,-3.6492,-3.6492,-3.6585,-3.6492,-3.6476,-3.6445,-3.6305,-3.6116,-3.5941,-3.5733,-3.5474,-3.5424,-3.5374,-3.5326,-3.5341,-3.5714,-3.6253,-3.6786,-3.7426,-3.8011,-3.854,-3.832,-3.8085,-3.7662,-3.7025,-3.6016,-3.5409,-3.5409,-3.5375,-3.5377,-3.552,-3.5844,-3.5873,-3.5773,-3.5232,-3.4638,-3.3596,-3.2367,-3.1752,-3.1293,-3.1022,-3.0789,-3.0861,-3.0882,-3.0926,-3.1248,-3.1851,-3.2177,-3.2491,-3.2717,-3.2842,-3.2252,-3.1449,-3.1035,-3.0608,-3.0143,-2.9779,-2.9779,-2.9779,-2.974,-2.9611,-3.8583,-3.8427,-3.7889,-3.7195,-3.6523,-3.6492,-3.6523,-3.646,-3.6492,-3.6492,-3.6445,-3.6492,-3.6492,-3.6492,-3.6492,-3.6492,-3.6492,-3.6492,-3.6492,-3.6492,-3.6492,-3.6492,-3.6569,-3.6599,-3.6645,-3.6645,-3.6707,-3.6692,-3.6599,-3.663,-3.6492,-3.6492,-3.6492,-3.6816,-3.7013,-3.6922,-3.66,-3.6831,-3.6554,-3.6523,-3.6492,-3.6492,-3.6492,-3.6492,-3.6492,-3.6492,-3.6492,-3.6492,-3.6492,-3.6492,-3.6492,-3.6492,-3.6492,-3.6492,-3.6492,-3.6414,-3.6336,-3.6242,-3.6211,-3.6211,-3.6038,-3.5831,-3.5621,-3.5489,-3.5326,-3.5228,-3.5148,-3.5049,-3.5067,-3.53,-3.5695,-3.6104,-3.6783,-3.7493,-3.8035,-3.8119,-3.787,-3.7468,-3.6739,-3.57,-3.5438,-3.5618,-3.5601,-3.5613,-3.5718,-3.5998,-3.6179,-3.6119,-3.5143,-3.442,-3.3673,-3.2724,-3.2042,-3.1682,-3.1574,-3.1438,-3.1297,-3.147,-3.1628,-3.2089,-3.2679,-3.288,-3.2817,-3.2893,-3.296,-3.2315,-3.1813,-3.1417,-3.0929,-3.0154,-2.9779,-2.9689,-2.9495,-2.9287,-2.9236,-3.886,-3.8556,-3.8046,-3.7492,-3.6922,-3.6922,-3.6754,-3.6523,-3.6492,-3.6492,-3.6492,-3.6492,-3.6492,-3.6492,-3.6492,-3.6492,-3.6492,-3.6492,-3.6492,-3.6492,-3.6492,-3.6492,-3.6492,-3.6492,-3.6507,-3.6492,-3.6492,-3.6492,-3.6522,-3.6492,-3.6492,-3.6492,-3.6492,-3.6816,-3.6952,-3.6922,-3.6739,-3.6507,-3.6492,-3.6492,-3.6492,-3.6492,-3.6492,-3.6492,-3.6492,-3.6492,-3.6492,-3.6492,-3.6492,-3.6492,-3.6492,-3.6492,-3.6492,-3.6492,-3.6414,-3.632,-3.6211,-3.6085,-3.5943,-3.599,-3.5958,-3.572,-3.5492,-3.5261,-3.5148,-3.5082,-3.5016,-3.4935,-3.4902,-3.5074,-3.5181,-3.5686,-3.634,-3.7037,-3.7496,-3.7717,-3.7711,-3.739,-3.7099,-3.6343,-3.6104,-3.6154,-3.6049,-3.5928,-3.6028,-3.6182,-3.6344,-3.6235,-3.5203,-3.432,-3.3582,-3.2945,-3.2299,-3.1937,-3.1814,-3.1719,-3.1637,-3.1951,-3.2277,-3.2616,-3.2993,-3.3074,-3.3036,-3.3111,-3.3018,-3.2469,-3.2076,-3.1793,-3.1182,-3.0286,-2.976,-2.9482,-2.9236,-2.8882,-2.87,-3.8969,-3.875,-3.8286,-3.774,-3.7208,-3.7043,-3.6816,-3.6554,-3.6492,-3.6492,-3.6492,-3.6492,-3.6492,-3.6492,-3.6492,-3.6492,-3.6492,-3.6492,-3.6492,-3.6492,-3.6492,-3.6492,-3.6492,-3.6492,-3.6492,-3.6492,-3.6492,-3.6492,-3.6492,-3.6492,-3.6492,-3.6492,-3.6523,-3.6723,-3.6861,-3.6952,-3.6816,-3.6585,-3.6492,-3.6492,-3.6492,-3.6492,-3.6492,-3.6492,-3.6492,-3.6492,-3.6492,-3.6492,-3.6492,-3.6492,-3.6492,-3.6492,-3.6492,-3.6429,-3.6352,-3.6211,-3.6053,-3.5878,-3.575,-3.5671,-3.5671,-3.5379,-3.5249,-3.5115,-3.5016,-3.4916,-3.4817,-3.4735,-3.4735,-3.4769,-3.4783,-3.5146,-3.5615,-3.6219,-3.6827,-3.7135,-3.7565,-3.7506,-3.7383,-3.7085,-3.6838,-3.6331,-3.6114,-3.5939,-3.5943,-3.5962,-3.5928,-3.5742,-3.5008,-3.4192,-3.361,-3.3042,-3.2498,-3.2218,-3.1993,-3.2168,-3.2303,-3.2403,-3.2667,-3.2742,-3.298,-3.3043,-3.3038,-3.2939,-3.2753,-3.2554,-3.2194,-3.1744,-3.1079,-3.0341,-2.9926,-2.9547,-2.874,-2.8383,-2.7931,-3.8903,-3.9218,-3.875,-3.8042,-3.7268,-3.6723,-3.6569,-3.6585,-3.6554,-3.6554,-3.6492,-3.6492,-3.6492,-3.6492,-3.6492,-3.6492,-3.6492,-3.6492,-3.6492,-3.6492,-3.6492,-3.6492,-3.6492,-3.6492,-3.6492,-3.6492,-3.6492,-3.6492,-3.6492,-3.6492,-3.6492,-3.6492,-3.6492,-3.6523,-3.6507,-3.6523,-3.6523,-3.6492,-3.6492,-3.6492,-3.6492,-3.6492,-3.6492,-3.6492,-3.6492,-3.6492,-3.6492,-3.6492,-3.6492,-3.6492,-3.6492,-3.6492,-3.6492,-3.6352,-3.6211,-3.6148,-3.5765,-3.5554,-3.5472,-3.5326,-3.5166,-3.5052,-3.5001,-3.4916,-3.4765,-3.4698,-3.465,-3.4534,-3.4481,-3.4448,-3.4462,-3.4535,-3.499,-3.5563,-3.6198,-3.6823,-3.7266,-3.7775,-3.7651,-3.7549,-3.6881,-3.6295,-3.6066,-3.59,-3.5809,-3.5748,-3.5629,-3.5197,-3.4575,-3.4112,-3.3547,-3.3186,-3.2723,-3.268,-3.2571,-3.2835,-3.3011,-3.3061,-3.3048,-3.2993,-3.2993,-3.3013,-3.2939,-3.2766,-3.2618,-3.2451,-3.2025,-3.1534,-3.1018,-3.0606,-3.0093,-2.9548,-2.8675,-2.7851,-2.7366,-3.9148,-3.9245,-3.8777,-3.8427,-3.81,-3.7972,-3.7565,-3.7043,-3.6952,-3.6785,-3.6554,-3.6492,-3.6492,-3.6492,-3.6492,-3.6492,-3.6492,-3.6492,-3.6492,-3.6492,-3.6492,-3.6492,-3.6492,-3.6492,-3.6492,-3.6492,-3.6492,-3.6492,-3.6492,-3.6492,-3.6492,-3.6492,-3.6492,-3.6492,-3.6492,-3.6492,-3.6492,-3.6492,-3.6492,-3.6492,-3.6492,-3.6492,-3.6492,-3.6492,-3.6492,-3.6492,-3.6492,-3.6492,-3.6492,-3.6492,-3.6492,-3.6492,-3.646,-3.6289,-3.607,-3.5926,-3.5572,-3.5341,-3.5096,-3.4883,-3.4916,-3.4835,-3.4802,-3.475,-3.4698,-3.4563,-3.4481,-3.4414,-3.438,-3.438,-3.4428,-3.4428,-3.4811,-3.5407,-3.6046,-3.6685,-3.7186,-3.7738,-3.7955,-3.7825,-3.7382,-3.6399,-3.5896,-3.5462,-3.5332,-3.5127,-3.4895,-3.4592,-3.4059,-3.3891,-3.3555,-3.3297,-3.3016,-3.3048,-3.3124,-3.3124,-3.3124,-3.3099,-3.3086,-3.3099,-3.3068,-3.2952,-3.281,-3.2636,-3.2537,-3.2358,-3.192,-3.1551,-3.1307,-3.0919,-3.0163,-2.9414,-2.8533,-2.7513,-2.6652,-3.9315,-3.9272,-3.8985,-3.875,-3.8583,-3.8427,-3.7886,-3.7268,-3.7194,-3.6938,-3.6585,-3.6492,-3.6492,-3.6492,-3.6492,-3.6492,-3.6492,-3.6492,-3.6492,-3.6492,-3.6492,-3.6492,-3.6492,-3.6492,-3.6492,-3.6492,-3.6492,-3.6492,-3.6492,-3.6492,-3.6492,-3.6492,-3.6492,-3.6492,-3.6492,-3.6492,-3.6492,-3.6492,-3.6492,-3.6492,-3.6492,-3.6492,-3.6492,-3.6492,-3.6492,-3.6492,-3.6492,-3.6492,-3.6492,-3.6492,-3.6492,-3.6429,-3.6336,-3.6132,-3.5879,-3.5606,-3.5311,-3.503,-3.4716,-3.4616,-3.465,-3.4668,-3.465,-3.4597,-3.4597,-3.4481,-3.4414,-3.4414,-3.438,-3.438,-3.438,-3.438,-3.4632,-3.5227,-3.5865,-3.6504,-3.6816,-3.7351,-3.7776,-3.7713,-3.7234,-3.6357,-3.5625,-3.509,-3.4716,-3.4439,-3.4147,-3.3894,-3.3683,-3.3598,-3.3513,-3.3283,-3.3124,-3.3124,-3.3124,-3.3124,-3.3124,-3.3124,-3.3081,-3.2995,-3.2896,-3.2766,-3.2636,-3.2463,-3.232,-3.2145,-3.1881,-3.1573,-3.1161,-3.0589,-2.9856,-2.9118,-2.833,-2.7426,-2.6425,-3.9315,-3.9315,-3.9315,-3.904,-3.8611,-3.8258,-3.7786,-3.7238,-3.7224,-3.6922,-3.6492,-3.6492,-3.6492,-3.6492,-3.6492,-3.6492,-3.6492,-3.6492,-3.6492,-3.6492,-3.6492,-3.6492,-3.6492,-3.6492,-3.6492,-3.6492,-3.6492,-3.6492,-3.6492,-3.6492,-3.6492,-3.6492,-3.6492,-3.6492,-3.6492,-3.6492,-3.6492,-3.6492,-3.6492,-3.6492,-3.6492,-3.6492,-3.6492,-3.6492,-3.6492,-3.6492,-3.6492,-3.6492,-3.6492,-3.646,-3.646,-3.6258,-3.6068,-3.5799,-3.5509,-3.5198,-3.4898,-3.465,-3.4481,-3.4448,-3.4448,-3.4467,-3.4448,-3.4414,-3.4414,-3.4414,-3.4414,-3.438,-3.438,-3.438,-3.438,-3.438,-3.4395,-3.5067,-3.572,-3.6114,-3.6331,-3.6753,-3.7187,-3.7078,-3.6582,-3.5879,-3.5345,-3.4853,-3.4272,-3.4021,-3.381,-3.3654,-3.3484,-3.3484,-3.3398,-3.324,-3.3124,-3.3124,-3.3124,-3.3124,-3.3025,-3.2982,-3.2853,-3.281,-3.2667,-3.255,-3.2376,-3.2201,-3.2081,-3.1893,-3.1761,-3.135,-3.0812,-3.0206,-2.9616,-2.8832,-2.8086,-2.7491,-2.6627,-3.9315,-3.9315,-3.9315,-3.9218,-3.9094,-3.8958,-3.8427,-3.7711,-3.7358,-3.6922,-3.6492,-3.6492,-3.6523,-3.6492,-3.6492,-3.6492,-3.6492,-3.6492,-3.6492,-3.6492,-3.6492,-3.6492,-3.6492,-3.6492,-3.6492,-3.6492,-3.6492,-3.6492,-3.6492,-3.6492,-3.6492,-3.6492,-3.6492,-3.6492,-3.6492,-3.6492,-3.6492,-3.6492,-3.6492,-3.6492,-3.6492,-3.6492,-3.6492,-3.6492,-3.6492,-3.6492,-3.6492,-3.6492,-3.646,-3.632,-3.6195,-3.6068,-3.6005,-3.5589,-3.518,-3.4898,-3.4631,-3.4448,-3.4414,-3.438,-3.438,-3.438,-3.438,-3.438,-3.438,-3.438,-3.438,-3.438,-3.438,-3.438,-3.438,-3.438,-3.438,-3.4777,-3.5468,-3.6006,-3.623,-3.6495,-3.6835,-3.6322,-3.579,-3.5426,-3.4936,-3.4384,-3.3894,-3.3683,-3.3526,-3.3398,-3.3326,-3.3326,-3.3283,-3.3167,-3.3124,-3.3124,-3.3124,-3.3124,-3.2982,-3.284,-3.2711,-3.2593,-3.2463,-3.2288,-3.2113,-3.1981,-3.1893,-3.1849,-3.1761,-3.116,-3.0397,-3.008,-2.95,-2.8642,-2.7846,-2.7336,-2.6862,-3.9315,-3.9315,-3.9315,-3.9342,-3.9309,-3.9137,-3.8694,-3.823,-3.7915,-3.7387,-3.6816,-3.6785,-3.6677,-3.6523,-3.6492,-3.6492,-3.6492,-3.6492,-3.6492,-3.6492,-3.6492,-3.6492,-3.6492,-3.6492,-3.6492,-3.6492,-3.6492,-3.6492,-3.6492,-3.6492,-3.6492,-3.6492,-3.6492,-3.6492,-3.6492,-3.6492,-3.6492,-3.6492,-3.6492,-3.6492,-3.6492,-3.6492,-3.6492,-3.6492,-3.6492,-3.6492,-3.6492,-3.6492,-3.6383,-3.6211,-3.61,-3.5878,-3.5686,-3.518,-3.485,-3.4597,-3.4515,-3.4414,-3.438,-3.438,-3.438,-3.438,-3.438,-3.438,-3.438,-3.438,-3.438,-3.438,-3.438,-3.438,-3.438,-3.438,-3.438,-3.4409,-3.5189,-3.5942,-3.6222,-3.6409,-3.6111,-3.5534,-3.5155,-3.4799,-3.4343,-3.3839,-3.3543,-3.3471,-3.3356,-3.3227,-3.3197,-3.3197,-3.3197,-3.3124,-3.3124,-3.3124,-3.3081,-3.3038,-3.2896,-3.2766,-3.2605,-3.2475,-3.2257,-3.2081,-3.1893,-3.1849,-3.1805,-3.1629,-3.1306,-3.0623,-2.9932,-2.9577,-2.9071,-2.8225,-2.7636,-2.7401,-2.6945,-3.9315,-3.9315,-3.9325,-3.9395,-3.9405,-3.8931,-3.875,-3.8832,-3.8583,-3.8075,-3.7314,-3.7164,-3.6877,-3.6585,-3.6523,-3.6492,-3.6492,-3.6492,-3.6492,-3.6492,-3.6492,-3.6492,-3.6492,-3.6492,-3.6492,-3.6492,-3.6492,-3.6492,-3.6492,-3.6492,-3.6492,-3.6492,-3.6492,-3.6492,-3.6492,-3.6492,-3.6492,-3.6492,-3.6492,-3.6492,-3.6492,-3.6492,-3.6492,-3.6492,-3.6492,-3.6492,-3.6492,-3.646,-3.6414,-3.6211,-3.599,-3.5671,-3.5133,-3.4817,-3.4549,-3.4448,-3.4414,-3.4414,-3.438,-3.438,-3.438,-3.438,-3.438,-3.438,-3.438,-3.438,-3.438,-3.438,-3.438,-3.438,-3.438,-3.438,-3.438,-3.4513,-3.503,-3.5265,-3.518,-3.543,-3.5439,-3.495,-3.4551,-3.423,-3.4105,-3.3641,-3.3398,-3.3313,-3.3227,-3.3154,-3.3111,-3.3124,-3.3038,-3.3038,-3.2995,-3.2952,-3.2909,-3.2822,-3.2766,-3.268,-3.2475,-3.23,-3.2025,-3.1849,-3.1717,-3.1528,-3.1306,-3.1026,-3.0668,-2.9943,-2.9301,-2.8839,-2.829,-2.7641,-2.7295,-2.7248,-2.7176,-3.9315,-3.9299,-3.9405,-3.9475,-3.9432,-3.9094,-3.9131,-3.9398,-3.8755,-3.8046,-3.7387,-3.7013,-3.6816,-3.6662,-3.6554,-3.6523,-3.6523,-3.6492,-3.6492,-3.6492,-3.6492,-3.6492,-3.6492,-3.6492,-3.6492,-3.6492,-3.6492,-3.6492,-3.6492,-3.6492,-3.6492,-3.6492,-3.6492,-3.6492,-3.6492,-3.6492,-3.6492,-3.6492,-3.6492,-3.6492,-3.6492,-3.6492,-3.6492,-3.6492,-3.6492,-3.6492,-3.6492,-3.6492,-3.6383,-3.6211,-3.5737,-3.5234,-3.4616,-3.4597,-3.4563,-3.4448,-3.438,-3.438,-3.438,-3.438,-3.438,-3.438,-3.438,-3.438,-3.438,-3.438,-3.438,-3.438,-3.438,-3.438,-3.438,-3.4346,-3.4302,-3.4571,-3.4847,-3.4552,-3.4292,-3.4511,-3.4761,-3.4468,-3.4076,-3.3865,-3.3781,-3.3526,-3.3283,-3.3167,-3.3167,-3.3081,-3.3038,-3.3038,-3.2853,-3.281,-3.281,-3.2766,-3.2692,-3.2605,-3.2605,-3.2431,-3.2213,-3.2038,-3.1849,-3.1617,-3.1395,-3.1038,-3.0713,-3.0397,-2.9943,-2.9209,-2.8617,-2.8196,-2.7925,-2.7415,-2.7214,-2.7152,-2.721,-3.9395,-3.9405,-3.9475,-3.9554,-3.9563,-3.9388,-3.9382,-3.9345,-3.8777,-3.816,-3.7623,-3.7284,-3.7029,-3.6846,-3.6662,-3.6585,-3.6585,-3.6523,-3.6492,-3.6492,-3.6492,-3.6492,-3.6492,-3.6492,-3.6492,-3.6492,-3.6492,-3.6492,-3.6492,-3.6492,-3.6492,-3.6492,-3.6492,-3.6492,-3.6492,-3.6492,-3.6492,-3.6492,-3.6492,-3.6492,-3.6492,-3.6492,-3.6492,-3.6492,-3.6492,-3.6492,-3.6492,-3.646,-3.6289,-3.5926,-3.5412,-3.4986,-3.4549,-3.4481,-3.4481,-3.4448,-3.438,-3.438,-3.438,-3.438,-3.438,-3.438,-3.438,-3.438,-3.438,-3.438,-3.438,-3.438,-3.438,-3.438,-3.4264,-3.4196,-3.3991,-3.4035,-3.45,-3.462,-3.4556,-3.4646,-3.4662,-3.4439,-3.4105,-3.3797,-3.3641,-3.3398,-3.3154,-3.2896,-3.2896,-3.2865,-3.2865,-3.2865,-3.268,-3.2593,-3.2537,-3.255,-3.2531,-3.2444,-3.24,-3.2181,-3.1994,-3.1849,-3.1705,-3.135,-3.1038,-3.0578,-3.0125,-2.9715,-2.9163,-2.8571,-2.8149,-2.7773,-2.7594,-2.732,-2.7167,-2.7023,-2.6976,-3.9511,-3.9528,-3.9554,-3.9616,-3.9677,-3.9599,-3.9451,-3.9179,-3.8678,-3.8274,-3.7915,-3.7714,-3.7405,-3.7075,-3.6816,-3.6754,-3.6662,-3.6616,-3.6554,-3.6492,-3.6492,-3.6492,-3.6492,-3.6492,-3.6492,-3.6492,-3.6492,-3.6492,-3.6492,-3.6492,-3.6492,-3.6492,-3.6492,-3.6492,-3.6492,-3.6492,-3.6492,-3.6492,-3.6492,-3.6492,-3.6492,-3.6492,-3.6492,-3.6492,-3.6492,-3.646,-3.646,-3.6367,-3.6116,-3.5703,-3.5151,-3.4769,-3.4515,-3.4414,-3.4414,-3.438,-3.438,-3.438,-3.438,-3.438,-3.438,-3.438,-3.438,-3.438,-3.438,-3.4312,-3.4312,-3.4264,-3.4264,-3.4196,-3.4059,-3.3839,-3.3597,-3.341,-3.3905,-3.4489,-3.45,-3.4611,-3.4483,-3.4301,-3.4021,-3.3713,-3.3471,-3.327,-3.3013,-3.2754,-3.2624,-3.255,-3.2519,-3.2519,-3.2463,-3.2376,-3.2332,-3.2344,-3.2313,-3.2169,-3.2081,-3.2038,-3.1849,-3.1749,-3.1516,-3.0892,-3.0397,-3.0034,-2.9623,-2.9071,-2.8653,-2.8113,-2.7726,-2.7441,-2.7262,-2.7129,-2.7023,-2.688,-2.6688,-3.9651,-3.9677,-3.9755,-3.9849,-3.9781,-3.9265,-3.9115,-3.9152,-3.8201,-3.7815,-3.7902,-3.7655,-3.7375,-3.7134,-3.7014,-3.6862,-3.6693,-3.6631,-3.6585,-3.6523,-3.6492,-3.6492,-3.6492,-3.6492,-3.6492,-3.6492,-3.6492,-3.6492,-3.6492,-3.6492,-3.6492,-3.6492,-3.6492,-3.6492,-3.6492,-3.6492,-3.6492,-3.6492,-3.6492,-3.6492,-3.6492,-3.6492,-3.6492,-3.6492,-3.6492,-3.6336,-3.6195,-3.61,-3.5816,-3.5462,-3.507,-3.4702,-3.4515,-3.438,-3.438,-3.438,-3.438,-3.438,-3.438,-3.438,-3.438,-3.438,-3.438,-3.438,-3.4278,-3.3991,-3.3908,-3.3805,-3.377,-3.3701,-3.3528,-3.3129,-3.2874,-3.2641,-3.285,-3.3447,-3.3804,-3.4031,-3.4152,-3.3995,-3.3781,-3.3513,-3.3386,-3.3142,-3.2884,-3.2723,-3.2593,-3.2463,-3.23,-3.23,-3.2257,-3.2169,-3.2113,-3.1981,-3.1849,-3.1749,-3.1661,-3.1705,-3.1572,-3.1205,-3.0758,-3.0114,-2.9715,-2.9393,-2.8885,-2.8384,-2.7972,-2.7736,-2.7594,-2.7357,-2.7081,-2.6938,-2.6842,-2.6582,-2.6294]},{"header":{"parameterUnit":"m.s-1","parameterCategory":1,"la1":31.0,"la2":29.5877,"lo1":-88.7671,"lo2":-86.6584,"dx":0.0162,"dy":0.0185,"nx":115,"ny":88,"refTime":"2023-01-06T06:00:00:Z","depth":0,"parameterNumber":3,"parameterNumberName":"V-component_of_WINDS"},"data":[0.0,0.0,0.0,0.0,0.0,0.0,0.0,0.0,0.0,0.0,0.0,0.0,0.0,0.0,0.0,0.0,0.0,0.0,0.0,0.0,0.0,0.0,0.0,0.0,0.0,0.0,0.0,0.0,0.0,0.0,0.0,0.0,0.0,0.0,0.0,0.0,0.0,0.0,0.0,0.0,0.0,0.0,0.0,0.0,0.0,0.0,0.0,0.0,0.0,0.0,0.0,0.0,0.0,0.0,0.0,0.0,0.0,0.0,0.0,0.0,0.0,0.0,0.0,0.0,0.0,0.0,0.0,0.0,0.0,0.0,0.0,0.0,0.0,0.0,0.0,0.0,0.0,0.0,0.0,0.0,0.0,0.0,0.0,0.0,0.0,0.0,0.0,0.0,0.0,0.0,0.0,0.0,0.0,0.0,0.0,0.0,0.0,0.0,0.0,0.0,0.0,0.0,0.0,0.0,0.0,0.0,0.0,0.0,0.0,0.0,0.0,0.0,0.0,0.0,0.0,0.0,0.0,0.0,0.0,0.0,0.0,0.0,0.0,0.0,0.0,0.0,0.0,0.0,0.0,0.0,0.0,0.0,0.0,0.0,0.0,0.0,0.0,0.0,0.0,0.0,0.0,0.0,0.0,0.0,0.0,0.0,0.0,0.0,0.0,0.0,0.0,0.0,0.0,0.0,0.0,0.0,0.0,0.0,0.0,0.0,0.0,0.0,0.0,0.0,0.0,0.0,0.0,0.0,0.0,0.0,0.0,0.0,0.0,0.0,0.0,0.0,0.0,0.0,0.0,0.0,0.0,0.0,0.0,0.0,0.0,0.0,0.0,0.0,0.0,0.0,0.0,0.0,0.0,0.0,0.0,0.0,0.0,0.0,0.0,0.0,0.0,0.0,0.0,0.0,0.0,0.0,0.0,0.0,0.0,0.0,0.0,0.0,0.0,0.0,0.0,0.0,0.0,0.0,0.0,0.0,0.0,0.0,0.0,0.0,0.0,0.0,0.0,0.0,0.0,0.0,0.0,0.0,0.0,0.0,0.0,0.0,0.0,0.0,0.0,0.0,0.0,0.0,0.0,0.0,0.0,0.0,0.0,0.0,0.0,0.0,0.0,0.0,0.0,0.0,0.0,0.0,0.0,0.0,0.0,0.0,0.0,0.0,0.0,0.0,0.0,0.0,0.0,0.0,0.0,0.0,0.0,0.0,0.0,0.0,0.0,0.0,0.0,0.0,0.0,0.0,0.0,0.0,0.0,0.0,0.0,0.0,0.0,0.0,0.0,0.0,0.0,0.0,0.0,0.0,0.0,0.0,0.0,0.0,0.0,0.0,0.0,0.0,0.0,0.0,0.0,0.0,0.0,0.0,0.0,0.0,0.0,0.0,0.0,0.0,0.0,0.0,0.0,0.0,0.0,0.0,0.0,0.0,0.0,0.0,0.0,0.0,0.0,0.0,0.0,0.0,0.0,0.0,0.0,0.0,0.0,0.0,0.0,0.0,0.0,0.0,0.0,0.0,0.0,0.0,0.0,0.0,0.0,0.0,0.0,0.0,0.0,0.0,0.0,0.0,0.0,0.0,0.0,0.0,0.0,0.0,0.0,0.0,0.0,0.0,0.0,0.0,0.0,0.0,0.0,0.0,0.0,0.0,0.0,0.0,0.0,0.0,0.0,0.0,0.0,0.0,0.0,0.0,0.0,0.0,0.0,0.0,0.0,0.0,0.0,0.0,0.0,0.0,0.0,0.0,0.0,0.0,0.0,0.0,0.0,0.0,0.0,0.0,0.0,0.0,0.0,0.0,0.0,0.0,0.0,0.0,0.0,0.0,0.0,0.0,0.0,0.0,0.0,0.0,0.0,0.0,0.0,0.0,0.0,0.0,0.0,0.0,0.0,0.0,0.0,0.0,0.0,0.0,0.0,0.0,0.0,0.0,0.0,0.0,0.0,0.0,0.0,0.0,0.0,0.0,0.0,0.0,0.0,0.0,0.0,0.0,0.0,0.0,0.0,0.0,0.0,0.0,0.0,0.0,0.0,0.0,0.0,0.0,0.0,0.0,0.0,0.0,0.0,0.0,0.0,0.0,0.0,0.0,0.0,0.0,0.0,0.0,0.0,0.0,0.0,0.0,0.0,0.0,0.0,0.0,0.0,0.0,0.0,0.0,0.0,0.0,0.0,0.0,0.0,0.0,0.0,0.0,0.0,0.0,0.0,0.0,0.0,0.0,0.0,0.0,0.0,0.0,0.0,0.0,0.0,0.0,0.0,0.0,0.0,0.0,0.0,0.0,0.0,0.0,0.0,0.0,0.0,0.0,0.0,0.0,0.0,0.0,0.0,0.0,0.0,0.0,0.0,0.0,0.0,0.0,0.0,0.0,0.0,0.0,0.0,0.0,0.0,0.0,0.0,0.0,0.0,0.0,0.0,0.0,0.0,0.0,0.0,0.0,0.0,0.0,0.0,0.0,0.0,0.0,0.0,0.0,0.0,0.0,0.0,0.0,0.0,0.0,0.0,0.0,0.0,0.0,0.0,0.0,0.0,0.0,0.0,0.0,0.0,0.0,0.0,0.0,0.0,0.0,0.0,0.0,0.0,0.0,0.0,0.0,0.0,0.0,0.0,0.0,0.0,0.0,0.0,0.0,0.0,0.0,0.0,0.0,0.0,0.0,0.0,0.0,0.0,0.0,0.0,0.0,0.0,0.0,0.0,0.0,0.0,0.0,0.0,0.0,0.0,0.0,0.0,0.0,0.0,0.0,0.0,0.0,0.0,0.0,0.0,0.0,0.0,0.0,0.0,0.0,0.0,0.0,0.0,0.0,0.0,0.0,0.0,0.0,0.0,0.0,0.0,0.0,0.0,0.0,0.0,0.0,0.0,0.0,0.0,0.0,0.0,0.0,0.0,0.0,0.0,0.0,0.0,0.0,0.0,0.0,0.0,0.0,0.0,0.0,0.0,0.0,0.0,0.0,0.0,0.0,0.0,0.0,0.0,0.0,0.0,0.0,0.0,0.0,0.0,0.0,0.0,0.0,0.0,0.0,0.0,0.0,0.0,0.0,0.0,0.0,0.0,0.0,0.0,0.0,0.0,0.0,0.0,0.0,0.0,0.0,0.0,0.0,0.0,0.0,0.0,0.0,0.0,0.0,0.0,0.0,0.0,0.0,0.0,0.0,0.0,0.0,0.0,0.0,0.0,0.0,0.0,0.0,0.0,0.0,0.0,0.0,0.0,0.0,0.0,0.0,0.0,0.0,0.0,0.0,0.0,0.0,0.0,0.0,0.0,0.0,0.0,0.0,0.0,0.0,0.0,0.0,0.0,0.0,0.0,0.0,0.0,0.0,0.0,0.0,0.0,0.0,0.0,0.0,0.0,0.0,0.0,0.0,0.0,0.0,0.0,0.0,0.0,0.0,0.0,0.0,0.0,0.0,0.0,0.0,0.0,0.0,0.0,0.0,0.0,0.0,0.0,0.0,0.0,0.0,0.0,0.0,0.0,0.0,0.0,0.0,0.0,0.0,0.0,0.0,0.0,0.0,0.0,0.0,0.0,0.0,0.0,0.0,0.0,0.0,0.0,0.0,0.0,0.0,0.0,0.0,0.0,0.0,0.0,0.0,0.0,0.0,0.0,0.0,0.0,0.0,0.0,0.0,0.0,0.0,0.0,0.0,0.0,0.0,0.0,0.0,0.0,0.0,0.0,0.0,0.0,0.0,0.0,0.0,0.0,0.0,0.0,0.0,0.0,0.0,0.0,0.0,0.0,0.0,0.0,0.0,0.0,0.0,0.0,0.0,0.0,0.0,0.0,0.0,0.0,0.0,0.0,0.0,0.0,0.0,0.0,0.0,0.0,0.0,0.0,0.0,0.0,0.0,0.0,0.0,0.0,0.0,0.0,0.0,0.0,0.0,0.0,0.0,0.0,0.0,0.0,0.0,0.0,0.0,0.0,0.0,0.0,0.0,0.0,0.0,0.0,0.0,0.0,0.0,0.0,0.0,0.0,0.0,0.0,0.0,0.0,0.0,0.0,0.0,0.0,0.0,0.0,0.0,0.0,0.0,0.0,0.0,0.0,0.0,0.0,0.0,0.0,0.0,0.0,0.0,0.0,0.0,0.0,0.0,0.0,0.0,0.0,0.0,0.0,0.0,0.0,0.0,0.0,0.0,0.0,0.0,0.0,0.0,0.0,0.0,0.0,0.0,0.0,0.0,0.0,0.0,0.0,0.0,0.0,0.0,0.0,0.0,0.0,0.0,0.0,0.0,0.3546,0.0,0.0,0.0,0.2909,0.0,0.0,0.0,0.0,0.0,0.0,0.0,0.0,0.0,0.0,0.0,0.0,0.0,0.0,0.0,0.0,0.0,0.0,0.0,0.0,0.0,0.0,0.0,0.0,0.0,0.0,0.0,0.0,0.0,0.0,0.0,0.0,0.0,0.0,0.0,0.0,0.0,0.0,0.0,0.0,0.0,0.0,0.0,0.0,0.0,0.0,0.0,0.0,0.0,0.0,0.0,0.0,0.0,0.0,0.0,0.0,0.0,0.0,0.0,0.0,0.0,0.0,0.0,0.0,0.0,0.0,0.0,0.0,0.0,0.0,0.0,0.0,0.0,0.0,0.0,0.0,0.0,0.0,0.0,0.0,0.0,0.0,0.0,0.0,0.0,0.0,0.0,0.0,0.0,0.0,0.0,0.0,0.0,0.0,0.0,0.0,0.0,0.0,0.0,0.0,0.0,0.0,0.0,0.0,0.0,0.0,0.0,0.0,0.0,0.0,0.3638,0.3512,0.3306,0.3106,0.2909,0.0,0.0,0.0,0.0,0.0,0.0,0.0,0.0,0.0,0.0,0.0,0.0,0.0,0.0,0.0,0.0,0.0,0.0,0.0,0.0,0.0,0.0,0.0,0.0,0.0,0.0,0.0,0.0,0.0,0.0,0.0,0.0,0.0,0.0,0.0,0.0,0.0,0.0,0.0,0.0,0.0,0.0,0.0,0.0,0.0,0.0,0.0,0.0,0.0,0.0,0.0,0.0,0.0,0.0,0.0,0.0,0.0,0.0,0.0,0.0,0.0,0.0,0.0,0.0,0.0,0.0,0.0,0.0,0.0,0.0,0.0,0.0,0.0,0.0,0.0,0.0,0.0,0.0,0.0,0.0,0.0,0.0,0.0,0.0,0.0,0.0,0.0,0.0,0.0,0.0,0.0,0.0,0.0,0.0,0.0,0.0,0.0,0.0,0.0,0.0,0.0,0.0,0.0,0.0,0.0,0.0,0.0,0.0,0.0,0.0,0.0,0.0,0.361,0.3394,0.3195,0.0,0.0,0.0,0.0,0.0,0.0,0.0,0.0,0.0,0.0,0.0,0.0,0.0,0.0,0.0,0.0,0.0,0.0,0.0,0.0,0.0,0.0,0.0,0.0,0.0,0.0,0.0,0.0,0.0,0.0,0.0,0.0,0.0,0.0,0.0,0.0,0.0,0.0,0.0,0.0,0.0,0.0,0.0,0.0,0.0,0.0,0.0,0.0,0.0,0.0,0.0,0.0,0.0,0.0,0.0,0.0,0.0,0.0,0.0,0.0,0.0,0.0,0.0,0.0,0.0,0.0,0.0,0.0,0.0,0.0,0.0,0.0,0.0,0.0,0.0,0.0,0.0,0.0,0.0,0.0,0.0,0.0,0.0,0.0,0.0,0.0,0.0,0.0,0.0,0.0,0.0,0.0,0.0,0.0,0.0,0.0,0.0,0.0,0.0,0.0,0.0,0.0,0.0,0.0,0.0,0.0,0.0,0.0,0.0,0.0,0.4688,0.4692,0.4428,0.0,0.4019,0.0,0.0,0.0,0.0,0.0,0.0,0.0,0.0,0.0,0.0,0.0,0.0,0.0,0.0,0.0,0.0,0.0,0.0,0.0,0.0,0.0,0.0,0.0,0.0,0.0,0.0,0.0,0.0,0.0,0.0,0.0,0.0,0.0,0.0,0.0,0.0,0.0,0.0,0.0,0.0,0.0,0.0,0.0,0.0,0.0,0.0,0.0,0.0,0.0,0.0,0.0,0.0,0.0,0.0,0.0,0.0,0.0,0.0,0.0,0.0,0.0,0.0,0.0,0.0,0.0,0.0,0.0,0.0,0.0,0.0,0.0,0.0,0.0,0.0,0.0,0.0,0.0,0.0,0.0,0.0,0.0,0.0,0.0,0.0,0.0,0.0,0.0,0.0,0.0,0.0,0.0,0.0,0.0,0.0,0.0,0.0,0.0,0.0,0.0,0.0,0.0,0.0,0.0,0.0,0.0,0.0,0.0,0.0,0.0,0.0,0.5175,0.4796,0.4544,0.4337,0.0,0.0,0.0,0.0,0.0,0.0,0.0,0.0,0.0,0.0,0.0,0.0,0.0,0.0,0.0,0.0,0.0,0.0,0.0,0.0,0.0,0.0,0.0,0.0,0.0,0.0,0.0,0.0,0.0,0.0,0.0,0.0,0.0,0.0,0.0,0.0,0.0,0.0,0.0,0.0,0.0,0.0,0.0,0.0,0.0,0.0,0.0,0.0,0.0,0.0,0.0,0.0,0.0,0.0,0.0,0.0,0.0,0.0,0.0,0.0,0.0,0.0,0.0,0.0,0.0,0.0,0.0,0.0,0.0,0.0,0.0,0.0,0.0,0.0,0.0,0.0,0.0,0.0,0.0,0.0,0.0,0.0,0.0,0.0,0.0,0.0,0.0,0.0,0.0,0.0,0.0,0.0,0.0,0.0,0.0,0.0,0.0,0.0,0.0,0.0,0.0,0.0,0.0,0.0,0.0,0.0,0.0,0.0,0.0,0.0,0.5766,0.5587,0.5074,0.4842,0.4657,0.4487,0.0,0.0,0.0,0.0,0.0,0.0,0.0,0.0,0.0,0.0,0.0,0.0,0.0,0.0,0.0,0.0,0.0,0.0,0.0,0.0,0.0,0.0,0.0,0.0,0.0,0.0,0.0,0.0,0.0,0.0,0.0,0.0,0.0,0.0,0.0,0.0,0.0,0.0,0.0,0.0,0.0,0.0,0.0,0.0,0.0,0.0,0.0,0.0,0.0,0.0,0.0,0.0,0.0,0.0,0.0,0.0,0.0,0.0,0.0,0.0,0.0,0.0,0.0,0.0,0.0,0.0,0.0,0.0,0.0,0.0,0.0,0.0,0.0,0.0,0.0,0.0,0.0,0.0,0.0,0.0,0.0,0.0,0.0,0.0,0.0,0.0,0.0,0.0,0.0,0.0,0.0,0.0,0.0,0.0,0.0,0.0,0.0,0.0,0.0,0.0,0.0,0.0,0.0,0.0,0.0,0.0,0.0,0.0,0.6002,0.6108,0.6007,0.5657,0.5582,0.5356,0.0,0.0,0.0,0.0,0.0,0.0,0.0,0.0,0.0,0.0,0.0,0.0,0.0,0.0,0.0,0.0,0.0,0.0,0.0,0.0,0.0,0.0,0.0,0.0,0.0,0.0,0.0,0.0,0.0,0.0,0.0,0.0,0.0,0.0,0.0,0.0,0.0,0.0,0.0,0.0,0.0,0.0,0.0,0.0,0.0,0.0,0.0,0.0,0.0,0.0,0.0,0.0,0.0,0.0,0.0,0.0,0.0,0.0,0.0,0.0,0.0,0.0,0.0,0.0,0.0,0.0,0.0,0.0,0.0,0.0,0.0,0.0,0.0,0.0,0.0,0.0,0.0,0.0,0.0,0.0,0.0,0.0,0.0,0.0,0.0,0.0,0.0,0.0,0.0,0.0,0.0,0.0,0.0,0.0,0.0,0.0,0.0,0.0,0.0,0.0,0.0,0.0,0.0,0.0,0.0,0.0,0.0,0.0,0.0,0.6266,0.6063,0.5897,0.5846,0.5772,0.5577,0.0,0.0,0.0,0.0,0.0,0.0,0.0,0.0,0.0,0.0,0.0,0.0,0.0,0.0,0.0,0.0,0.0,0.0,0.0,0.0,0.0,0.0,0.0,0.0,0.0,0.0,0.0,0.0,0.0,0.0,0.0,0.0,0.0,0.0,0.0,0.0,0.0,0.0,0.0,0.0,0.0,0.0,0.0,0.0,0.0,0.0,0.0,0.0,0.0,0.0,0.0,0.0,0.0,0.0,0.0,0.0,0.0,0.0,0.0,0.0,0.0,0.0,0.0,0.0,0.0,0.0,0.0,0.0,0.0,0.0,0.0,0.0,0.0,0.0,0.0,0.0,0.0,0.0,0.0,0.0,0.0,0.0,0.0,0.0,0.0,0.0,0.0,0.0,0.0,0.0,0.0,0.0,0.0,0.0,0.0,0.0,0.0,0.0,0.0,0.0,0.0,0.0,0.0,0.0,0.0,0.0,0.0,0.0,0.0,0.6615,0.6246,0.6026,0.5984,0.5911,0.5656,0.0,0.0,0.0,0.0,0.0,0.0,0.0,0.0,0.0,0.0,0.0,0.0,0.0,0.0,0.0,0.0,0.0,0.0,0.0,0.0,0.0,0.0,0.0,0.0,0.0,0.0,0.0,0.0,0.0,0.0,0.0,0.0,0.0,0.0,0.0,0.0,0.0,0.0,0.0,0.0,0.0,0.0,0.0,0.0,0.0,0.0,0.0,0.0,0.0,0.0,0.0,0.0,0.0,0.0,0.0,0.0,0.0,0.0,0.0,0.0,0.0,0.0,0.0,0.0,0.0,0.0,0.0,0.0,0.0,0.0,0.0,0.0,0.0,0.0,0.0,0.0,0.0,0.0,0.0,0.0,0.0,0.0,0.0,0.0,0.0,0.0,0.0,0.0,0.0,0.0,0.0,0.0,0.0,0.0,0.0,0.0,0.0,0.0,0.0,0.0,0.0,0.0,0.0,0.0,0.0,0.0,0.0,0.0,0.7051,0.7074,0.6677,0.6406,0.6199,0.6072,0.5669,0.0,0.0,0.0,0.0,0.0,0.0,0.0,0.0,0.0,0.0,0.0,0.0,0.0,0.0,0.0,0.0,0.0,0.0,0.0,0.0,0.0,0.0,0.0,0.0,0.0,0.0,0.0,0.0,0.0,0.0,0.0,0.0,0.0,0.0,0.0,0.0,0.0,0.0,0.0,0.0,0.0,0.0,0.0,0.0,0.0,0.0,0.0,0.0,0.0,0.0,0.0,0.0,0.0,0.0,0.0,0.0,0.0,0.0,0.0,0.0,0.0,0.0,0.0,0.0,0.0,0.0,0.0,0.0,0.0,0.0,0.0,0.0,0.0,0.0,0.0,0.0,0.0,0.0,0.0,0.0,0.0,0.0,0.0,0.0,0.0,0.0,0.0,0.0,0.0,0.0,0.0,0.0,0.0,0.0,0.0,0.0,0.0,0.0,0.0,0.0,0.0,0.0,0.0,0.0,0.0,0.0,0.0,0.0,0.0,0.6834,0.6741,0.6646,0.6471,0.6247,0.5947,0.0,0.0,0.0,0.0,0.0,0.0,0.0,0.0,0.0,0.0,0.0,0.0,0.0,0.0,0.0,0.0,0.0,0.0,0.0,0.0,0.0,0.0,0.0,0.0,0.0,0.0,0.0,0.0,0.0,0.0,0.0,0.0,0.0,0.0,0.0,0.0,0.0,0.0,0.0,0.0,0.0,0.0,0.0,0.0,0.0,0.0,0.0,0.0,0.0,0.0,0.0,0.0,0.0,0.0,0.0,0.0,0.0,0.0,0.0,0.0,0.0,0.0,0.0,0.0,0.0,0.0,0.0,0.0,0.0,0.0,0.0,0.0,0.0,0.0,0.0,0.0,0.0,0.0,0.0,0.0,0.0,0.0,0.0,0.0,0.0,0.0,0.0,0.0,0.0,0.0,0.0,0.0,0.0,0.0,0.0,0.0,0.0,0.0,0.0,0.0,0.0,0.0,0.0,0.0,0.0,0.0,0.0,0.0,0.0,0.7255,0.7203,0.7091,0.6876,0.6529,0.6164,0.5812,0.0,0.0,0.0,0.0,0.0,0.0,0.0,0.0,0.0,0.0,0.0,0.0,0.0,0.0,0.0,0.0,0.0,0.0,0.0,0.0,0.0,0.0,0.0,0.0,0.0,0.0,0.0,0.0,0.0,0.0,0.0,0.0,0.0,0.0,0.0,0.0,0.0,0.0,0.0,0.0,0.0,0.0,0.0,0.0,0.0,0.0,0.0,0.0,0.0,0.0,0.0,0.0,0.0,0.0,0.0,0.0,0.0,0.0,0.0,0.0,0.0,0.0,0.0,0.0,0.0,0.0,0.0,0.0,0.0,0.0,0.0,0.0,0.0,0.0,0.0,0.0,0.0,0.0,0.0,0.0,0.0,0.0,0.0,0.0,0.0,0.0,0.0,0.0,0.0,0.0,0.0,0.0,0.0,0.0,0.0,0.0,0.0,0.0,0.0,0.0,0.0,0.0,0.0,0.0,0.0,0.0,0.0,0.0,0.8172,0.8026,0.7758,0.7349,0.6901,0.6401,0.0,0.0,0.0,0.0,0.0,0.0,0.0,0.0,0.0,0.0,0.0,0.0,0.0,0.0,0.0,0.0,0.0,0.0,0.0,0.0,0.0,0.0,0.0,0.0,0.0,0.0,0.0,0.0,0.0,0.0,0.0,0.0,0.0,0.0,0.0,0.0,0.0,0.0,0.0,0.0,0.0,0.0,0.0,0.0,0.0,0.0,0.0,0.0,0.0,0.0,0.0,0.0,0.0,0.0,0.0,0.0,0.0,0.0,0.0,0.0,0.0,0.0,0.0,0.0,0.0,0.0,0.0,0.0,0.0,0.0,0.0,0.0,0.0,0.0,0.0,0.0,0.0,0.0,0.0,0.0,0.0,0.0,0.0,0.0,0.0,0.0,0.0,0.0,0.0,0.0,0.0,0.0,0.0,0.0,0.0,0.0,0.0,0.0,0.0,0.0,0.0,0.0,0.0,0.0,0.0,0.0,0.0,0.0,0.0,0.9016,0.8842,0.8438,0.7917,0.7393,0.6923,0.0,0.0,0.0,0.0,0.0,0.0,0.0,0.0,0.0,0.0,0.0,0.0,0.0,0.0,0.0,0.0,0.0,0.0,0.0,0.0,0.0,0.0,0.0,0.0,0.0,0.0,0.0,0.0,0.0,0.0,0.0,0.0,0.0,0.0,0.0,0.0,0.0,0.0,0.0,0.0,0.0,0.0,0.0,0.0,0.0,0.0,0.0,0.0,0.0,0.0,0.0,0.0,0.0,0.0,0.0,0.0,0.0,0.0,0.0,0.0,0.0,0.0,0.0,0.0,0.0,0.0,0.0,0.0,0.0,0.0,0.0,0.0,0.0,0.0,0.0,0.0,0.0,0.0,0.0,0.0,0.0,0.0,0.0,0.0,0.0,0.0,0.0,0.0,0.0,0.0,0.0,0.0,0.0,0.0,0.0,0.0,0.0,0.0,0.0,0.0,0.0,0.0,0.0,0.0,0.0,0.0,0.0,0.0,0.9098,0.9669,0.953,0.9191,0.8737,0.8153,0.7555,0.0,0.0,0.0,0.0,0.0,0.0,0.0,0.0,0.0,0.0,0.0,0.0,0.0,0.0,0.0,0.0,0.0,0.0,0.0,0.0,0.0,0.0,0.0,0.0,0.0,0.0,0.0,0.0,0.0,0.0,0.0,0.0,0.0,0.0,0.0,0.0,0.0,0.0,0.0,0.0,0.0,0.0,0.0,0.0,0.0,0.0,0.0,0.0,0.0,0.0,0.0,0.0,0.0,0.0,0.0,0.0,0.0,0.0,0.0,0.0,0.0,0.0,0.0,0.0,0.0,0.0,0.0,0.0,0.0,0.0,0.0,0.0,0.0,0.0,0.0,0.0,0.0,0.0,0.0,0.0,0.0,0.0,0.0,0.0,0.0,0.0,0.0,0.0,0.0,0.0,0.0,0.0,0.0,0.0,0.0,0.0,0.0,0.0,0.0,0.0,0.0,0.0,0.0,0.0,0.0,0.0,0.0,0.0,0.9769,1.0221,1.0182,1.0026,0.9754,0.9049,0.8209,0.0,0.0,0.0,0.0,0.0,0.0,0.0,0.0,0.0,0.0,0.0,0.0,0.0,0.0,0.0,0.0,0.0,0.0,0.0,0.0,0.0,0.0,0.0,0.0,0.0,0.0,0.0,0.0,0.0,0.0,0.0,0.0,0.0,0.0,0.0,0.0,0.0,0.0,0.0,0.0,0.0,0.0,0.0,0.0,0.0,0.0,0.0,0.0,0.0,0.0,0.0,0.0,0.0,0.0,0.0,0.0,0.0,0.0,0.0,0.0,0.0,0.0,0.0,0.0,0.0,0.0,0.0,0.0,0.0,0.0,0.0,0.0,0.0,0.0,0.0,0.0,0.0,0.0,0.0,0.0,0.0,0.0,0.0,0.0,0.0,0.0,0.0,0.0,0.0,0.0,0.0,0.0,0.0,0.0,0.0,0.0,0.0,0.0,0.0,0.0,0.0,0.0,0.0,0.0,0.0,0.0,0.0,0.0,1.0623,1.1122,1.1169,1.1091,1.0838,0.9706,0.8652,0.0,0.0,0.0,0.0,0.0,0.0,0.0,0.0,0.0,0.0,0.0,0.0,0.0,0.0,0.0,0.0,0.0,0.0,0.0,0.0,0.0,0.0,0.0,0.0,0.0,0.0,0.0,0.0,0.0,0.0,0.0,0.0,0.0,0.0,0.0,0.0,0.0,0.0,0.0,0.0,0.0,0.0,0.0,0.0,0.0,0.0,0.0,0.0,0.9182,0.0,0.0,0.0,0.0,0.0,0.0,0.0,0.0,0.0,0.0,0.0,0.0,0.0,0.0,0.0,0.0,0.0,0.0,0.0,0.0,0.0,0.0,0.0,0.0,0.0,0.0,0.0,0.0,0.0,0.0,0.0,0.0,0.0,0.0,0.0,0.0,0.0,0.0,0.0,0.0,0.0,0.0,0.0,0.0,0.0,0.0,0.0,0.0,0.0,0.0,0.0,0.0,0.0,0.0,0.0,0.0,0.0,0.0,0.0,1.1391,1.1935,1.1849,1.1794,1.1819,1.0894,0.9818,0.0,0.0,0.0,0.0,0.0,0.0,0.0,0.0,0.0,0.0,0.0,0.0,0.0,0.0,0.0,0.0,0.0,0.0,0.0,0.0,0.0,0.0,0.0,0.0,0.0,0.0,0.0,0.0,0.0,0.0,0.0,0.0,0.0,0.0,0.0,0.0,0.0,0.0,0.0,0.0,0.0,0.0,0.0,0.0,0.0,0.0,0.0,0.0,0.0,0.0,0.0,0.0,0.0,0.0,0.0,0.0,0.0,0.0,0.0,0.0,0.0,0.0,0.0,0.0,0.0,0.0,0.0,0.0,0.0,0.0,0.0,0.0,0.0,0.0,0.0,0.0,0.0,0.0,0.0,0.0,0.0,0.0,0.0,0.0,0.0,0.0,0.0,0.0,0.0,0.0,0.0,0.0,0.0,0.0,0.0,0.0,0.0,0.0,0.0,0.0,0.0,0.0,0.0,0.0,0.0,0.0,0.0,1.1161,1.2163,1.2661,1.251,1.251,1.2724,1.2195,1.116,0.9637,0.0,0.0,0.0,0.0,0.0,0.0,0.0,0.0,0.0,0.0,0.0,0.0,0.0,0.0,0.0,0.0,0.0,0.0,0.0,0.0,0.0,0.0,0.0,0.0,0.0,0.0,0.0,0.0,0.0,0.0,0.0,0.0,0.0,0.0,0.0,0.0,0.0,0.0,0.8888,0.9406,0.0,0.0,0.0,0.0,0.0,0.0,0.0,0.0,1.0381,0.0,0.0,0.0,0.0,0.0,0.0,0.0,0.0,0.0,0.0,0.0,0.0,0.0,0.0,0.0,0.0,0.0,0.0,0.0,0.0,0.0,0.0,0.0,0.0,0.0,0.0,0.0,0.0,0.0,0.0,0.0,0.0,0.0,0.0,0.0,0.0,0.0,0.0,0.0,0.0,0.0,0.0,0.0,0.0,0.0,0.0,0.0,0.0,0.0,0.0,0.0,0.0,0.0,0.0,0.0,0.0,1.0456,1.1863,1.2827,1.3267,1.3583,1.3664,1.3435,1.2915,1.2016,1.078,0.0,0.0,0.0,0.0,0.0,0.0,0.0,0.0,0.0,0.0,0.0,0.0,0.0,0.0,0.0,0.0,0.0,0.0,0.0,0.0,0.0,0.0,0.0,0.0,0.0,0.0,0.0,0.0,0.0,0.0,0.0,0.0,0.0,0.0,0.0,0.0,0.0,0.0,0.0,1.0704,1.0985,0.0,0.0,0.0,0.0,0.0,0.0,0.0,0.0,1.1666,0.0,0.0,0.0,0.0,0.0,0.0,0.0,0.0,0.0,0.0,0.0,0.0,0.0,0.0,0.0,0.0,0.0,0.0,0.0,0.0,0.0,0.0,0.0,0.0,0.0,0.0,0.0,0.0,0.0,0.0,0.0,0.0,0.0,0.0,0.0,0.0,0.0,0.0,0.0,0.0,0.0,0.0,0.0,0.0,0.0,0.0,0.0,0.0,0.0,0.0,0.0,0.0,0.0,0.0,0.0,1.1015,1.2586,1.3647,1.4069,1.4289,1.4347,1.4167,1.3587,1.2648,0.0,0.0,0.0,0.0,0.0,0.0,0.0,0.0,0.0,0.0,0.0,0.0,0.0,0.0,0.0,0.0,0.0,0.0,0.0,0.0,0.0,0.0,0.0,0.0,0.0,0.0,0.0,0.0,0.0,0.0,0.0,0.0,0.0,0.0,0.0,0.0,0.0,0.0,0.0,0.0,1.1257,1.1479,1.1752,0.0,0.0,0.0,0.0,0.0,0.0,1.214,1.1901,0.0,0.0,0.0,0.0,0.0,0.0,0.0,0.0,0.0,0.0,0.0,0.0,0.0,0.0,0.0,0.0,0.0,0.0,0.0,0.0,0.0,0.0,0.0,0.0,0.0,0.0,0.0,0.0,0.0,0.0,0.0,0.0,0.0,0.0,0.0,0.0,0.0,0.0,0.0,0.0,0.0,0.0,0.0,0.0,0.0,0.0,0.0,0.0,0.0,0.0,0.0,0.0,0.0,0.0,0.0,1.1411,1.3184,1.4328,1.478,1.4866,1.4892,1.4791,1.4131,1.3057,0.0,0.0,0.0,0.0,0.0,0.0,0.0,0.0,0.0,0.0,0.0,0.0,0.0,0.0,0.0,0.0,0.0,0.0,0.0,0.0,0.0,0.0,0.0,0.0,0.0,0.0,0.0,0.0,0.0,0.0,0.0,0.0,0.0,0.0,0.0,0.0,0.0,0.0,0.0,0.0,0.0,1.189,1.2499,1.2101,0.0,0.0,0.0,0.0,1.2544,1.2573,0.0,0.0,0.0,0.0,0.0,0.0,0.0,0.0,0.0,0.0,0.0,0.0,0.0,0.0,0.0,0.0,0.0,0.0,0.0,0.0,0.0,0.0,0.0,0.0,0.0,0.0,0.0,0.0,0.0,0.0,0.0,0.0,0.0,0.0,0.0,0.0,0.0,0.0,0.0,0.0,0.0,0.0,0.0,0.0,0.0,0.0,0.0,0.0,0.0,0.0,0.0,0.0,0.0,0.0,0.0,0.0,1.1696,1.3485,1.4695,1.5124,1.5506,1.5498,1.5142,1.4316,1.3142,0.0,0.0,0.0,0.0,0.0,0.0,0.0,0.0,0.0,0.0,0.0,0.0,0.0,0.0,0.0,0.0,0.0,0.0,0.0,0.0,0.0,0.0,0.0,0.0,0.0,0.0,0.0,0.0,0.0,0.0,0.0,0.0,0.0,0.0,0.0,0.0,0.0,0.0,0.0,0.0,0.0,1.2454,1.3099,1.29,1.2636,0.0,0.0,1.3247,1.3354,1.3707,0.0,0.0,0.0,0.0,0.0,0.0,0.0,0.0,0.0,0.0,0.0,0.0,0.0,0.0,0.0,0.0,0.0,0.0,0.0,0.0,0.0,0.0,0.0,0.0,0.0,0.0,0.0,0.0,0.0,0.0,0.0,0.0,0.0,0.0,0.0,0.0,0.0,0.0,0.0,0.0,0.0,0.0,0.0,0.0,0.0,0.0,0.0,0.0,0.0,0.0,0.0,0.0,0.0,0.0,0.0,1.1408,1.2138,1.4148,1.5225,1.5313,1.5738,1.567,1.5068,1.4633,1.3576,0.0,0.0,0.0,0.0,0.0,0.0,0.0,0.0,0.0,0.0,0.0,0.0,0.0,0.0,0.0,0.0,0.0,0.0,0.0,0.0,0.0,0.0,0.0,0.0,0.0,0.0,0.0,0.0,0.0,0.0,0.0,0.0,0.0,0.0,0.0,0.0,0.0,0.0,0.0,0.0,0.0,0.0,1.4069,1.4142,0.0,0.0,0.0,1.4424,1.4471,0.0,0.0,0.0,0.0,0.0,0.0,0.0,0.0,0.0,0.0,0.0,0.0,0.0,0.0,0.0,0.0,0.0,0.0,0.0,0.0,0.0,0.0,0.0,0.0,0.0,0.0,0.0,0.0,0.0,0.0,0.0,0.0,0.0,0.0,0.0,0.0,0.0,0.0,0.0,0.0,0.0,0.0,0.0,0.0,0.0,0.0,0.0,0.0,0.0,0.0,0.0,0.0,0.0,0.0,0.0,0.0,0.0,1.2416,1.4593,1.5662,1.5582,1.6011,1.5858,1.5115,1.4949,0.0,0.0,0.0,0.0,0.0,0.0,0.0,0.0,0.0,0.0,0.0,0.0,0.0,0.0,0.0,0.0,0.0,0.0,0.0,0.0,0.0,0.0,0.0,0.0,0.0,0.0,0.0,0.7403,0.0,0.0,0.0,0.0,0.0,0.0,0.0,0.0,0.0,0.0,0.0,0.0,0.0,0.0,1.4081,1.5059,1.5364,1.5711,0.0,0.0,1.5588,1.5552,1.5739,1.5216,0.0,0.0,0.0,0.0,0.0,0.0,0.0,0.0,0.0,0.0,0.0,0.0,0.0,0.0,0.0,0.0,0.0,0.0,0.0,0.0,0.0,0.0,0.0,0.0,0.0,0.0,0.0,0.0,0.0,0.0,0.0,0.0,0.0,0.0,0.0,0.0,0.0,0.0,0.0,0.0,0.0,0.0,0.0,0.0,0.0,0.0,0.0,0.0,0.0,0.0,0.0,0.0,0.0,0.0,1.1564,1.2435,1.4567,1.5799,1.596,1.6376,1.6267,1.5675,1.5204,1.4131,0.0,0.0,0.0,0.0,0.0,0.0,0.0,0.0,0.0,0.0,0.0,0.0,0.0,0.0,0.0,0.0,0.0,0.0,0.0,0.0,0.0,0.0,0.0,0.0,0.0,0.0,0.0,0.0,0.0,0.0,0.0,0.0,0.0,0.0,0.0,0.0,0.0,0.0,0.0,0.0,0.0,1.425,1.5963,1.6329,1.6516,0.0,1.6725,1.6591,1.6579,1.6716,1.6385,1.5111,0.0,0.0,0.0,0.0,0.0,0.0,0.0,0.0,0.0,0.0,0.0,0.0,0.0,0.0,0.0,0.0,0.0,0.0,0.0,0.0,0.0,0.0,0.0,0.0,0.0,0.0,0.0,0.0,0.0,0.0,0.0,0.0,0.0,0.0,0.0,0.0,0.0,0.0,0.0,0.0,0.0,0.0,0.0,0.0,0.0,0.0,0.0,0.0,0.0,0.0,0.0,0.0,0.0,1.1851,1.2406,1.4909,1.6067,1.5831,1.6453,1.6403,1.561,1.5473,1.4541,0.0,0.0,0.0,0.0,0.0,0.0,0.0,0.0,0.0,0.0,0.0,0.0,0.0,0.0,0.0,0.0,0.0,0.0,0.0,0.0,0.0,0.0,0.0,0.0,0.0,0.0,0.0,0.0,1.0111,1.0291,0.9853,0.0,0.0,0.0,0.0,0.0,0.0,0.0,0.0,0.0,0.0,1.567,1.6608,1.7246,0.0,0.0,1.7908,1.7519,1.7066,1.7265,1.6894,1.5305,1.4756,0.0,0.0,0.0,0.0,0.0,0.0,0.0,0.0,0.0,0.0,0.0,0.0,0.0,0.0,0.0,0.0,0.0,0.0,0.0,0.0,0.0,0.0,0.0,0.0,0.0,0.0,0.0,0.0,0.0,0.0,0.0,0.0,0.0,0.0,0.0,0.0,0.0,0.0,0.0,0.0,0.0,0.0,0.0,0.0,0.0,0.0,0.0,0.0,0.0,0.0,0.0,0.0,1.2239,1.2916,1.535,1.6421,1.6086,1.6677,1.6603,1.5867,1.5722,1.4862,0.0,0.0,0.0,0.0,0.0,0.0,0.0,0.0,0.0,0.0,0.0,0.0,0.0,0.0,0.0,0.0,0.0,0.0,0.0,0.0,0.0,0.0,0.0,0.0,0.0,0.0,0.0,0.0,1.0654,1.0611,0.9871,0.0,0.0,0.0,0.0,0.0,0.0,0.0,0.0,0.0,0.0,1.6577,1.7113,1.7939,1.8533,1.8706,1.8614,1.8316,1.7762,1.7884,1.753,1.6078,0.0,0.0,0.0,0.0,0.0,0.0,0.0,0.0,0.0,0.0,0.0,0.0,0.0,0.0,0.0,0.0,0.0,0.0,0.0,0.0,0.0,0.0,0.0,0.0,0.0,0.0,0.0,0.8751,0.0,0.0,0.8356,0.0,0.0,0.0,0.0,0.0,0.0,0.0,0.0,0.0,0.0,0.0,0.0,0.0,0.0,0.0,0.0,0.0,0.0,0.0,0.0,0.0,0.0,1.2672,1.4048,1.5921,1.6888,1.6845,1.7073,1.6971,1.6585,1.6021,1.5041,1.3604,0.0,0.0,0.0,0.0,0.0,0.0,0.0,0.0,0.0,0.0,0.0,0.0,0.0,0.0,0.0,0.0,0.0,0.0,0.0,0.0,0.0,0.0,0.0,0.0,0.0,0.0,1.0129,1.0213,1.0003,0.0,0.0,0.0,0.0,0.0,0.0,0.0,0.0,0.0,1.3847,1.534,1.6644,1.7559,1.8322,1.8661,1.8255,1.8625,1.896,1.8765,1.8647,1.8412,0.0,0.0,0.0,0.0,0.0,0.0,0.0,0.0,0.0,0.0,0.0,0.0,0.0,0.0,0.0,0.0,0.0,0.0,0.0,0.0,0.0,0.0,0.0,0.0,0.0,0.0,0.0,1.0597,1.0292,0.0,0.0,0.0,0.0,0.0,0.0,0.0,0.0,0.0,0.0,0.0,1.3917,1.3937,0.0,0.0,0.0,0.0,0.0,0.0,0.0,0.0,0.0,0.0,0.0,0.0,1.3135,1.4153,1.6044,1.6978,1.6897,1.7218,1.7126,1.6613,1.6496,1.5585,1.3777,0.0,0.0,0.0,0.0,0.0,0.0,0.0,0.0,0.0,0.0,0.0,0.0,0.0,0.0,0.0,0.0,0.0,0.0,0.0,0.0,0.0,0.0,0.0,0.0,0.0,1.0099,0.0,0.0,0.0,0.0,0.0,0.0,0.0,0.0,0.0,0.0,1.2278,1.3616,1.4573,1.6173,1.7515,1.826,1.8783,1.9278,0.0,0.0,0.0,0.0,0.0,0.0,0.0,0.0,0.0,0.0,0.0,0.0,0.0,0.0,1.5294,1.4138,1.3716,1.344,1.3124,0.0,0.0,0.0,0.0,0.0,0.0,0.0,0.0,0.0,0.0,0.0,0.0,0.0,0.0,1.2145,0.0,1.1384,0.0,0.0,0.0,0.0,0.0,0.0,0.0,0.0,1.4501,1.5172,1.5436,1.5599,1.5751,0.0,1.5181,1.3957,0.0,0.0,0.0,0.0,0.0,0.0,0.0,0.0,1.3939,1.4946,1.6578,1.7388,1.7317,1.7464,1.7387,1.6977,1.6703,1.5921,1.4668,1.3344,1.2186,0.0,0.0,0.0,0.0,0.0,0.0,0.0,0.0,0.0,0.0,0.0,0.0,0.0,0.0,0.0,0.0,0.0,0.0,0.0,0.0,0.0,0.0,0.0,1.0905,0.0,0.0,0.0,0.0,0.0,0.0,0.0,0.0,0.0,1.2285,1.3483,1.4721,1.5729,1.7137,1.8284,1.8868,0.0,0.0,0.0,0.0,0.0,0.0,0.0,1.9421,1.912,1.8818,1.8554,1.8361,1.7901,1.7702,1.8213,0.0,0.0,1.6053,1.562,1.5467,1.5131,1.4963,1.4819,1.4704,1.5083,1.5431,0.0,0.0,0.0,0.0,0.0,0.0,0.0,0.0,1.3407,1.3442,0.0,1.2969,0.0,0.0,0.0,0.0,1.2636,1.3785,0.0,0.0,1.6799,1.7549,1.6981,1.7359,1.7788,1.8073,1.6597,1.6073,1.6345,1.4216,0.0,0.0,0.0,0.0,0.0,0.0,1.5076,1.6487,1.7484,1.7998,1.7998,1.7818,1.7706,1.7677,1.6619,1.6121,1.6107,1.411,1.2963,1.2997,1.1264,0.0,0.0,0.0,0.0,0.0,0.0,0.0,0.0,0.0,0.0,0.0,0.0,0.0,0.0,0.0,0.0,0.0,0.0,0.0,0.0,1.1604,0.0,0.0,0.0,0.0,0.0,0.0,0.0,0.0,0.0,1.3552,1.3748,1.4419,1.5518,1.7262,0.0,0.0,0.0,0.0,2.0557,2.0507,2.0844,2.0962,2.0615,2.0758,2.0852,2.0731,0.0,0.0,2.0528,2.0134,1.9909,2.0337,2.0482,2.0038,1.7951,1.7576,1.7388,1.6842,1.6757,1.6666,1.6691,1.7086,1.7375,1.5314,0.0,0.0,0.0,0.0,1.4563,1.502,1.5314,1.5657,1.5616,1.5263,1.4816,0.0,0.0,0.0,0.0,0.0,0.0,1.5815,1.6748,1.7791,1.8491,1.8949,1.9083,1.9383,1.9696,1.8826,1.8672,1.9039,1.8013,1.6214,1.3795,0.0,0.0,0.0,0.0,1.5999,1.7229,1.7766,1.8008,1.8008,1.794,1.7862,1.7706,1.7301,1.6793,1.6211,1.5584,1.4753,1.3738,1.2599,0.0,0.0,0.0,0.0,0.0,0.0,0.0,0.0,0.0,0.0,0.0,0.0,0.0,0.0,0.0,0.0,0.0,0.0,0.0,1.1125,1.2188,1.2466,0.0,0.0,0.0,0.0,0.0,0.0,0.0,0.0,0.0,1.6409,1.6333,1.6569,0.0,0.0,1.8779,1.9496,2.0057,2.0691,2.1565,2.1547,0.0,2.162,2.145,2.131,2.1282,2.1144,2.1101,2.1212,2.1047,2.0902,2.102,2.1172,2.1056,2.0501,2.0313,2.0199,2.0007,1.9918,1.9891,1.9811,1.9894,1.9955,1.7434,1.65,1.5873,1.5511,1.5442,1.6036,1.6438,1.6764,1.7041,1.7,1.6704,1.6504,1.6045,1.537,1.5018,0.0,0.0,0.0,1.7061,1.7719,1.8371,1.8891,1.9243,1.943,1.9751,2.012,1.9603,1.9647,2.0252,1.9616,1.8356,1.6508,0.0,1.5839,1.6325,1.6576,1.705,1.769,1.7994,1.8076,1.8008,1.8008,1.794,1.7818,1.7647,1.734,1.6802,1.6394,1.579,1.4907,1.3961,1.3173,0.0,0.0,0.0,0.0,0.0,0.0,0.0,0.0,0.0,0.0,0.0,0.8984,0.9064,0.0,0.0,0.0,1.1353,1.1957,1.2637,1.3371,0.0,0.0,0.0,0.0,0.0,0.0,0.0,1.4425,1.554,1.6647,1.7698,1.7626,1.7647,1.8163,1.8638,1.9168,1.9879,0.0,2.141,2.2237,2.2308,2.227,2.2355,2.232,2.2232,2.2133,2.206,2.2031,2.2105,2.206,2.2002,2.1956,2.2031,2.2117,2.206,2.2088,2.1942,2.1481,2.1394,2.1366,2.1294,2.1197,2.1181,1.9501,1.9008,1.7465,1.6923,1.7118,1.7268,1.7499,1.7792,1.7823,1.7823,1.7792,1.7967,1.7716,1.7097,1.7014,0.0,1.7389,1.7983,1.8154,1.7874,1.8766,1.8932,1.8559,1.8963,1.9399,1.9834,1.9409,1.9624,2.042,1.9833,1.969,1.9952,1.8965,1.8274,1.7957,1.8086,1.8139,1.8109,1.8255,1.8212,1.8008,1.8042,1.8052,1.8008,1.7886,1.7842,1.7789,1.6923,1.6405,1.6319,1.5348,1.4582,1.4206,0.0,0.0,0.0,0.0,0.0,0.0,0.0,0.0,0.0,0.0,0.0,0.0,0.0,0.0,0.0,1.3806,0.0,1.4812,1.4863,0.0,0.0,0.0,1.426,1.4557,1.4979,1.5419,1.5886,0.0,0.0,1.8083,1.8378,1.8673,1.9098,1.9458,1.9837,2.0323,2.1489,2.2438,2.2604,2.3155,2.3352,2.311,2.328,2.3402,2.3175,2.317,2.312,2.3045,2.3045,2.3022,2.2877,2.3017,2.304,2.2927,2.2942,2.2794,2.1845,2.1669,2.1656,2.1678,2.1606,2.1533,2.092,2.1067,1.9925,1.8884,1.7951,1.8207,1.8375,1.848,1.8782,1.874,1.848,1.8628,1.8415,1.792,1.8266,1.8425,1.8521,1.903,1.9221,1.9188,1.958,1.9721,1.9617,1.9609,1.9831,2.0245,2.0151,2.0389,2.0938,2.113,2.1318,2.1502,2.0932,2.034,1.9744,1.9176,1.9127,1.965,1.8875,1.8313,1.8008,1.8405,1.8405,1.8008,1.8774,1.8931,1.8563,1.8305,1.8034,1.7735,1.6763,1.6177,1.6115,1.4459,0.0,0.0,0.0,0.0,0.0,0.0,0.0,0.0,0.0,1.1437,1.0881,0.0,1.332,0.0,1.4553,1.5282,1.4982,1.554,0.0,0.0,1.5425,1.5405,1.5487,1.6078,1.6647,1.7053,1.7679,1.8279,1.8823,1.921,1.957,1.981,1.9589,1.9638,2.0264,2.1415,2.2445,2.3016,2.3845,2.4412,2.4312,2.4394,2.4287,2.3853,2.3791,2.3653,2.3183,2.3095,2.3078,2.3047,2.3078,2.3078,2.3072,2.3078,2.3045,2.2782,2.2719,2.2719,2.2706,2.2677,2.2677,2.1543,2.1407,2.1074,2.0205,1.9071,1.9329,1.9469,1.9501,1.9901,1.9868,1.9479,1.9746,1.9656,1.9311,1.9772,1.9873,1.9608,1.9911,1.99,1.9626,1.9748,1.9841,1.9807,1.9939,2.0101,2.0222,2.0652,2.0938,2.1124,2.158,2.1835,2.1949,2.1699,2.1438,2.111,2.0142,1.9667,1.9806,1.9029,1.8516,1.8245,1.8674,1.8741,1.8405,1.9308,1.9594,1.9175,1.9164,1.9007,1.8692,1.797,1.7502,1.7366,1.6003,1.5081,0.0,0.0,0.0,0.0,0.0,0.0,0.0,0.0,0.0,0.0,0.0,1.4697,1.4783,1.5678,1.6218,1.5998,1.6417,1.6676,1.6596,1.6616,1.6686,1.6896,1.7175,1.7615,1.8195,1.864,1.9161,1.9665,2.0101,2.0501,2.0846,2.0722,2.0725,2.1124,2.2003,2.2874,2.3478,2.4275,2.48,2.48,2.48,2.4687,2.4431,2.4368,2.4224,2.391,2.386,2.386,2.3847,2.3847,2.3847,2.3835,2.3634,2.3496,2.3459,2.3271,2.312,2.3095,2.3095,2.3095,2.2055,2.1405,2.1589,2.1226,2.0489,2.0685,2.0607,2.0366,2.0784,2.072,2.0399,2.0784,2.0784,2.0571,2.1008,2.0912,2.0355,2.0474,2.0226,1.9671,1.9714,1.9736,1.9758,2.0185,2.0352,2.0281,2.1039,2.1324,2.1272,2.1617,2.1807,2.1835,2.1783,2.1866,2.2002,2.0945,2.0067,1.9412,1.9039,1.8741,1.8549,1.8975,1.9108,1.8908,1.9748,2.0074,1.9704,1.977,1.9694,1.942,1.8964,1.8585,1.8227,1.7352,1.6724,0.0,1.4788,0.0,0.0,0.0,0.0,0.0,0.0,0.0,0.0,1.5209,1.5726,1.6557,1.6944,1.7233,1.7388,1.7438,1.7563,1.7813,1.783,1.7988,1.8388,1.8311,1.8483,1.9254,1.9538,1.9947,2.0561,2.1006,2.1496,2.2054,2.2329,2.2512,2.2674,2.3107,2.3635,2.4147,2.4669,2.5172,2.5134,2.5064,2.5026,2.4926,2.4888,2.4895,2.4738,2.4738,2.4763,2.4763,2.4713,2.4738,2.4788,2.4406,2.413,2.4092,2.371,2.3358,2.3158,2.3095,2.3095,2.3664,2.3791,2.2626,2.2309,2.2521,2.2609,2.1629,1.9998,2.0096,2.0161,2.0172,2.0226,2.0248,2.0205,2.0302,2.0259,2.0161,2.0172,2.0151,2.0009,2.0291,2.041,2.0443,2.0776,2.1152,2.1508,2.1435,2.1627,2.2064,2.188,2.1883,2.2014,2.1659,2.1581,2.1723,0.0,0.0,0.0,1.9362,1.8942,1.8774,1.9407,1.9539,1.9108,2.042,0.0,2.0302,2.0773,2.0709,1.9998,1.9608,0.0,0.0,0.0,0.0,0.0,0.0,0.0,0.0,0.0,0.0,0.0,1.6362,1.6119,1.52,1.5815,1.6587,1.732,1.7744,1.8049,1.8321,1.8664,1.8935,1.8978,1.8987,1.9098,1.931,1.931,1.9477,1.9961,2.0459,2.0948,2.1336,2.2171,2.2921,2.334,2.3768,2.4236,2.4847,2.4695,2.4747,2.5227,2.5744,2.6126,2.6185,2.6135,2.5887,2.5611,2.5448,2.5297,2.4938,2.4838,2.4813,2.4838,2.48,2.4825,2.4858,2.4732,2.4625,2.4625,2.4525,2.4186,2.3308,2.3108,2.3095,2.4137,2.4081,2.3341,2.303,0.0,2.3091,2.2312,2.1098,2.1393,2.1268,2.0892,2.1356,2.1463,2.1253,2.1253,2.1083,2.0828,2.0828,2.0732,2.0511,2.0908,2.1085,2.1096,2.1513,2.1792,2.1954,2.2017,2.2067,2.2199,2.2023,2.1949,2.1949,2.1709,2.1642,2.1733,2.1303,2.0831,2.0404,2.0059,1.9806,1.961,2.016,2.0262,1.9944,2.1074,0.0,0.0,0.0,0.0,0.0,0.0,0.0,0.0,1.8872,0.0,1.8489,1.7748,1.7347,1.7407,1.7513,1.777,1.8191,1.839,1.8071,1.7042,1.7513,1.8044,1.84,1.8715,1.8948,1.9078,1.9403,1.9604,1.9604,1.9604,1.9677,1.9867,1.9785,1.9994,2.0596,2.117,2.1675,2.1948,2.3093,2.3895,2.4237,2.4685,2.5229,2.5838,2.5595,2.543,2.5953,2.628,2.6487,2.6487,2.6487,2.6424,2.6135,2.6059,2.5925,2.5686,2.5636,2.5624,2.5636,2.5624,2.5669,2.5611,2.541,2.5197,2.5172,2.4963,2.465,2.4036,2.3935,2.3847,2.4434,2.4089,2.3935,2.3673,2.3429,2.3403,2.3139,2.2694,2.2871,0.0,0.0,2.2476,2.2625,2.2261,2.2249,2.2017,2.1614,2.1616,2.1386,2.1081,2.1499,2.1721,2.1743,2.2226,2.2399,2.2352,2.2587,2.2601,2.2365,2.2176,2.2035,2.1883,2.1807,2.1807,2.1776,2.1424,2.1125,2.0895,2.0778,2.0659,2.0634,2.0974,2.1055,2.0776,2.1642,2.2137,2.2217,2.2183,2.2034,2.1689,2.1328,2.0677,1.9854,1.9962,2.0025,1.9971,1.9649,1.9682,2.0152,1.9872,1.9752,2.0036,1.9975,1.967,1.9137,1.9236,1.936,1.9386,1.9647,1.976,1.9806,1.9985,2.0125,2.0125,2.0125,2.0208,2.041,2.0281,2.048,2.1166,2.1781,2.2323,2.2696,2.3818,2.4731,2.504,2.5464,2.5933,2.6327,2.6047,2.5918,2.6349,2.6452,2.6487,2.6487,2.6487,2.6487,2.6449,2.6461,2.6487,2.6487,2.6487,2.6487,2.6399,2.6487,2.6449,2.6449,2.6084,2.5762,2.5749,2.541,2.5121,2.5109,2.5109,2.4895,2.5344,2.5712,2.4779,2.4636,2.5068,2.5002,2.472,2.4145,2.2559,2.175,2.1615,2.1752,2.1776,2.1729,2.1718,2.1684,2.1615,2.16,2.1563,2.1518,2.1977,2.2195,2.2228,2.2689,2.315,2.3571,2.3007,2.2953,2.3261,2.2515,2.2063,2.2035,2.1883,2.1818,2.1807,2.1735,2.1673,2.1628,2.1042,2.0952,2.1409,2.164,2.1511,2.102,2.1953,2.224,2.1664,2.2137,2.208,2.1339,2.1385,2.1037,2.0191,2.0201,2.0104,1.9925,2.0007,2.0119,2.0216,2.0231,2.0391,2.0659,2.0868,2.0624,1.9847,1.9637,1.964,1.9805,2.0203,2.0461,2.0481,2.0772,2.1002,2.1022,2.1004,2.109,2.1267,2.1267,2.1391,2.1738,2.2382,2.3128,2.3734,2.46,2.5453,2.6025,2.6164,2.6383,2.6452,2.6418,2.6383,2.6499,2.6487,2.6487,2.6487,2.6487,2.6487,2.6487,2.6487,2.6487,2.6487,2.6487,2.6487,2.6487,2.6487,2.6487,2.6487,2.6449,2.6323,2.6298,2.6185,2.616,2.6135,2.6135,2.5883,2.5722,2.5976,2.5857,2.5768,2.5643,2.5387,2.5143,2.4814,2.3699,2.3033,2.2811,2.3063,2.3047,2.2785,2.2773,2.2499,2.1998,2.2579,2.2715,2.2527,2.3234,2.3419,2.3181,2.3408,2.3462,2.3426,2.3408,2.3261,2.3124,2.2852,2.2654,2.2478,2.2535,2.2428,2.2201,2.218,2.2248,2.2289,2.1644,2.1607,2.219,2.2241,2.2115,2.1932,2.2366,2.244,2.2176,2.2324,2.2288,2.1863,2.1936,2.1654,2.0964,2.1001,2.1038,2.0954,2.1001,2.1075,2.1075,2.1102,2.1222,2.1326,2.1352,2.1263,2.0947,2.0656,2.0517,2.0619,2.0906,2.1103,2.1103,2.1352,2.154,2.154,2.154,2.1693,2.2063,2.2138,2.2289,2.2777,2.346,2.3998,2.4131,2.5087,2.5746,2.6037,2.6245,2.6499,2.6499,2.6499,2.6499,2.6487,2.6487,2.6487,2.6487,2.6487,2.6487,2.6487,2.6487,2.6487,2.6487,2.6487,2.6487,2.6487,2.6487,2.6487,2.6487,2.6487,2.6487,2.6487,2.6487,2.6487,2.6487,2.6487,2.6185,2.599,2.6188,2.652,2.6354,2.5874,2.5543,2.5379,2.5336,2.4945,2.4613,2.431,2.444,2.4292,2.3982,2.3957,2.3635,2.317,2.3738,2.3852,2.3642,2.4208,2.4299,2.3934,2.3897,2.3703,2.3482,2.3999,2.3982,2.3464,2.3713,2.3617,2.3157,2.3168,2.3008,2.2666,2.2553,2.2548,2.2621,2.2088,2.2229,2.3052,2.2866,2.2866,2.3069,2.2883,2.2737,2.2687,2.2413,2.2252,2.2252,2.2252,2.2073,2.1627,2.1731,2.1807,2.1807,2.1807,2.1807,2.1818,2.1911,2.1911,2.1818,2.1747,2.1809,2.1886,2.1665,2.146,2.1379,2.1482,2.153,2.1558,2.1683,2.1807,2.1807,2.1807,2.1959,2.244,2.259,2.2751,2.3298,2.3863,2.4143,2.4432,2.517,2.5793,2.5933,2.631,2.664,2.6688,2.6763,2.6864,2.6813,2.6675,2.6499,2.6487,2.6487,2.6487,2.6487,2.6487,2.6487,2.6487,2.6487,2.6487,2.6487,2.6487,2.6487,2.6487,2.6487,2.6487,2.6487,2.6487,2.6487,2.6487,2.6487,2.6373,2.6229,2.6685,2.6229,2.5979,2.5937,2.5841,2.5808,2.5808,2.5786,2.5732,2.5582,2.4847,2.4508,2.4447,2.4441,2.4626,2.4952,2.4691,2.451,2.4494,2.4152,2.3934,2.3909,2.3909,2.4141,2.449,2.508,2.5242,2.5129,2.5393,2.5042,2.4101,2.3496,2.3265,2.3121,2.2758,2.253,2.2507,2.2053,2.2605,2.4096,2.3772,2.375,2.4254,2.3761,2.3242,2.2703,2.2176,2.1845,2.1835,2.1845,2.1835,2.1769,2.1769,2.1807,2.1818,2.1828,2.1807,2.1849,2.2201,2.2263,2.189,2.2183,2.24,2.2439,2.24,2.2175,2.1886,2.18,2.1852,2.1769,2.1849,2.1901,2.1942,2.1901,2.1873,2.2277,2.2138,2.2252,2.2478,2.3249,2.3287,2.45,2.5028,2.5455,2.6385,2.6909,2.7205,2.7278,2.7532,2.7783,2.7695,2.7203,2.6612,2.6549,2.6487,2.6487,2.6487,2.6487,2.6487,2.6487,2.6487,2.6487,2.6487,2.6487,2.6487,2.6487,2.6487,2.6487,2.6487,2.6487,2.6487,2.6487,2.6487,2.6424,2.6074,2.6313,2.6437,2.6479,2.6437,2.6074,2.5895,2.5895,2.5895,2.5895,2.5863,2.548,2.5164,2.4953,2.5185,2.5183,2.4887,2.4963,2.4884,2.4672,2.4791,2.4512,2.3979,2.4192,2.4132,2.3847,2.4966,2.5359,2.5099,2.56,2.5673,2.5201,2.5131,2.5009,2.4748,2.414,2.3756,2.3491,2.2906,2.3269,2.4371,2.3897,2.3753,2.4245,2.404,2.3531,2.2773,2.2363,2.2087,2.1838,2.1807,2.1807,2.1807,2.1807,2.1932,2.219,2.248,2.2625,2.2625,2.2811,2.2822,2.2625,2.2791,2.2904,2.2904,2.2904,2.2811,2.2666,2.2625,2.2625,2.2615,2.2625,2.2615,2.2625,2.2615,2.2987,2.3985,2.4013,2.4357,2.5203,2.5587,2.5797,2.6335,2.659,2.6904,2.736,2.7657,2.777,2.7795,2.7971,2.8084,2.8059,2.7682,2.7318,2.7052,2.6675,2.6562,2.6499,2.6487,2.6487,2.6524,2.6487,2.6487,2.6487,2.6487,2.6487,2.6487,2.6487,2.6487,2.6487,2.6487,2.6487,2.6487,2.6487,2.6487,2.5895,2.5979,2.6437,2.6603,2.6603,2.6115,2.5895,2.5895,2.5895,2.5895,2.5895,2.5895,2.571,2.5459,2.5742,2.5596,2.5234,2.5419,2.5344,2.5058,2.5312,2.5021,2.4362,2.4585,2.4446,2.4048,2.5108,2.5512,2.5253,2.6057,2.6474,2.6329,2.6266,2.6061,2.5676,2.4954,2.442,2.406,2.3499,2.3646,2.4317,2.392,2.3891,2.4392,2.415,2.3568,2.2719,2.2464,2.2159,2.1828,2.1921,2.1994,2.2004,2.2108,2.2335,2.2656,2.2998,2.3194,2.3194,2.3308,2.3359,2.3255,2.3277,2.3411,2.337,2.337,2.3432,2.3557,2.3557,2.3494,2.3205,2.3194,2.3265,2.3416,2.3467,2.4046,2.5249,2.5504,2.5842,2.6987,2.6916,2.7484,2.7619,2.7791,2.7985,2.7998,2.821,2.8335,2.8373,2.8473,2.8612,2.8561,2.8461,2.8097,2.7607,2.7268,2.6942,2.6952,2.7027,2.6989,2.6788,2.6725,2.6562,2.66,2.6537,2.6487,2.6487,2.6487,2.6487,2.6487,2.6487,2.6487,2.6487,2.6487,2.6487,2.5895,2.5895,2.5937,2.5979,2.5937,2.5906,2.5895,2.5895,2.5895,2.5895,2.5895,2.5895,2.5884,2.5841,2.5884,2.6207,2.661,2.6107,2.5899,2.5814,2.5491,2.5276,2.5265,2.5288,2.5381,2.5321,2.5693,2.6252,2.6863,2.7402,2.7626,2.7354,2.6299,2.5642,2.5576,2.4743,2.4002,2.4054,2.3637,2.3484,2.3898,2.4051,2.4298,2.4681,2.4122,2.3422,2.2757,2.2143,2.1859,2.1828,2.2221,2.2439,2.2501,2.2873,2.3122,2.3163,2.3194,2.3215,2.3298,2.3629,2.3691,2.336,2.3639,2.3888,2.3888,2.3846,2.3991,2.4373,2.4321,2.4074,2.3422,2.3431,2.3663,2.4153,2.423,2.4774,2.5754,2.6012,2.5989,2.6543,2.688,2.7193,2.7371,2.7754,2.8149,2.8335,2.8599,2.8863,2.895,2.9327,2.9541,2.9478,2.9189,2.8675,2.8222,2.7833,2.7871,2.7808,2.7632,2.777,2.7482,2.7193,2.6977,2.6738,2.6688,2.6625,2.6537,2.6487,2.6487,2.6487,2.6487,2.6487,2.6555,2.6487,2.6589,2.5895,2.5895,2.5895,2.5895,2.5895,2.5895,2.5895,2.5895,2.5895,2.5895,2.5895,2.5895,2.5895,2.5895,2.5895,2.6021,2.6227,2.5709,2.5477,2.5507,2.534,2.5068,2.4824,2.5108,2.5114,2.5072,2.574,2.6444,2.7134,2.7458,2.7592,2.7551,2.747,2.7441,2.7273,2.6606,2.6024,2.5559,2.4972,2.4535,2.4293,2.414,2.4046,2.3887,2.4183,2.4078,2.363,2.3042,2.2687,2.2697,2.2584,2.2635,2.2946,2.3421,2.3629,2.3701,2.3898,2.4053,2.4074,2.4198,2.424,2.4095,2.4156,2.4249,2.4259,2.4302,2.4342,2.4466,2.4507,2.4301,2.4209,2.442,2.4825,2.5204,2.5602,2.6245,2.7218,2.7533,2.778,2.8387,2.8553,2.8668,2.8709,2.905,2.9189,2.9202,2.9352,2.9428,2.949,2.9679,2.9779,2.9767,2.9628,2.9428,2.9264,2.8486,2.8097,2.8097,2.8047,2.8021,2.7846,2.7808,2.7607,2.7419,2.7205,2.704,2.7027,2.6801,2.6751,2.6575,2.6575,2.6669,2.6611,2.6645,2.6884,2.6229,2.6271,2.6456,2.6385,2.6229,2.6229,2.6229,2.6188,2.5979,2.5895,2.5895,2.5895,2.6032,2.6188,2.6229,2.6343,2.6381,2.5782,2.5527,2.5732,2.5772,2.5676,2.5625,2.5698,2.5495,2.5183,2.5584,2.6228,2.677,2.7267,2.7592,2.7846,2.8099,2.8179,2.8047,2.7522,2.6857,2.6196,2.5748,2.5158,2.4585,2.4314,2.407,2.3794,2.4283,2.4278,2.3647,2.3343,2.3194,2.3163,2.3018,2.3153,2.3598,2.3929,2.4095,2.4126,2.4364,2.4507,2.4507,2.4507,2.4497,2.4497,2.4497,2.4507,2.4507,2.4507,2.4507,2.4507,2.4507,2.4507,2.4625,2.5062,2.5569,2.5841,2.64,2.7273,2.8303,2.8648,2.9042,2.951,2.9626,2.9703,2.9779,2.9767,2.9754,2.9779,2.9779,2.9779,2.9779,2.9779,2.9779,2.9779,2.9767,2.9729,2.9628,2.9114,2.8837,2.8812,2.8725,2.8586,2.8386,2.8373,2.8285,2.8109,2.7896,2.7657,2.7419,2.7216,2.7014,2.6826,2.687,2.7037,2.6964,2.6884,2.7281,2.6891,2.6962,2.7539,2.7377,2.6933,2.688,2.6891,2.6809,2.626,2.6135,2.6177,2.6021,2.6437,2.6809,2.688,2.7185,2.7354,2.6502,2.6318,2.6801,2.6823,2.7128,2.744,2.693,2.6461,2.597,2.5652,2.5653,2.5986,2.6886,2.7684,2.8179,2.7886,2.7765,2.7551,2.7103,2.6362,2.5863,2.5695,2.5242,2.4615,2.4458,2.4386,2.4352,2.4426,2.3909,2.2716,2.3048,2.3277,2.3318,2.3608,2.4064,2.4311,2.4435,2.4476,2.4445,2.4487,2.4497,2.4507,2.4507,2.4507,2.4507,2.4507,2.4507,2.4507,2.4507,2.4507,2.4507,2.4507,2.4507,2.4668,2.5115,2.5653,2.5946,2.6577,2.7406,2.8355,2.904,2.947,2.9753,2.9779,2.9779,2.9779,2.9779,2.9779,2.9779,2.9779,2.9779,2.9779,2.9779,2.9779,2.9779,2.9779,2.9779,2.9779,2.9754,2.9729,2.9691,2.9566,2.9415,2.9063,2.8938,2.8825,2.8637,2.836,2.8122,2.7858,2.7668,2.77,2.7584,2.7566,2.7643,2.7717,2.7792,2.8,2.7499,2.7528,2.773,2.7678,2.7539,2.7539,2.7539,2.7499,2.7284,2.7214,2.7203,2.7214,2.7325,2.7458,2.7539,2.7609,2.777,2.7366,2.7336,2.7499,2.751,2.762,2.7661,2.7208,2.6509,2.5843,2.5327,2.5368,2.5926,2.6532,2.7144,2.7684,2.8099,2.8179,2.8139,2.7978,2.7551,2.6887,2.6404,2.5863,2.5168,2.4451,2.4105,2.4095,2.4074,2.3846,2.3494,2.3588,2.3805,2.4032,2.396,2.4074,2.4404,2.4507,2.4507,2.4507,2.4507,2.4507,2.4507,2.4507,2.4507,2.4507,2.4507,2.4507,2.4507,2.4507,2.4507,2.4507,2.4507,2.4668,2.5115,2.5359,2.5821,2.6453,2.7232,2.8011,2.8922,2.9443,2.965,2.9779,2.9779,2.9779,2.9779,2.9779,2.9779,2.9779,2.9779,2.9779,2.9779,2.9779,2.9779,2.9779,2.9779,2.9779,2.9779,2.9792,2.983,2.983,2.9818,2.9779,2.9515,2.9377,2.9264,2.9139,2.885,2.8612,2.8335,2.8258,2.8366,2.8526,2.8669,2.873,2.8765,2.8972,2.9242,2.8183,2.8223,2.8422,2.8383,2.8183,2.8171,2.8171,2.8131,2.7891,2.7799,2.781,2.7799,2.7971,2.8131,2.8183,2.8303,2.8514,2.8542,2.8554,2.8474,2.8143,2.8103,2.7971,2.7051,2.6426,2.5759,2.5084,2.5242,2.6113,2.6404,2.6969,2.7805,2.8299,2.851,2.851,2.8471,2.8179,2.7522,2.6805,2.6144,2.5484,2.4598,2.4126,2.4126,2.4126,2.4115,2.4126,2.4126,2.4208,2.4404,2.426,2.4281,2.4487,2.4507,2.4507,2.4507,2.4507,2.4507,2.4507,2.4507,2.4507,2.4507,2.4507,2.4507,2.4507,2.4507,2.4583,2.4828,2.4861,2.5189,2.5832,2.6217,2.6624,2.7203,2.773,2.8502,2.9314,2.9702,2.9792,2.9779,2.9779,2.9779,2.9779,2.9779,2.9779,2.9779,2.9779,2.9779,2.9779,2.9779,2.9779,2.9779,2.9779,2.9779,2.9779,2.983,2.983,2.9869,2.9869,2.9818,2.9666,2.9641,2.9578,2.9579,2.9416,2.9416,2.9214,2.9225,2.9273,2.952,2.9795,2.9931,3.0072,3.0375,3.0681,2.8843,2.8922,2.9495,2.9378,2.8882,2.8843,2.8843,2.8752,2.8291,2.8051,2.8011,2.8103,2.8343,2.8752,2.8843,2.9131,2.9675,2.9624,2.9546,2.9339,2.8895,2.8566,2.8395,2.708,2.6351,2.6113,2.5168,2.5338,2.6404,2.661,2.7144,2.8059,2.8299,2.8471,2.8391,2.8431,2.8219,2.7632,2.6899,2.6196,2.5569,2.4861,2.4466,2.4456,2.4456,2.4445,2.4435,2.4425,2.4466,2.4507,2.4456,2.4456,2.4497,2.4507,2.4507,2.4507,2.4507,2.4507,2.4507,2.4507,2.4507,2.4507,2.4507,2.4507,2.4507,2.4615,2.4903,2.5359,2.5527,2.5935,2.6749,2.7235,2.7759,2.8165,2.8351,2.8803,2.9585,2.9779,2.9779,2.9779,2.9779,2.9779,2.9779,2.9779,2.9779,2.9779,2.9779,2.9779,2.9779,2.9779,2.9779,2.9779,2.9779,2.9779,2.9779,2.9779,2.983,2.9946,2.9972,2.9972,2.9934,2.9934,2.9972,2.9985,3.0075,3.0088,3.0139,3.0174,3.0416,3.08,3.1032,3.1206,3.1483,3.1839,3.208,2.9534,2.9534,2.9714,2.9714,2.9546,2.9534,2.9534,2.9507,2.9339,2.917,2.9248,2.926,2.9287,2.9507,2.9495,2.9675,2.9753,2.9792,2.965,2.947,2.9131,2.8697,2.8247,2.7191,2.6682,2.658,2.5706,2.5695,2.6475,2.6899,2.7103,2.7074,2.8059,2.8219,2.7886,2.8259,2.8431,2.8099,2.7062,2.6434,2.6113,2.5073,2.4497,2.4507,2.4507,2.4507,2.4507,2.4507,2.4507,2.4507,2.4507,2.4507,2.4507,2.4507,2.4507,2.4507,2.4507,2.4507,2.4507,2.4507,2.4507,2.4507,2.4507,2.4507,2.454,2.4946,2.5359,2.5757,2.6121,2.6823,2.758,2.794,2.8497,2.9434,2.9285,2.9197,2.97,2.9779,2.9779,2.9779,2.9779,2.9779,2.9779,2.9779,2.9779,2.9779,2.9779,2.9779,2.9779,2.9779,2.9779,2.9779,2.9779,2.9779,2.9779,2.9779,2.9856,3.0011,3.0075,3.0139,3.0177,3.0254,3.0381,3.0457,3.0697,3.0784,3.0972,3.1066,3.1499,3.1998,3.2437,3.2732,3.302,3.3328,3.3457,2.9779,2.9779,2.9779,2.9779,2.9779,2.9779,2.9779,2.9779,2.9779,2.9779,2.9779,2.9779,2.9779,2.9779,2.9792,2.9792,2.9779,2.9702,2.956,2.9392,2.9079,2.8803,2.8275,2.7366,2.6981,2.7144,2.6071,2.5946,2.6393,2.664,2.6693,2.7062,2.7672,2.7966,2.8047,2.8259,2.851,2.8299,2.7429,2.6805,2.6445,2.5485,2.4828,2.4583,2.4507,2.4507,2.4507,2.4507,2.4507,2.4507,2.4507,2.4507,2.4507,2.4507,2.4507,2.4507,2.4507,2.4507,2.4507,2.4507,2.4507,2.4507,2.4507,2.4668,2.4956,2.5401,2.5799,2.6607,2.7058,2.7758,2.845,2.8752,2.946,3.0338,3.0034,2.9763,3.0093,2.9942,2.9804,2.9779,2.9779,2.9779,2.9779,2.9779,2.9779,2.9779,2.9779,2.9779,2.9779,2.9779,2.9779,2.9818,2.9818,2.983,2.9895,2.9934,3.0126,3.0279,3.0558,3.0545,3.0583,3.0697,3.0872,3.1073,3.1334,3.1593,3.1786,3.2087,3.2607,3.315,3.3734,3.4105,3.4317,3.4324,3.4515,2.9779,2.9779,2.9779,2.9779,2.9779,2.9779,2.9779,2.9779,2.9779,2.9779,2.9779,2.9779,2.974,2.9753,2.9702,2.9753,2.9702,2.9482,2.9353,2.9184,2.8949,2.8724,2.8566,2.7522,2.736,2.7592,2.6351,2.6238,2.6528,2.6155,2.6279,2.6899,2.7226,2.7592,2.7765,2.8139,2.8391,2.8231,2.7725,2.7185,2.6693,2.5988,2.5401,2.5031,2.4956,2.4956,2.4871,2.4828,2.4786,2.4625,2.4529,2.4497,2.4507,2.4507,2.4507,2.4507,2.4507,2.4507,2.4507,2.4507,2.4507,2.4507,2.4583,2.4871,2.5401,2.5883,2.6607,2.7637,2.8139,2.8814,2.9505,2.9849,3.0313,3.0957,3.0405,3.0218,3.0369,3.0118,2.9779,2.9779,2.9779,2.9779,2.9779,2.9779,2.9779,2.9779,2.9779,2.9779,2.9779,2.9779,2.9818,2.9895,2.9895,2.9908,3.0011,3.0088,3.0343,3.0571,3.1035,3.1158,3.1134,3.1233,3.1466,3.1723,3.2173,3.2519,3.2777,3.3199,3.363,3.3953,3.4327,3.4806,3.5172,3.5056,3.5141,2.9779,2.9779,2.9779,2.9779,2.9779,2.9779,2.9779,2.9779,2.9779,2.9779,2.9779,2.9779,2.9689,2.9509,2.9509,2.9392,2.9287,2.9209,2.9079,2.891,2.8697,2.859,2.8419,2.7736,2.7765,2.7966,2.7522,2.7156,2.7144,2.694,2.661,2.6071,2.6599,2.6569,2.6487,2.7389,2.7725,2.7684,2.7563,2.7441,2.7185,2.661,2.6185,2.5946,2.5946,2.603,2.606,2.6071,2.5821,2.5316,2.4828,2.4583,2.4497,2.4507,2.4507,2.4507,2.4507,2.4507,2.4507,2.454,2.454,2.4658,2.5073,2.5401,2.5757,2.6782,2.7557,2.8415,2.9248,2.9955,3.0673,3.0957,3.1135,3.1223,3.0871,3.047,3.0495,3.0131,2.9817,2.9779,2.9779,2.9779,2.9779,2.9779,2.9779,2.9779,2.9779,2.9779,2.9779,2.9779,2.9856,2.996,3.0011,3.0049,3.0241,3.0381,3.0609,3.0936,3.1357,3.1882,3.1846,3.2015,3.2349,3.272,3.3122,3.3457,3.3719,3.3993,3.4394,3.4643,3.4857,3.5166,3.5392,3.5489,3.5489,2.9779,2.9779,2.9779,2.9779,2.9779,2.9779,2.9779,2.9779,2.9663,2.9702,2.974,2.9689,2.9509,2.9431,2.938,2.9275,2.9091,2.9013,2.8843,2.8685,2.8538,2.851,2.8471,2.8219,2.8179,2.8391,2.7805,2.751,2.7429,2.7185,2.661,2.603,2.6321,2.661,2.6362,2.6846,2.74,2.7857,2.7644,2.7522,2.7389,2.7185,2.6734,2.6475,2.6227,2.6155,2.6445,2.5779,2.5779,2.5748,2.5327,2.4786,2.454,2.4507,2.4507,2.4507,2.4507,2.4711,2.4871,2.4999,2.5115,2.5401,2.5779,2.6216,2.67,2.7557,2.8211,2.8867,2.9611,3.0403,3.126,3.1373,3.1461,3.165,3.1298,3.0997,3.0846,3.0281,2.9779,2.9779,2.9779,2.9779,2.9779,2.9779,2.9779,2.9779,2.9818,2.9818,2.9869,2.9856,2.996,3.0037,3.0113,3.0228,3.0495,3.0685,3.0911,3.1272,3.1726,3.2318,3.2733,3.3003,3.3339,3.3665,3.4002,3.4404,3.4673,3.4905,3.4971,3.5118,3.5264,3.5424,3.5489,3.5489,3.5489,2.9779,2.9779,2.9779,2.9779,2.9779,2.9779,2.9779,2.974,2.9509,2.9521,2.965,2.947,2.9302,2.9289,2.9263,2.9184,2.9,2.8855,2.8657,2.855,2.851,2.851,2.8471,2.8431,2.8419,2.8431,2.8007,2.7725,2.7551,2.701,2.6734,2.6487,2.6321,2.6279,2.6652,2.6816,2.6981,2.7684,2.7805,2.7765,2.7725,2.7684,2.74,2.7021,2.664,2.6558,2.6734,2.6238,2.579,2.6517,2.6113,2.5485,2.4988,2.4658,2.4668,2.4668,2.4625,2.4796,2.5242,2.5454,2.5706,2.6404,2.6599,2.6999,2.7649,2.8091,2.8661,2.9295,2.9975,3.062,3.1373,3.175,3.1913,3.2014,3.1763,3.1486,3.1148,3.0444,3.0068,2.9942,2.9867,2.9779,2.9779,2.9779,2.9779,2.9779,2.9818,2.9856,2.9895,3.0011,3.0152,3.019,3.0267,3.0583,3.0848,3.1246,3.1431,3.1909,3.2295,3.2875,3.3618,3.4261,3.4583,3.452,3.4806,3.5129,3.5276,3.5246,3.5344,3.5489,3.5489,3.5489,3.5489,3.5489,3.5489,2.9779,2.9779,2.9779,2.9779,2.9779,2.9779,2.9779,2.974,2.9482,2.9419,2.9431,2.9248,2.904,2.8949,2.891,2.8803,2.8657,2.859,2.855,2.851,2.851,2.851,2.851,2.8595,2.857,2.8459,2.8335,2.8319,2.8099,2.7684,2.7103,2.6569,2.6113,2.5821,2.5737,2.5904,2.6652,2.7267,2.7765,2.8139,2.8219,2.8219,2.8179,2.7938,2.7644,2.7765,2.7926,2.7886,2.7725,2.7389,2.7226,2.6775,2.6238,2.5695,2.5411,2.5242,2.4946,2.5041,2.5611,2.5622,2.5904,2.6445,2.7062,2.7499,2.8063,2.8554,2.9079,2.9706,3.0505,3.1311,3.1989,3.2265,3.2466,3.2353,3.2127,3.175,3.1072,3.067,3.0444,3.0344,3.008,2.9779,2.9779,2.9779,2.9779,2.9856,2.9934,2.9972,2.9998,3.019,3.0406,3.0444,3.0457,3.0872,3.127,3.1736,3.2137,3.2747,3.3206,3.3699,3.4486,3.5495,3.5856,3.5537,3.5344,3.5475,3.5559,3.5579,3.5489,3.5489,3.5489,3.5489,3.5489,3.5489,3.5489,2.9417,2.9611,2.9611,2.9534,2.9417,2.9456,2.9495,2.9534,2.9236,2.9223,2.9263,2.9079,2.8882,2.8831,2.8803,2.8697,2.855,2.851,2.851,2.851,2.851,2.851,2.857,2.8751,2.8907,2.8931,2.8919,2.8727,2.8495,2.8231,2.7603,2.7103,2.6652,2.6196,2.5779,2.6185,2.6652,2.7062,2.7644,2.8179,2.8471,2.851,2.851,2.8431,2.8219,2.8179,2.8351,2.7672,2.7684,2.7857,2.7684,2.7563,2.7307,2.694,2.6373,2.6071,2.5695,2.5779,2.6351,2.6569,2.6899,2.747,2.7926,2.8275,2.8593,2.8988,2.9404,2.985,3.0419,3.1198,3.17,3.2328,3.2579,3.2692,3.2641,3.2227,3.1612,3.1198,3.0884,3.0595,3.0118,2.9868,2.9779,2.9779,2.9779,2.9856,3.0023,3.0088,3.0164,3.0458,3.075,3.0985,3.1134,3.164,3.2015,3.2398,3.2986,3.3578,3.4111,3.4573,3.5096,3.603,3.6272,3.6126,3.6043,3.6118,3.5878,3.5878,3.5699,3.5504,3.5489,3.5489,3.5489,3.5489,3.5489,2.891,2.938,2.9263,2.9157,2.9091,2.9104,2.9197,2.9223,2.8961,2.8988,2.9172,2.8922,2.8764,2.8724,2.8724,2.8657,2.851,2.851,2.851,2.851,2.851,2.851,2.8643,2.8871,2.9039,2.8943,2.8991,2.8979,2.8763,2.8491,2.8111,2.7563,2.7482,2.7062,2.6393,2.6517,2.6969,2.7185,2.7644,2.8018,2.8391,2.851,2.851,2.851,2.7966,2.8007,2.8351,2.7765,2.7725,2.8059,2.8099,2.7926,2.8299,2.7966,2.7441,2.6981,2.6693,2.6899,2.7267,2.7429,2.7603,2.8275,2.8645,2.8882,2.9118,2.9314,2.9573,2.9841,3.0319,3.0871,3.1436,3.1913,3.2453,3.2935,3.3023,3.2822,3.2122,3.1543,3.1069,3.0651,3.0146,2.9945,2.9945,2.9934,2.9934,3.0266,3.042,3.042,3.0522,3.0881,3.1198,3.1609,3.1955,3.2497,3.2925,3.3192,3.3809,3.4502,3.4971,3.5421,3.587,3.6376,3.6585,3.6911,3.7,3.7015,3.6611,3.6118,3.5878,3.5699,3.5564,3.5489,3.5489,3.5489,3.5489,2.849,2.9341,2.8803,2.8788,2.9052,2.9104,2.9091,2.9079,2.8882,2.8843,2.891,2.8657,2.855,2.855,2.855,2.851,2.851,2.851,2.851,2.851,2.851,2.851,2.8522,2.8534,2.8787,2.8835,2.8739,2.8871,2.8931,2.8703,2.8191,2.7684,2.7522,2.6951,2.6071,2.6899,2.7062,2.6951,2.7765,2.8391,2.8471,2.851,2.851,2.8471,2.8391,2.8351,2.8471,2.8139,2.8311,2.8351,2.8431,2.8431,2.8471,2.8471,2.8379,2.7938,2.736,2.6775,2.7429,2.7644,2.7914,2.8566,2.8803,2.8988,2.9314,2.956,2.974,2.9804,3.0256,3.0746,3.1248,3.1838,3.2428,3.2847,3.3061,3.2643,3.2095,3.2089,3.1572,3.0888,3.0444,3.0265,3.0215,3.0164,3.0139,3.0484,3.0791,3.0817,3.1085,3.1496,3.1854,3.2282,3.2783,3.3325,3.3673,3.3968,3.4539,3.5297,3.5686,3.6157,3.6592,3.7014,3.7679,3.7943,3.7988,3.7599,3.6896,3.6417,3.6088,3.5789,3.5564,3.5489,3.5489,3.5489,3.5489,2.7191,2.845,2.8223,2.8367,2.8736,2.8788,2.8816,2.8882,2.8736,2.8685,2.8764,2.8578,2.851,2.851,2.851,2.851,2.851,2.851,2.851,2.851,2.851,2.851,2.8595,2.8811,2.8967,2.8883,2.8967,2.9088,2.91,2.8759,2.8299,2.8099,2.7966,2.7429,2.631,2.7389,2.7267,2.7226,2.7725,2.8431,2.851,2.851,2.851,2.851,2.851,2.851,2.851,2.851,2.851,2.851,2.851,2.851,2.851,2.851,2.8471,2.8431,2.8018,2.7805,2.8047,2.8047,2.8367,2.8645,2.8922,2.917,2.9534,2.974,2.9792,2.9792,2.9993,3.0407,3.0962,3.1436,3.1976,3.247,3.2983,3.2819,3.245,3.2393,3.213,3.1404,3.0778,3.0688,3.056,3.0407,3.0547,3.0984,3.1242,3.1345,3.1807,3.2511,3.2795,3.3037,3.3569,3.4147,3.437,3.4654,3.5175,3.5817,3.6096,3.6585,3.7187,3.7749,3.8302,3.8646,3.8646,3.8078,3.7195,3.6656,3.6297,3.5893,3.5504,3.5489,3.5489,3.5489,3.5522,2.6019,2.7232,2.7499,2.7914,2.8459,2.851,2.8578,2.8697,2.859,2.8578,2.8657,2.859,2.851,2.851,2.851,2.851,2.851,2.851,2.851,2.851,2.851,2.851,2.8595,2.8895,2.9039,2.9112,2.8943,2.9003,2.8919,2.8727,2.8471,2.851,2.8391,2.7805,2.7348,2.7725,2.7978,2.74,2.8018,2.8471,2.851,2.851,2.851,2.851,2.851,2.851,2.851,2.851,2.851,2.851,2.851,2.851,2.851,2.851,2.851,2.851,2.8327,2.8447,2.8498,2.8538,2.8685,2.8922,2.917,2.9456,2.9767,2.9856,2.9946,2.9972,2.9985,3.0301,3.0691,3.1211,3.1754,3.2393,3.2916,3.2873,3.2816,3.2739,3.2399,3.1654,3.119,3.119,3.1023,3.0753,3.0945,3.1435,3.1668,3.1928,3.2639,3.3522,3.3965,3.4257,3.488,3.5371,3.553,3.5733,3.6134,3.6399,3.6694,3.724,3.7958,3.8347,3.8721,3.899,3.914,3.8437,3.7479,3.6985,3.6477,3.5923,3.5489,3.5489,3.5489,3.5522,3.5604,2.5538,2.5737,2.6592,2.7586,2.8471,2.851,2.8471,2.855,2.851,2.851,2.8538,2.851,2.851,2.851,2.851,2.851,2.851,2.851,2.851,2.851,2.851,2.851,2.857,2.8595,2.8631,2.8631,2.8679,2.8667,2.8595,2.8619,2.851,2.851,2.851,2.8059,2.7765,2.7886,2.8339,2.8007,2.8431,2.8471,2.851,2.851,2.851,2.851,2.851,2.851,2.851,2.851,2.851,2.851,2.851,2.851,2.851,2.851,2.851,2.8578,2.8645,2.8764,2.8803,2.8803,2.8988,2.9275,2.956,2.9779,2.9972,3.0088,3.0152,3.0267,3.0216,3.0484,3.0893,3.1316,3.1694,3.2306,3.2845,3.3136,3.3065,3.2931,3.2576,3.1863,3.1629,3.1721,3.1915,3.1785,3.2019,3.2555,3.337,3.3608,3.4011,3.4798,3.5252,3.5712,3.6377,3.6768,3.6887,3.7054,3.6969,3.7257,3.7609,3.8242,3.8945,3.9185,3.911,3.92,3.9194,3.8512,3.7913,3.7608,3.7023,3.6016,3.5489,3.5539,3.5701,3.5846,3.5863,2.5115,2.558,2.6332,2.7115,2.7886,2.7886,2.8139,2.8471,2.851,2.851,2.851,2.851,2.851,2.851,2.851,2.851,2.851,2.851,2.851,2.851,2.851,2.851,2.851,2.851,2.8522,2.851,2.851,2.851,2.8534,2.851,2.851,2.851,2.851,2.8059,2.7846,2.7886,2.8127,2.8459,2.851,2.851,2.851,2.851,2.851,2.851,2.851,2.851,2.851,2.851,2.851,2.851,2.851,2.851,2.851,2.851,2.8578,2.8697,2.8803,2.8961,2.9106,2.9079,2.9118,2.938,2.9715,3.0049,3.0152,3.0228,3.0305,3.0368,3.0406,3.0624,3.065,3.1022,3.152,3.2267,3.281,3.315,3.3364,3.3226,3.3112,3.258,3.2437,3.2411,3.2673,3.2922,3.3304,3.374,3.4565,3.5298,3.5589,3.593,3.6408,3.675,3.732,3.7476,3.758,3.7635,3.7704,3.8078,3.8467,3.8871,3.932,3.9328,3.9284,3.9373,3.9349,3.8867,3.8482,3.8312,3.7575,3.6415,3.5862,3.5686,3.5863,3.6148,3.6243,2.4946,2.5285,2.5946,2.6734,2.747,2.7725,2.8059,2.8431,2.851,2.851,2.851,2.851,2.851,2.851,2.851,2.851,2.851,2.851,2.851,2.851,2.851,2.851,2.851,2.851,2.851,2.851,2.851,2.851,2.851,2.851,2.851,2.851,2.8471,2.8179,2.7966,2.7846,2.8059,2.8391,2.851,2.851,2.851,2.851,2.851,2.851,2.851,2.851,2.851,2.851,2.851,2.851,2.851,2.851,2.851,2.859,2.8657,2.8803,2.9,2.9248,2.9404,2.947,2.947,2.9819,2.9973,3.019,3.0305,3.0419,3.0533,3.0596,3.0596,3.0558,3.0571,3.0958,3.1371,3.2044,3.2653,3.3071,3.3528,3.3623,3.3586,3.3391,3.3169,3.2856,3.3899,3.4254,3.4786,3.5186,3.5694,3.6292,3.657,3.6989,3.7492,3.776,3.805,3.8057,3.8043,3.8252,3.8497,3.8616,3.8931,3.902,3.9305,3.9379,3.946,3.9517,3.9469,3.9228,3.8968,3.8681,3.7786,3.6725,3.6383,3.6163,3.6212,3.6492,3.6814,2.5084,2.4625,2.5285,2.6268,2.7389,2.8179,2.8379,2.8391,2.8431,2.8431,2.851,2.851,2.851,2.851,2.851,2.851,2.851,2.851,2.851,2.851,2.851,2.851,2.851,2.851,2.851,2.851,2.851,2.851,2.851,2.851,2.851,2.851,2.851,2.8471,2.8459,2.8471,2.8471,2.851,2.851,2.851,2.851,2.851,2.851,2.851,2.851,2.851,2.851,2.851,2.851,2.851,2.851,2.851,2.851,2.8657,2.8803,2.8882,2.9417,2.9702,2.983,2.9972,3.0101,3.0203,3.0292,3.0419,3.0622,3.0698,3.0723,3.0823,3.0911,3.0949,3.0962,3.1027,3.1368,3.1811,3.245,3.301,3.3481,3.3938,3.3901,3.3809,3.3354,3.3186,3.4601,3.5666,3.6281,3.6696,3.6975,3.7252,3.7485,3.7802,3.8253,3.8514,3.8653,3.8689,3.873,3.9044,3.9254,3.9313,3.9298,3.932,3.932,3.943,3.9517,3.9661,3.9657,3.9541,3.9284,3.9028,3.839,3.7795,3.7079,3.6816,3.6785,3.6875,3.7237,2.47,2.4583,2.5242,2.5737,2.6185,2.6404,2.6981,2.7725,2.7846,2.8099,2.8431,2.851,2.851,2.851,2.851,2.851,2.851,2.851,2.851,2.851,2.851,2.851,2.851,2.851,2.851,2.851,2.851,2.851,2.851,2.851,2.851,2.851,2.851,2.851,2.851,2.851,2.851,2.851,2.851,2.851,2.851,2.851,2.851,2.851,2.851,2.851,2.851,2.851,2.851,2.851,2.851,2.851,2.855,2.8736,2.8949,2.9157,2.965,2.9985,3.0241,3.0457,3.0419,3.0482,3.052,3.0609,3.0698,3.0849,3.0911,3.0986,3.1024,3.1024,3.0999,3.0999,3.1275,3.181,3.2385,3.2959,3.3483,3.3979,3.4175,3.4058,3.3732,3.4166,3.5198,3.6403,3.7151,3.7505,3.7749,3.8,3.8243,3.8392,3.8686,3.8986,3.9173,3.9298,3.9388,3.9388,3.9388,3.9358,3.9343,3.9358,3.9409,3.9532,3.9625,3.9768,3.9824,3.9869,3.9771,3.9665,3.9535,3.9045,3.8348,3.7818,3.7779,3.7782,3.7799,2.4507,2.454,2.4956,2.5285,2.5538,2.5737,2.6528,2.7389,2.7522,2.7898,2.8391,2.851,2.851,2.851,2.851,2.851,2.851,2.851,2.851,2.851,2.851,2.851,2.851,2.851,2.851,2.851,2.851,2.851,2.851,2.851,2.851,2.851,2.851,2.851,2.851,2.851,2.851,2.851,2.851,2.851,2.851,2.851,2.851,2.851,2.851,2.851,2.851,2.851,2.851,2.851,2.851,2.859,2.8709,2.8934,2.9184,2.9548,2.996,3.0318,3.0647,3.0761,3.0723,3.0672,3.0723,3.0811,3.0811,3.0911,3.0986,3.0986,3.1024,3.1024,3.1024,3.1024,3.1182,3.1718,3.2293,3.2868,3.3368,3.3853,3.4692,3.4558,3.4874,3.534,3.5859,3.6896,3.7886,3.8165,3.8427,3.8649,3.8833,3.8907,3.898,3.9228,3.9388,3.9388,3.9388,3.9388,3.9388,3.9388,3.9424,3.9496,3.9553,3.9661,3.9768,3.991,4.0001,4.0141,4.0351,4.032,4.0245,4.0044,3.962,3.9172,3.8903,3.8806,3.8811,2.4507,2.4507,2.4507,2.4871,2.5496,2.5988,2.6704,2.7429,2.7482,2.7886,2.851,2.851,2.851,2.851,2.851,2.851,2.851,2.851,2.851,2.851,2.851,2.851,2.851,2.851,2.851,2.851,2.851,2.851,2.851,2.851,2.851,2.851,2.851,2.851,2.851,2.851,2.851,2.851,2.851,2.851,2.851,2.851,2.851,2.851,2.851,2.851,2.851,2.851,2.851,2.855,2.855,2.8776,2.9013,2.9314,2.9664,3.0062,3.047,3.0723,3.0911,3.0949,3.0949,3.0898,3.0949,3.0986,3.0986,3.0986,3.0986,3.1024,3.1024,3.1024,3.1024,3.1024,3.1037,3.1575,3.2163,3.266,3.3146,3.39,3.4982,3.5494,3.5949,3.6431,3.6922,3.7787,3.8315,3.8538,3.8723,3.8885,3.9031,3.9031,3.9104,3.9265,3.9388,3.9388,3.9388,3.9388,3.9445,3.9481,3.9589,3.9625,3.9717,3.9839,3.998,4.0121,4.0242,4.0366,4.047,4.0765,4.1075,4.0821,4.0576,4.0515,4.0204,4.0093,4.0134,2.4507,2.4507,2.4507,2.4625,2.4786,2.4999,2.5737,2.6775,2.7267,2.7886,2.851,2.851,2.8471,2.851,2.851,2.851,2.851,2.851,2.851,2.851,2.851,2.851,2.851,2.851,2.851,2.851,2.851,2.851,2.851,2.851,2.851,2.851,2.851,2.851,2.851,2.851,2.851,2.851,2.851,2.851,2.851,2.851,2.851,2.851,2.851,2.851,2.851,2.851,2.855,2.8697,2.8855,2.9013,2.9091,2.9599,3.0113,3.047,3.0773,3.0949,3.0986,3.1024,3.1024,3.1024,3.1024,3.1024,3.1024,3.1024,3.1024,3.1024,3.1024,3.1024,3.1024,3.1024,3.1024,3.1313,3.2005,3.2778,3.3344,3.4406,3.5493,3.6322,3.6819,3.7169,3.7711,3.8188,3.8649,3.8833,3.8995,3.9104,3.9192,3.9192,3.9228,3.9352,3.9388,3.9388,3.9388,3.9388,3.9481,3.9574,3.9681,3.9803,3.991,4.0051,4.0191,4.0296,4.0366,4.0401,4.047,4.0885,4.1456,4.1687,4.1549,4.1577,4.1576,4.1398,4.1265,2.4507,2.4507,2.4507,2.4464,2.4444,2.4754,2.5369,2.603,2.6487,2.7226,2.8059,2.8099,2.8271,2.8471,2.851,2.851,2.851,2.851,2.851,2.851,2.851,2.851,2.851,2.851,2.851,2.851,2.851,2.851,2.851,2.851,2.851,2.851,2.851,2.851,2.851,2.851,2.851,2.851,2.851,2.851,2.851,2.851,2.851,2.851,2.851,2.851,2.851,2.851,2.8618,2.8803,2.8973,2.9248,2.9482,3.0113,3.0495,3.0811,3.0874,3.0986,3.1024,3.1024,3.1024,3.1024,3.1024,3.1024,3.1024,3.1024,3.1024,3.1024,3.1024,3.1024,3.1024,3.1024,3.1024,3.105,3.1964,3.2935,3.3926,3.5006,3.5953,3.6958,3.7453,3.781,3.8225,3.8671,3.8929,3.9017,3.9141,3.925,3.9301,3.9301,3.9301,3.9388,3.9388,3.9388,3.9424,3.946,3.9553,3.9661,3.9818,3.9925,4.0101,4.0242,4.0366,4.0401,4.0436,4.0574,4.0799,4.129,4.1769,4.2045,4.2397,4.2543,4.2556,4.2498,4.2397,2.4507,2.4507,2.4454,2.4378,2.4325,2.5041,2.5285,2.5158,2.5538,2.629,2.736,2.7563,2.7978,2.8391,2.8471,2.851,2.851,2.851,2.851,2.851,2.851,2.851,2.851,2.851,2.851,2.851,2.851,2.851,2.851,2.851,2.851,2.851,2.851,2.851,2.851,2.851,2.851,2.851,2.851,2.851,2.851,2.851,2.851,2.851,2.851,2.851,2.851,2.855,2.8578,2.8803,2.9079,2.947,3.0139,3.0533,3.0836,3.0949,3.0986,3.0986,3.1024,3.1024,3.1024,3.1024,3.1024,3.1024,3.1024,3.1024,3.1024,3.1024,3.1024,3.1024,3.1024,3.1024,3.1024,3.1487,3.2311,3.3319,3.4421,3.5585,3.6859,3.7644,3.8037,3.8352,3.8464,3.887,3.9104,3.9177,3.925,3.9337,3.9373,3.9388,3.946,3.946,3.9496,3.9532,3.9568,3.964,3.9661,3.9732,3.9925,4.0066,4.0261,4.0401,4.0505,4.0627,4.0799,4.0987,4.1256,4.1785,4.2238,4.2555,4.2945,4.3388,4.3469,4.3291,4.3175,2.4507,2.4497,2.4325,2.4249,2.4282,2.4786,2.469,2.4262,2.5348,2.6332,2.7226,2.7765,2.8059,2.8259,2.8431,2.8471,2.8471,2.851,2.851,2.851,2.851,2.851,2.851,2.851,2.851,2.851,2.851,2.851,2.851,2.851,2.851,2.851,2.851,2.851,2.851,2.851,2.851,2.851,2.851,2.851,2.851,2.851,2.851,2.851,2.851,2.851,2.851,2.851,2.8618,2.8803,2.9328,2.996,3.0761,3.0811,3.0849,3.0949,3.1024,3.1024,3.1024,3.1024,3.1024,3.1024,3.1024,3.1024,3.1024,3.1024,3.1024,3.1024,3.1024,3.1024,3.1024,3.1061,3.1226,3.1887,3.2709,3.3806,3.4896,3.6288,3.7686,3.8113,3.8516,3.8701,3.8775,3.8995,3.9228,3.9352,3.9352,3.9424,3.946,3.946,3.9589,3.9625,3.9625,3.9661,3.9747,3.9818,3.9818,3.996,4.0137,4.0277,4.0401,4.0558,4.073,4.1003,4.1223,4.1456,4.1785,4.2302,4.2728,4.3007,4.3207,4.3555,4.3658,4.3558,4.3545,2.4378,2.4325,2.4249,2.412,2.4067,2.4315,2.4251,2.4348,2.5242,2.6166,2.6899,2.74,2.7777,2.8018,2.8259,2.8391,2.8391,2.8471,2.851,2.851,2.851,2.851,2.851,2.851,2.851,2.851,2.851,2.851,2.851,2.851,2.851,2.851,2.851,2.851,2.851,2.851,2.851,2.851,2.851,2.851,2.851,2.851,2.851,2.851,2.851,2.851,2.851,2.855,2.8736,2.9157,2.978,3.0279,3.0836,3.0911,3.0911,3.0949,3.1024,3.1024,3.1024,3.1024,3.1024,3.1024,3.1024,3.1024,3.1024,3.1024,3.1024,3.1024,3.1024,3.1024,3.1123,3.1198,3.1421,3.1947,3.3244,3.4544,3.5784,3.7153,3.791,3.8165,3.8464,3.8708,3.887,3.9104,3.9337,3.9553,3.9553,3.9604,3.9604,3.9604,3.9732,3.9803,3.9824,3.9839,3.9905,3.9975,4.0011,4.0187,4.0312,4.0401,4.0489,4.0765,4.1003,4.1323,4.1654,4.1948,4.2333,4.2759,4.3037,4.3281,4.3419,4.3615,4.3687,4.3776,4.3805,2.4153,2.4163,2.412,2.398,2.3841,2.397,2.4176,2.4541,2.5359,2.5999,2.6487,2.6839,2.7301,2.7748,2.8059,2.8139,2.8259,2.8351,2.8431,2.851,2.851,2.851,2.851,2.851,2.851,2.851,2.851,2.851,2.851,2.851,2.851,2.851,2.851,2.851,2.851,2.851,2.851,2.851,2.851,2.851,2.851,2.851,2.851,2.851,2.851,2.855,2.855,2.8669,2.8922,2.9431,3.0088,3.0558,3.0874,3.0986,3.0986,3.1024,3.1024,3.1024,3.1024,3.1024,3.1024,3.1024,3.1024,3.1024,3.1024,3.1099,3.1099,3.1123,3.1123,3.1198,3.1347,3.1556,3.1813,3.2404,3.3905,3.525,3.6594,3.7771,3.8046,3.8263,3.8538,3.8782,3.9017,3.9213,3.943,3.9646,3.9753,3.9839,3.9889,3.9889,3.991,3.998,4.0016,4.0031,4.0081,4.0172,4.0242,4.0277,4.0401,4.0455,4.0612,4.1088,4.1456,4.172,4.2013,4.2397,4.268,4.3084,4.3312,4.3492,4.3628,4.3734,4.3776,4.3864,4.3981,2.3884,2.3841,2.3711,2.359,2.3667,2.4476,2.468,2.4584,2.6071,2.6663,2.6539,2.6921,2.7342,2.7603,2.7829,2.803,2.8219,2.8299,2.8391,2.8471,2.851,2.851,2.851,2.851,2.851,2.851,2.851,2.851,2.851,2.851,2.851,2.851,2.851,2.851,2.851,2.851,2.851,2.851,2.851,2.851,2.851,2.851,2.851,2.851,2.851,2.8709,2.8855,2.8973,2.9263,2.969,3.0152,3.0634,3.0874,3.1024,3.1024,3.1024,3.1024,3.1024,3.1024,3.1024,3.1024,3.1024,3.1024,3.1024,3.1136,3.1421,3.1482,3.1593,3.1629,3.1703,3.1886,3.2273,3.2588,3.3507,3.4768,3.5868,3.7053,3.7796,3.8264,3.8509,3.8775,3.898,3.909,3.9322,3.9538,3.9696,3.9803,3.991,4.0066,4.0066,4.0101,4.0172,4.0191,4.0296,4.0401,4.0455,4.0524,4.0489,4.0593,4.0851,4.1189,4.1638,4.1948,4.2174,4.2523,4.2883,4.3176,4.3328,4.3419,4.3568,4.3763,4.3852,4.391,4.4023,4.4196]}]]